<?xml version="1.0" encoding="UTF-8" standalone="no" ?>
<gpx xmlns="http://www.topografix.com/GPX/1/1" xmlns:xsi="http://www.w3.org/2001/XMLSchema-instance" xsi:schemaLocation="http://www.topografix.com/GPX/1/1 http://www.topografix.com/GPX/1/1/gpx.xsd" version="1.1" creator="VisuGPX - https://www.visugpx.com">
  <metadata>
    <name>05-OCT-22 17:15:56</name>
    <desc><![CDATA[Départ au parking à l'abri de Machais, prendre chemin des Italiens direction le lac de Blanchemer ( faire le tour), puis rond jaune vers le Lac de la Lande par le barrage, tour du lac et monter par le chemin du tour d'Artimont jusqu'à la route des Crêtes, enfin direction du Rainkopf. Après la descente prendre à droite traverser la route des Crêtes pour se rendre à l'Ecomusée du Rothenbach. De là prendre croix verte, on passe devant la source de la Thur puis croix jaune direction la tourbière de Machais. Le long de la tourbière rester sur triangle rouge jusqu'au parking.]]></desc>
  </metadata>
  <trk>
    <name><![CDATA[05-OCT-22 17:15:56]]></name>
    <trkseg>
      <trkpt lat="48.02024" lon="6.9616">
        <ele>938.86</ele>
        <time>2022-10-05T08:12:02Z</time>
      </trkpt>
      <trkpt lat="48.02024" lon="6.9616">
        <ele>938.86</ele>
        <time>2022-10-05T08:12:03Z</time>
      </trkpt>
      <trkpt lat="48.02021" lon="6.96148">
        <ele>938.86</ele>
        <time>2022-10-05T08:12:23Z</time>
      </trkpt>
      <trkpt lat="48.02019" lon="6.96144">
        <ele>937.42</ele>
        <time>2022-10-05T08:12:43Z</time>
      </trkpt>
      <trkpt lat="48.0201" lon="6.9616">
        <ele>935.98</ele>
        <time>2022-10-05T08:13:03Z</time>
      </trkpt>
      <trkpt lat="48.01991" lon="6.96179">
        <ele>935.5</ele>
        <time>2022-10-05T08:13:29Z</time>
      </trkpt>
      <trkpt lat="48.01988" lon="6.96189">
        <ele>934.06</ele>
        <time>2022-10-05T08:13:49Z</time>
      </trkpt>
      <trkpt lat="48.01986" lon="6.96193">
        <ele>933.58</ele>
        <time>2022-10-05T08:13:51Z</time>
      </trkpt>
      <trkpt lat="48.01981" lon="6.96206">
        <ele>933.1</ele>
        <time>2022-10-05T08:14:01Z</time>
      </trkpt>
      <trkpt lat="48.01975" lon="6.96215">
        <ele>932.62</ele>
        <time>2022-10-05T08:14:05Z</time>
      </trkpt>
      <trkpt lat="48.01964" lon="6.96235">
        <ele>931.65</ele>
        <time>2022-10-05T08:14:22Z</time>
      </trkpt>
      <trkpt lat="48.01944" lon="6.96258">
        <ele>929.73</ele>
        <time>2022-10-05T08:14:39Z</time>
      </trkpt>
      <trkpt lat="48.01933" lon="6.96271">
        <ele>929.25</ele>
        <time>2022-10-05T08:14:59Z</time>
      </trkpt>
      <trkpt lat="48.01933" lon="6.96271">
        <ele>929.25</ele>
        <time>2022-10-05T08:15:00Z</time>
      </trkpt>
      <trkpt lat="48.01921" lon="6.96297">
        <ele>928.29</ele>
        <time>2022-10-05T08:15:20Z</time>
      </trkpt>
      <trkpt lat="48.01922" lon="6.96308">
        <ele>927.33</ele>
        <time>2022-10-05T08:15:42Z</time>
      </trkpt>
      <trkpt lat="48.01918" lon="6.96324">
        <ele>925.89</ele>
        <time>2022-10-05T08:16:01Z</time>
      </trkpt>
      <trkpt lat="48.01917" lon="6.96326">
        <ele>925.89</ele>
        <time>2022-10-05T08:16:02Z</time>
      </trkpt>
      <trkpt lat="48.01915" lon="6.96328">
        <ele>926.37</ele>
        <time>2022-10-05T08:16:04Z</time>
      </trkpt>
      <trkpt lat="48.01908" lon="6.96342">
        <ele>925.89</ele>
        <time>2022-10-05T08:16:12Z</time>
      </trkpt>
      <trkpt lat="48.01885" lon="6.96374">
        <ele>925.41</ele>
        <time>2022-10-05T08:16:31Z</time>
      </trkpt>
      <trkpt lat="48.01885" lon="6.96382">
        <ele>925.89</ele>
        <time>2022-10-05T08:16:51Z</time>
      </trkpt>
      <trkpt lat="48.01877" lon="6.96392">
        <ele>925.89</ele>
        <time>2022-10-05T08:17:10Z</time>
      </trkpt>
      <trkpt lat="48.01861" lon="6.9642">
        <ele>926.85</ele>
        <time>2022-10-05T08:17:29Z</time>
      </trkpt>
      <trkpt lat="48.01852" lon="6.96448">
        <ele>927.33</ele>
        <time>2022-10-05T08:17:50Z</time>
      </trkpt>
      <trkpt lat="48.01847" lon="6.96463">
        <ele>926.85</ele>
        <time>2022-10-05T08:17:55Z</time>
      </trkpt>
      <trkpt lat="48.01845" lon="6.96471">
        <ele>926.85</ele>
        <time>2022-10-05T08:17:58Z</time>
      </trkpt>
      <trkpt lat="48.01824" lon="6.96515">
        <ele>924.93</ele>
        <time>2022-10-05T08:18:17Z</time>
      </trkpt>
      <trkpt lat="48.01816" lon="6.96547">
        <ele>922.52</ele>
        <time>2022-10-05T08:18:35Z</time>
      </trkpt>
      <trkpt lat="48.0182" lon="6.96576">
        <ele>920.6</ele>
        <time>2022-10-05T08:18:50Z</time>
      </trkpt>
      <trkpt lat="48.01813" lon="6.96602">
        <ele>918.68</ele>
        <time>2022-10-05T08:19:07Z</time>
      </trkpt>
      <trkpt lat="48.01807" lon="6.96641">
        <ele>915.79</ele>
        <time>2022-10-05T08:19:27Z</time>
      </trkpt>
      <trkpt lat="48.01804" lon="6.96674">
        <ele>912.91</ele>
        <time>2022-10-05T08:19:48Z</time>
      </trkpt>
      <trkpt lat="48.018" lon="6.967">
        <ele>910.99</ele>
        <time>2022-10-05T08:20:10Z</time>
      </trkpt>
      <trkpt lat="48.01793" lon="6.96721">
        <ele>910.03</ele>
        <time>2022-10-05T08:20:23Z</time>
      </trkpt>
      <trkpt lat="48.01788" lon="6.96734">
        <ele>909.06</ele>
        <time>2022-10-05T08:20:33Z</time>
      </trkpt>
      <trkpt lat="48.0179" lon="6.96759">
        <ele>907.62</ele>
        <time>2022-10-05T08:20:52Z</time>
      </trkpt>
      <trkpt lat="48.01783" lon="6.96766">
        <ele>907.14</ele>
        <time>2022-10-05T08:20:57Z</time>
      </trkpt>
      <trkpt lat="48.01774" lon="6.96772">
        <ele>906.66</ele>
        <time>2022-10-05T08:21:02Z</time>
      </trkpt>
      <trkpt lat="48.01764" lon="6.9678">
        <ele>905.7</ele>
        <time>2022-10-05T08:21:08Z</time>
      </trkpt>
      <trkpt lat="48.0175" lon="6.96806">
        <ele>904.26</ele>
        <time>2022-10-05T08:21:25Z</time>
      </trkpt>
      <trkpt lat="48.01746" lon="6.96816">
        <ele>903.3</ele>
        <time>2022-10-05T08:21:34Z</time>
      </trkpt>
      <trkpt lat="48.01733" lon="6.96847">
        <ele>901.37</ele>
        <time>2022-10-05T08:21:54Z</time>
      </trkpt>
      <trkpt lat="48.01731" lon="6.96876">
        <ele>899.93</ele>
        <time>2022-10-05T08:22:10Z</time>
      </trkpt>
      <trkpt lat="48.01723" lon="6.96912">
        <ele>898.97</ele>
        <time>2022-10-05T08:22:30Z</time>
      </trkpt>
      <trkpt lat="48.01715" lon="6.96946">
        <ele>898.01</ele>
        <time>2022-10-05T08:22:49Z</time>
      </trkpt>
      <trkpt lat="48.01727" lon="6.96973">
        <ele>896.57</ele>
        <time>2022-10-05T08:23:06Z</time>
      </trkpt>
      <trkpt lat="48.01732" lon="6.96996">
        <ele>894.16</ele>
        <time>2022-10-05T08:23:24Z</time>
      </trkpt>
      <trkpt lat="48.01768" lon="6.97022">
        <ele>894.16</ele>
        <time>2022-10-05T08:23:44Z</time>
      </trkpt>
      <trkpt lat="48.01779" lon="6.97029">
        <ele>894.16</ele>
        <time>2022-10-05T08:23:50Z</time>
      </trkpt>
      <trkpt lat="48.01813" lon="6.97064">
        <ele>891.76</ele>
        <time>2022-10-05T08:24:13Z</time>
      </trkpt>
      <trkpt lat="48.01823" lon="6.97073">
        <ele>890.8</ele>
        <time>2022-10-05T08:24:20Z</time>
      </trkpt>
      <trkpt lat="48.01868" lon="6.97103">
        <ele>889.36</ele>
        <time>2022-10-05T08:24:43Z</time>
      </trkpt>
      <trkpt lat="48.01892" lon="6.97116">
        <ele>887.43</ele>
        <time>2022-10-05T08:25:02Z</time>
      </trkpt>
      <trkpt lat="48.01892" lon="6.97117">
        <ele>887.43</ele>
        <time>2022-10-05T08:25:04Z</time>
      </trkpt>
      <trkpt lat="48.01895" lon="6.97121">
        <ele>886.95</ele>
        <time>2022-10-05T08:25:08Z</time>
      </trkpt>
      <trkpt lat="48.01909" lon="6.97145">
        <ele>885.03</ele>
        <time>2022-10-05T08:25:26Z</time>
      </trkpt>
      <trkpt lat="48.01913" lon="6.97177">
        <ele>883.59</ele>
        <time>2022-10-05T08:25:47Z</time>
      </trkpt>
      <trkpt lat="48.01921" lon="6.97203">
        <ele>881.67</ele>
        <time>2022-10-05T08:26:08Z</time>
      </trkpt>
      <trkpt lat="48.01917" lon="6.97234">
        <ele>880.22</ele>
        <time>2022-10-05T08:26:27Z</time>
      </trkpt>
      <trkpt lat="48.01926" lon="6.97256">
        <ele>879.26</ele>
        <time>2022-10-05T08:26:40Z</time>
      </trkpt>
      <trkpt lat="48.01933" lon="6.97298">
        <ele>877.34</ele>
        <time>2022-10-05T08:27:05Z</time>
      </trkpt>
      <trkpt lat="48.0192" lon="6.97325">
        <ele>877.34</ele>
        <time>2022-10-05T08:27:22Z</time>
      </trkpt>
      <trkpt lat="48.01927" lon="6.97327">
        <ele>876.86</ele>
        <time>2022-10-05T08:27:37Z</time>
      </trkpt>
      <trkpt lat="48.01932" lon="6.97341">
        <ele>878.3</ele>
        <time>2022-10-05T08:28:07Z</time>
      </trkpt>
      <trkpt lat="48.01926" lon="6.97335">
        <ele>878.78</ele>
        <time>2022-10-05T08:28:09Z</time>
      </trkpt>
      <trkpt lat="48.01895" lon="6.97306">
        <ele>881.19</ele>
        <time>2022-10-05T08:28:29Z</time>
      </trkpt>
      <trkpt lat="48.01893" lon="6.9731">
        <ele>881.67</ele>
        <time>2022-10-05T08:28:37Z</time>
      </trkpt>
      <trkpt lat="48.01891" lon="6.97317">
        <ele>883.59</ele>
        <time>2022-10-05T08:28:40Z</time>
      </trkpt>
      <trkpt lat="48.01887" lon="6.97347">
        <ele>883.11</ele>
        <time>2022-10-05T08:29:01Z</time>
      </trkpt>
      <trkpt lat="48.01887" lon="6.97357">
        <ele>883.59</ele>
        <time>2022-10-05T08:29:09Z</time>
      </trkpt>
      <trkpt lat="48.01879" lon="6.97386">
        <ele>885.99</ele>
        <time>2022-10-05T08:29:29Z</time>
      </trkpt>
      <trkpt lat="48.01878" lon="6.97389">
        <ele>885.99</ele>
        <time>2022-10-05T08:29:31Z</time>
      </trkpt>
      <trkpt lat="48.01873" lon="6.97408">
        <ele>886.95</ele>
        <time>2022-10-05T08:29:39Z</time>
      </trkpt>
      <trkpt lat="48.01865" lon="6.9743">
        <ele>888.4</ele>
        <time>2022-10-05T08:29:59Z</time>
      </trkpt>
      <trkpt lat="48.01865" lon="6.97443">
        <ele>888.4</ele>
        <time>2022-10-05T08:30:04Z</time>
      </trkpt>
      <trkpt lat="48.01874" lon="6.97488">
        <ele>888.88</ele>
        <time>2022-10-05T08:30:20Z</time>
      </trkpt>
      <trkpt lat="48.01864" lon="6.9751">
        <ele>889.36</ele>
        <time>2022-10-05T08:30:39Z</time>
      </trkpt>
      <trkpt lat="48.01859" lon="6.97518">
        <ele>889.36</ele>
        <time>2022-10-05T08:30:45Z</time>
      </trkpt>
      <trkpt lat="48.01833" lon="6.97526">
        <ele>890.32</ele>
        <time>2022-10-05T08:31:07Z</time>
      </trkpt>
      <trkpt lat="48.01816" lon="6.97524">
        <ele>890.32</ele>
        <time>2022-10-05T08:31:28Z</time>
      </trkpt>
      <trkpt lat="48.01809" lon="6.97525">
        <ele>889.84</ele>
        <time>2022-10-05T08:31:44Z</time>
      </trkpt>
      <trkpt lat="48.01808" lon="6.97525">
        <ele>891.76</ele>
        <time>2022-10-05T08:31:50Z</time>
      </trkpt>
      <trkpt lat="48.01807" lon="6.97525">
        <ele>889.84</ele>
        <time>2022-10-05T08:31:51Z</time>
      </trkpt>
      <trkpt lat="48.01807" lon="6.97526">
        <ele>891.76</ele>
        <time>2022-10-05T08:31:52Z</time>
      </trkpt>
      <trkpt lat="48.01807" lon="6.97527">
        <ele>890.32</ele>
        <time>2022-10-05T08:31:53Z</time>
      </trkpt>
      <trkpt lat="48.01807" lon="6.97539">
        <ele>891.28</ele>
        <time>2022-10-05T08:32:05Z</time>
      </trkpt>
      <trkpt lat="48.018" lon="6.97569">
        <ele>890.32</ele>
        <time>2022-10-05T08:32:23Z</time>
      </trkpt>
      <trkpt lat="48.01796" lon="6.97572">
        <ele>889.84</ele>
        <time>2022-10-05T08:32:45Z</time>
      </trkpt>
      <trkpt lat="48.01798" lon="6.9757">
        <ele>890.32</ele>
        <time>2022-10-05T08:33:16Z</time>
      </trkpt>
      <trkpt lat="48.018" lon="6.97564">
        <ele>890.32</ele>
        <time>2022-10-05T08:33:25Z</time>
      </trkpt>
      <trkpt lat="48.01808" lon="6.97555">
        <ele>888.88</ele>
        <time>2022-10-05T08:33:34Z</time>
      </trkpt>
      <trkpt lat="48.01808" lon="6.97554">
        <ele>885.51</ele>
        <time>2022-10-05T08:33:35Z</time>
      </trkpt>
      <trkpt lat="48.01808" lon="6.97553">
        <ele>897.05</ele>
        <time>2022-10-05T08:33:36Z</time>
      </trkpt>
      <trkpt lat="48.01809" lon="6.97552">
        <ele>891.28</ele>
        <time>2022-10-05T08:33:37Z</time>
      </trkpt>
      <trkpt lat="48.01801" lon="6.97547">
        <ele>890.8</ele>
        <time>2022-10-05T08:33:50Z</time>
      </trkpt>
      <trkpt lat="48.01801" lon="6.97569">
        <ele>888.88</ele>
        <time>2022-10-05T08:34:08Z</time>
      </trkpt>
      <trkpt lat="48.01801" lon="6.97569">
        <ele>883.11</ele>
        <time>2022-10-05T08:34:09Z</time>
      </trkpt>
      <trkpt lat="48.01801" lon="6.97569">
        <ele>888.88</ele>
        <time>2022-10-05T08:34:10Z</time>
      </trkpt>
      <trkpt lat="48.01801" lon="6.97569">
        <ele>889.84</ele>
        <time>2022-10-05T08:34:11Z</time>
      </trkpt>
      <trkpt lat="48.018" lon="6.9757">
        <ele>891.28</ele>
        <time>2022-10-05T08:34:16Z</time>
      </trkpt>
      <trkpt lat="48.018" lon="6.97571">
        <ele>895.12</ele>
        <time>2022-10-05T08:34:17Z</time>
      </trkpt>
      <trkpt lat="48.01801" lon="6.97571">
        <ele>890.8</ele>
        <time>2022-10-05T08:34:18Z</time>
      </trkpt>
      <trkpt lat="48.01801" lon="6.97571">
        <ele>890.32</ele>
        <time>2022-10-05T08:34:20Z</time>
      </trkpt>
      <trkpt lat="48.01804" lon="6.97566">
        <ele>890.32</ele>
        <time>2022-10-05T08:34:23Z</time>
      </trkpt>
      <trkpt lat="48.01809" lon="6.97561">
        <ele>892.24</ele>
        <time>2022-10-05T08:34:44Z</time>
      </trkpt>
      <trkpt lat="48.01805" lon="6.97561">
        <ele>894.16</ele>
        <time>2022-10-05T08:34:50Z</time>
      </trkpt>
      <trkpt lat="48.01805" lon="6.9756">
        <ele>892.24</ele>
        <time>2022-10-05T08:34:51Z</time>
      </trkpt>
      <trkpt lat="48.01808" lon="6.9754">
        <ele>890.32</ele>
        <time>2022-10-05T08:35:08Z</time>
      </trkpt>
      <trkpt lat="48.01812" lon="6.97527">
        <ele>891.76</ele>
        <time>2022-10-05T08:35:31Z</time>
      </trkpt>
      <trkpt lat="48.018" lon="6.97501">
        <ele>890.8</ele>
        <time>2022-10-05T08:35:54Z</time>
      </trkpt>
      <trkpt lat="48.018" lon="6.97485">
        <ele>891.28</ele>
        <time>2022-10-05T08:36:15Z</time>
      </trkpt>
      <trkpt lat="48.01801" lon="6.97463">
        <ele>892.24</ele>
        <time>2022-10-05T08:36:34Z</time>
      </trkpt>
      <trkpt lat="48.01807" lon="6.97456">
        <ele>893.68</ele>
        <time>2022-10-05T08:36:51Z</time>
      </trkpt>
      <trkpt lat="48.018" lon="6.97448">
        <ele>893.2</ele>
        <time>2022-10-05T08:37:09Z</time>
      </trkpt>
      <trkpt lat="48.01783" lon="6.97451">
        <ele>893.2</ele>
        <time>2022-10-05T08:37:29Z</time>
      </trkpt>
      <trkpt lat="48.01773" lon="6.97466">
        <ele>894.16</ele>
        <time>2022-10-05T08:37:43Z</time>
      </trkpt>
      <trkpt lat="48.01771" lon="6.97488">
        <ele>892.72</ele>
        <time>2022-10-05T08:38:05Z</time>
      </trkpt>
      <trkpt lat="48.01724" lon="6.97481">
        <ele>891.28</ele>
        <time>2022-10-05T08:38:20Z</time>
      </trkpt>
      <trkpt lat="48.01719" lon="6.97483">
        <ele>891.76</ele>
        <time>2022-10-05T08:38:25Z</time>
      </trkpt>
      <trkpt lat="48.01718" lon="6.97485">
        <ele>891.76</ele>
        <time>2022-10-05T08:38:28Z</time>
      </trkpt>
      <trkpt lat="48.0172" lon="6.97498">
        <ele>891.76</ele>
        <time>2022-10-05T08:38:52Z</time>
      </trkpt>
      <trkpt lat="48.01759" lon="6.97523">
        <ele>890.32</ele>
        <time>2022-10-05T08:39:11Z</time>
      </trkpt>
      <trkpt lat="48.01763" lon="6.97531">
        <ele>889.36</ele>
        <time>2022-10-05T08:39:24Z</time>
      </trkpt>
      <trkpt lat="48.01758" lon="6.97531">
        <ele>889.36</ele>
        <time>2022-10-05T08:39:30Z</time>
      </trkpt>
      <trkpt lat="48.01753" lon="6.97537">
        <ele>892.24</ele>
        <time>2022-10-05T08:39:34Z</time>
      </trkpt>
      <trkpt lat="48.01748" lon="6.97545">
        <ele>888.88</ele>
        <time>2022-10-05T08:39:37Z</time>
      </trkpt>
      <trkpt lat="48.01746" lon="6.97549">
        <ele>890.8</ele>
        <time>2022-10-05T08:39:38Z</time>
      </trkpt>
      <trkpt lat="48.01753" lon="6.9756">
        <ele>889.84</ele>
        <time>2022-10-05T08:39:50Z</time>
      </trkpt>
      <trkpt lat="48.0175" lon="6.9753">
        <ele>890.8</ele>
        <time>2022-10-05T08:40:10Z</time>
      </trkpt>
      <trkpt lat="48.01746" lon="6.97524">
        <ele>891.28</ele>
        <time>2022-10-05T08:40:38Z</time>
      </trkpt>
      <trkpt lat="48.01746" lon="6.97521">
        <ele>892.72</ele>
        <time>2022-10-05T08:41:02Z</time>
      </trkpt>
      <trkpt lat="48.01747" lon="6.97516">
        <ele>894.64</ele>
        <time>2022-10-05T08:41:29Z</time>
      </trkpt>
      <trkpt lat="48.01749" lon="6.97514">
        <ele>896.09</ele>
        <time>2022-10-05T08:41:57Z</time>
      </trkpt>
      <trkpt lat="48.01758" lon="6.97504">
        <ele>897.05</ele>
        <time>2022-10-05T08:42:17Z</time>
      </trkpt>
      <trkpt lat="48.0176" lon="6.97505">
        <ele>897.05</ele>
        <time>2022-10-05T08:42:35Z</time>
      </trkpt>
      <trkpt lat="48.01763" lon="6.97493">
        <ele>900.41</ele>
        <time>2022-10-05T08:42:51Z</time>
      </trkpt>
      <trkpt lat="48.01765" lon="6.97467">
        <ele>902.82</ele>
        <time>2022-10-05T08:43:08Z</time>
      </trkpt>
      <trkpt lat="48.01768" lon="6.97458">
        <ele>903.78</ele>
        <time>2022-10-05T08:43:19Z</time>
      </trkpt>
      <trkpt lat="48.01747" lon="6.97455">
        <ele>905.22</ele>
        <time>2022-10-05T08:43:38Z</time>
      </trkpt>
      <trkpt lat="48.01724" lon="6.97461">
        <ele>907.62</ele>
        <time>2022-10-05T08:43:59Z</time>
      </trkpt>
      <trkpt lat="48.01701" lon="6.97462">
        <ele>909.54</ele>
        <time>2022-10-05T08:44:21Z</time>
      </trkpt>
      <trkpt lat="48.01666" lon="6.97488">
        <ele>911.47</ele>
        <time>2022-10-05T08:44:37Z</time>
      </trkpt>
      <trkpt lat="48.0166" lon="6.97491">
        <ele>911.47</ele>
        <time>2022-10-05T08:44:39Z</time>
      </trkpt>
      <trkpt lat="48.01635" lon="6.97542">
        <ele>914.35</ele>
        <time>2022-10-05T08:44:54Z</time>
      </trkpt>
      <trkpt lat="48.01623" lon="6.97569">
        <ele>914.35</ele>
        <time>2022-10-05T08:45:11Z</time>
      </trkpt>
      <trkpt lat="48.01615" lon="6.97588">
        <ele>915.79</ele>
        <time>2022-10-05T08:45:26Z</time>
      </trkpt>
      <trkpt lat="48.01607" lon="6.97593">
        <ele>917.72</ele>
        <time>2022-10-05T08:45:48Z</time>
      </trkpt>
      <trkpt lat="48.01607" lon="6.97593">
        <ele>910.51</ele>
        <time>2022-10-05T08:45:51Z</time>
      </trkpt>
      <trkpt lat="48.01607" lon="6.97594">
        <ele>918.2</ele>
        <time>2022-10-05T08:45:52Z</time>
      </trkpt>
      <trkpt lat="48.01609" lon="6.97596">
        <ele>918.2</ele>
        <time>2022-10-05T08:45:53Z</time>
      </trkpt>
      <trkpt lat="48.01616" lon="6.97605">
        <ele>923.96</ele>
        <time>2022-10-05T08:46:11Z</time>
      </trkpt>
      <trkpt lat="48.01616" lon="6.97606">
        <ele>920.12</ele>
        <time>2022-10-05T08:46:12Z</time>
      </trkpt>
      <trkpt lat="48.01618" lon="6.97616">
        <ele>920.6</ele>
        <time>2022-10-05T08:46:30Z</time>
      </trkpt>
      <trkpt lat="48.01615" lon="6.97617">
        <ele>921.08</ele>
        <time>2022-10-05T08:46:35Z</time>
      </trkpt>
      <trkpt lat="48.01598" lon="6.97607">
        <ele>922.04</ele>
        <time>2022-10-05T08:46:54Z</time>
      </trkpt>
      <trkpt lat="48.0158" lon="6.97641">
        <ele>924.45</ele>
        <time>2022-10-05T08:47:15Z</time>
      </trkpt>
      <trkpt lat="48.01571" lon="6.97667">
        <ele>926.37</ele>
        <time>2022-10-05T08:47:31Z</time>
      </trkpt>
      <trkpt lat="48.0154" lon="6.97713">
        <ele>927.81</ele>
        <time>2022-10-05T08:47:54Z</time>
      </trkpt>
      <trkpt lat="48.01537" lon="6.97734">
        <ele>929.73</ele>
        <time>2022-10-05T08:48:14Z</time>
      </trkpt>
      <trkpt lat="48.0154" lon="6.97745">
        <ele>930.21</ele>
        <time>2022-10-05T08:48:20Z</time>
      </trkpt>
      <trkpt lat="48.01566" lon="6.97796">
        <ele>931.17</ele>
        <time>2022-10-05T08:48:44Z</time>
      </trkpt>
      <trkpt lat="48.01585" lon="6.97833">
        <ele>930.69</ele>
        <time>2022-10-05T08:49:04Z</time>
      </trkpt>
      <trkpt lat="48.01597" lon="6.97869">
        <ele>929.25</ele>
        <time>2022-10-05T08:49:25Z</time>
      </trkpt>
      <trkpt lat="48.01595" lon="6.979">
        <ele>928.29</ele>
        <time>2022-10-05T08:49:46Z</time>
      </trkpt>
      <trkpt lat="48.01605" lon="6.97923">
        <ele>926.37</ele>
        <time>2022-10-05T08:50:02Z</time>
      </trkpt>
      <trkpt lat="48.01618" lon="6.97936">
        <ele>925.41</ele>
        <time>2022-10-05T08:50:17Z</time>
      </trkpt>
      <trkpt lat="48.01623" lon="6.97938">
        <ele>925.41</ele>
        <time>2022-10-05T08:50:23Z</time>
      </trkpt>
      <trkpt lat="48.01639" lon="6.97944">
        <ele>925.89</ele>
        <time>2022-10-05T08:50:40Z</time>
      </trkpt>
      <trkpt lat="48.01665" lon="6.97952">
        <ele>925.41</ele>
        <time>2022-10-05T08:51:00Z</time>
      </trkpt>
      <trkpt lat="48.01675" lon="6.97963">
        <ele>925.89</ele>
        <time>2022-10-05T08:51:20Z</time>
      </trkpt>
      <trkpt lat="48.01684" lon="6.97967">
        <ele>926.85</ele>
        <time>2022-10-05T08:51:39Z</time>
      </trkpt>
      <trkpt lat="48.01688" lon="6.97968">
        <ele>926.85</ele>
        <time>2022-10-05T08:51:42Z</time>
      </trkpt>
      <trkpt lat="48.01694" lon="6.97968">
        <ele>926.85</ele>
        <time>2022-10-05T08:51:47Z</time>
      </trkpt>
      <trkpt lat="48.01718" lon="6.97975">
        <ele>926.37</ele>
        <time>2022-10-05T08:52:04Z</time>
      </trkpt>
      <trkpt lat="48.01737" lon="6.97966">
        <ele>926.37</ele>
        <time>2022-10-05T08:52:21Z</time>
      </trkpt>
      <trkpt lat="48.01744" lon="6.97964">
        <ele>926.37</ele>
        <time>2022-10-05T08:52:26Z</time>
      </trkpt>
      <trkpt lat="48.0176" lon="6.97939">
        <ele>926.85</ele>
        <time>2022-10-05T08:52:46Z</time>
      </trkpt>
      <trkpt lat="48.01764" lon="6.97939">
        <ele>924.45</ele>
        <time>2022-10-05T08:52:51Z</time>
      </trkpt>
      <trkpt lat="48.01764" lon="6.97939">
        <ele>926.37</ele>
        <time>2022-10-05T08:52:53Z</time>
      </trkpt>
      <trkpt lat="48.01765" lon="6.97938">
        <ele>929.73</ele>
        <time>2022-10-05T08:52:54Z</time>
      </trkpt>
      <trkpt lat="48.01765" lon="6.97937">
        <ele>926.85</ele>
        <time>2022-10-05T08:52:55Z</time>
      </trkpt>
      <trkpt lat="48.01767" lon="6.97934">
        <ele>927.81</ele>
        <time>2022-10-05T08:52:58Z</time>
      </trkpt>
      <trkpt lat="48.0178" lon="6.97903">
        <ele>928.29</ele>
        <time>2022-10-05T08:53:21Z</time>
      </trkpt>
      <trkpt lat="48.01789" lon="6.97866">
        <ele>929.25</ele>
        <time>2022-10-05T08:53:42Z</time>
      </trkpt>
      <trkpt lat="48.01787" lon="6.97845">
        <ele>929.73</ele>
        <time>2022-10-05T08:53:59Z</time>
      </trkpt>
      <trkpt lat="48.01788" lon="6.97842">
        <ele>927.33</ele>
        <time>2022-10-05T08:54:15Z</time>
      </trkpt>
      <trkpt lat="48.01789" lon="6.97842">
        <ele>933.1</ele>
        <time>2022-10-05T08:54:16Z</time>
      </trkpt>
      <trkpt lat="48.01795" lon="6.97833">
        <ele>931.17</ele>
        <time>2022-10-05T08:54:43Z</time>
      </trkpt>
      <trkpt lat="48.01794" lon="6.97832">
        <ele>932.14</ele>
        <time>2022-10-05T08:55:05Z</time>
      </trkpt>
      <trkpt lat="48.01794" lon="6.97831">
        <ele>932.62</ele>
        <time>2022-10-05T08:55:25Z</time>
      </trkpt>
      <trkpt lat="48.01794" lon="6.97831">
        <ele>934.54</ele>
        <time>2022-10-05T08:55:47Z</time>
      </trkpt>
      <trkpt lat="48.01794" lon="6.97832">
        <ele>934.06</ele>
        <time>2022-10-05T08:56:09Z</time>
      </trkpt>
      <trkpt lat="48.01795" lon="6.97832">
        <ele>934.54</ele>
        <time>2022-10-05T08:56:40Z</time>
      </trkpt>
      <trkpt lat="48.01795" lon="6.97832">
        <ele>935.98</ele>
        <time>2022-10-05T08:57:09Z</time>
      </trkpt>
      <trkpt lat="48.01794" lon="6.97831">
        <ele>937.42</ele>
        <time>2022-10-05T08:57:28Z</time>
      </trkpt>
      <trkpt lat="48.01795" lon="6.97832">
        <ele>936.94</ele>
        <time>2022-10-05T08:57:58Z</time>
      </trkpt>
      <trkpt lat="48.01795" lon="6.97832">
        <ele>937.42</ele>
        <time>2022-10-05T08:58:25Z</time>
      </trkpt>
      <trkpt lat="48.01795" lon="6.97832">
        <ele>939.35</ele>
        <time>2022-10-05T08:58:56Z</time>
      </trkpt>
      <trkpt lat="48.01795" lon="6.97832">
        <ele>939.35</ele>
        <time>2022-10-05T08:59:22Z</time>
      </trkpt>
      <trkpt lat="48.01795" lon="6.97832">
        <ele>940.79</ele>
        <time>2022-10-05T08:59:54Z</time>
      </trkpt>
      <trkpt lat="48.01796" lon="6.97832">
        <ele>941.27</ele>
        <time>2022-10-05T09:00:28Z</time>
      </trkpt>
      <trkpt lat="48.01796" lon="6.97832">
        <ele>941.27</ele>
        <time>2022-10-05T09:00:55Z</time>
      </trkpt>
      <trkpt lat="48.01797" lon="6.97832">
        <ele>941.75</ele>
        <time>2022-10-05T09:01:21Z</time>
      </trkpt>
      <trkpt lat="48.01797" lon="6.97831">
        <ele>942.23</ele>
        <time>2022-10-05T09:01:55Z</time>
      </trkpt>
      <trkpt lat="48.01798" lon="6.97831">
        <ele>943.67</ele>
        <time>2022-10-05T09:02:30Z</time>
      </trkpt>
      <trkpt lat="48.01797" lon="6.97831">
        <ele>944.15</ele>
        <time>2022-10-05T09:03:06Z</time>
      </trkpt>
      <trkpt lat="48.01796" lon="6.97831">
        <ele>944.63</ele>
        <time>2022-10-05T09:03:46Z</time>
      </trkpt>
      <trkpt lat="48.01796" lon="6.97831">
        <ele>946.07</ele>
        <time>2022-10-05T09:04:17Z</time>
      </trkpt>
      <trkpt lat="48.01795" lon="6.97831">
        <ele>947.04</ele>
        <time>2022-10-05T09:04:52Z</time>
      </trkpt>
      <trkpt lat="48.01795" lon="6.97831">
        <ele>948</ele>
        <time>2022-10-05T09:05:31Z</time>
      </trkpt>
      <trkpt lat="48.01795" lon="6.97831">
        <ele>948.96</ele>
        <time>2022-10-05T09:06:05Z</time>
      </trkpt>
      <trkpt lat="48.01795" lon="6.97831">
        <ele>950.4</ele>
        <time>2022-10-05T09:06:40Z</time>
      </trkpt>
      <trkpt lat="48.01796" lon="6.97831">
        <ele>950.88</ele>
        <time>2022-10-05T09:07:05Z</time>
      </trkpt>
      <trkpt lat="48.01796" lon="6.9783">
        <ele>949.44</ele>
        <time>2022-10-05T09:07:14Z</time>
      </trkpt>
      <trkpt lat="48.01798" lon="6.9783">
        <ele>951.36</ele>
        <time>2022-10-05T09:07:17Z</time>
      </trkpt>
      <trkpt lat="48.018" lon="6.97829">
        <ele>950.4</ele>
        <time>2022-10-05T09:07:20Z</time>
      </trkpt>
      <trkpt lat="48.01804" lon="6.97828">
        <ele>951.36</ele>
        <time>2022-10-05T09:07:25Z</time>
      </trkpt>
      <trkpt lat="48.0181" lon="6.97826">
        <ele>952.32</ele>
        <time>2022-10-05T09:07:30Z</time>
      </trkpt>
      <trkpt lat="48.01816" lon="6.9783">
        <ele>952.8</ele>
        <time>2022-10-05T09:07:38Z</time>
      </trkpt>
      <trkpt lat="48.0183" lon="6.97838">
        <ele>954.73</ele>
        <time>2022-10-05T09:07:52Z</time>
      </trkpt>
      <trkpt lat="48.01839" lon="6.97844">
        <ele>956.17</ele>
        <time>2022-10-05T09:08:06Z</time>
      </trkpt>
      <trkpt lat="48.0185" lon="6.97856">
        <ele>958.57</ele>
        <time>2022-10-05T09:08:21Z</time>
      </trkpt>
      <trkpt lat="48.0186" lon="6.97867">
        <ele>960.49</ele>
        <time>2022-10-05T09:08:37Z</time>
      </trkpt>
      <trkpt lat="48.01861" lon="6.97868">
        <ele>960.49</ele>
        <time>2022-10-05T09:08:39Z</time>
      </trkpt>
      <trkpt lat="48.01871" lon="6.97879">
        <ele>963.38</ele>
        <time>2022-10-05T09:08:54Z</time>
      </trkpt>
      <trkpt lat="48.01881" lon="6.97889">
        <ele>965.3</ele>
        <time>2022-10-05T09:09:08Z</time>
      </trkpt>
      <trkpt lat="48.01885" lon="6.97896">
        <ele>965.78</ele>
        <time>2022-10-05T09:09:13Z</time>
      </trkpt>
      <trkpt lat="48.01891" lon="6.97902">
        <ele>966.74</ele>
        <time>2022-10-05T09:09:20Z</time>
      </trkpt>
      <trkpt lat="48.01902" lon="6.97911">
        <ele>969.63</ele>
        <time>2022-10-05T09:09:34Z</time>
      </trkpt>
      <trkpt lat="48.01908" lon="6.97919">
        <ele>971.07</ele>
        <time>2022-10-05T09:09:43Z</time>
      </trkpt>
      <trkpt lat="48.01916" lon="6.97932">
        <ele>973.95</ele>
        <time>2022-10-05T09:09:57Z</time>
      </trkpt>
      <trkpt lat="48.01918" lon="6.97937">
        <ele>974.91</ele>
        <time>2022-10-05T09:10:02Z</time>
      </trkpt>
      <trkpt lat="48.0193" lon="6.97945">
        <ele>976.84</ele>
        <time>2022-10-05T09:10:15Z</time>
      </trkpt>
      <trkpt lat="48.01936" lon="6.97955">
        <ele>980.2</ele>
        <time>2022-10-05T09:10:28Z</time>
      </trkpt>
      <trkpt lat="48.01942" lon="6.97966">
        <ele>982.6</ele>
        <time>2022-10-05T09:10:42Z</time>
      </trkpt>
      <trkpt lat="48.01945" lon="6.97972">
        <ele>983.57</ele>
        <time>2022-10-05T09:10:57Z</time>
      </trkpt>
      <trkpt lat="48.01946" lon="6.97975">
        <ele>986.93</ele>
        <time>2022-10-05T09:11:06Z</time>
      </trkpt>
      <trkpt lat="48.01947" lon="6.97976">
        <ele>985.97</ele>
        <time>2022-10-05T09:11:07Z</time>
      </trkpt>
      <trkpt lat="48.01951" lon="6.97984">
        <ele>987.41</ele>
        <time>2022-10-05T09:11:21Z</time>
      </trkpt>
      <trkpt lat="48.01956" lon="6.97998">
        <ele>989.33</ele>
        <time>2022-10-05T09:11:36Z</time>
      </trkpt>
      <trkpt lat="48.01961" lon="6.98011">
        <ele>992.22</ele>
        <time>2022-10-05T09:11:49Z</time>
      </trkpt>
      <trkpt lat="48.01968" lon="6.9802">
        <ele>994.62</ele>
        <time>2022-10-05T09:12:01Z</time>
      </trkpt>
      <trkpt lat="48.01974" lon="6.98027">
        <ele>996.54</ele>
        <time>2022-10-05T09:12:13Z</time>
      </trkpt>
      <trkpt lat="48.01979" lon="6.98035">
        <ele>999.91</ele>
        <time>2022-10-05T09:12:27Z</time>
      </trkpt>
      <trkpt lat="48.01983" lon="6.98035">
        <ele>1001.35</ele>
        <time>2022-10-05T09:12:37Z</time>
      </trkpt>
      <trkpt lat="48.0199" lon="6.98035">
        <ele>1004.23</ele>
        <time>2022-10-05T09:12:49Z</time>
      </trkpt>
      <trkpt lat="48.01992" lon="6.98027">
        <ele>1005.68</ele>
        <time>2022-10-05T09:12:55Z</time>
      </trkpt>
      <trkpt lat="48.01995" lon="6.98022">
        <ele>1006.16</ele>
        <time>2022-10-05T09:13:05Z</time>
      </trkpt>
      <trkpt lat="48.01997" lon="6.98014">
        <ele>1005.68</ele>
        <time>2022-10-05T09:13:13Z</time>
      </trkpt>
      <trkpt lat="48.01998" lon="6.97996">
        <ele>1004.23</ele>
        <time>2022-10-05T09:13:26Z</time>
      </trkpt>
      <trkpt lat="48.01997" lon="6.97979">
        <ele>1003.27</ele>
        <time>2022-10-05T09:13:40Z</time>
      </trkpt>
      <trkpt lat="48.01997" lon="6.97954">
        <ele>1000.87</ele>
        <time>2022-10-05T09:13:54Z</time>
      </trkpt>
      <trkpt lat="48.02" lon="6.97951">
        <ele>1003.27</ele>
        <time>2022-10-05T09:14:11Z</time>
      </trkpt>
      <trkpt lat="48.02" lon="6.97952">
        <ele>1004.23</ele>
        <time>2022-10-05T09:14:41Z</time>
      </trkpt>
      <trkpt lat="48.02001" lon="6.97949">
        <ele>1004.72</ele>
        <time>2022-10-05T09:15:09Z</time>
      </trkpt>
      <trkpt lat="48.02002" lon="6.97939">
        <ele>1003.27</ele>
        <time>2022-10-05T09:15:21Z</time>
      </trkpt>
      <trkpt lat="48.02004" lon="6.9793">
        <ele>1003.27</ele>
        <time>2022-10-05T09:15:34Z</time>
      </trkpt>
      <trkpt lat="48.02002" lon="6.97925">
        <ele>1002.79</ele>
        <time>2022-10-05T09:15:51Z</time>
      </trkpt>
      <trkpt lat="48.02007" lon="6.97905">
        <ele>1003.27</ele>
        <time>2022-10-05T09:16:08Z</time>
      </trkpt>
      <trkpt lat="48.02009" lon="6.97904">
        <ele>1003.75</ele>
        <time>2022-10-05T09:16:33Z</time>
      </trkpt>
      <trkpt lat="48.0201" lon="6.97905">
        <ele>1004.72</ele>
        <time>2022-10-05T09:17:04Z</time>
      </trkpt>
      <trkpt lat="48.0201" lon="6.97905">
        <ele>1004.72</ele>
        <time>2022-10-05T09:17:29Z</time>
      </trkpt>
      <trkpt lat="48.02009" lon="6.97899">
        <ele>1004.23</ele>
        <time>2022-10-05T09:17:41Z</time>
      </trkpt>
      <trkpt lat="48.02007" lon="6.97884">
        <ele>1003.27</ele>
        <time>2022-10-05T09:17:54Z</time>
      </trkpt>
      <trkpt lat="48.02007" lon="6.97881">
        <ele>1002.79</ele>
        <time>2022-10-05T09:17:56Z</time>
      </trkpt>
      <trkpt lat="48.02003" lon="6.97864">
        <ele>1001.35</ele>
        <time>2022-10-05T09:18:09Z</time>
      </trkpt>
      <trkpt lat="48.01998" lon="6.97844">
        <ele>1000.39</ele>
        <time>2022-10-05T09:18:19Z</time>
      </trkpt>
      <trkpt lat="48.01995" lon="6.97837">
        <ele>999.91</ele>
        <time>2022-10-05T09:18:22Z</time>
      </trkpt>
      <trkpt lat="48.01994" lon="6.97822">
        <ele>998.47</ele>
        <time>2022-10-05T09:18:31Z</time>
      </trkpt>
      <trkpt lat="48.0199" lon="6.97794">
        <ele>997.02</ele>
        <time>2022-10-05T09:18:47Z</time>
      </trkpt>
      <trkpt lat="48.01988" lon="6.97773">
        <ele>995.58</ele>
        <time>2022-10-05T09:18:58Z</time>
      </trkpt>
      <trkpt lat="48.01988" lon="6.97766">
        <ele>995.1</ele>
        <time>2022-10-05T09:19:01Z</time>
      </trkpt>
      <trkpt lat="48.01988" lon="6.97754">
        <ele>995.1</ele>
        <time>2022-10-05T09:19:05Z</time>
      </trkpt>
      <trkpt lat="48.01987" lon="6.97744">
        <ele>994.62</ele>
        <time>2022-10-05T09:19:09Z</time>
      </trkpt>
      <trkpt lat="48.01986" lon="6.9773">
        <ele>993.18</ele>
        <time>2022-10-05T09:19:18Z</time>
      </trkpt>
      <trkpt lat="48.01986" lon="6.97713">
        <ele>991.26</ele>
        <time>2022-10-05T09:19:27Z</time>
      </trkpt>
      <trkpt lat="48.01987" lon="6.97688">
        <ele>989.81</ele>
        <time>2022-10-05T09:19:43Z</time>
      </trkpt>
      <trkpt lat="48.01989" lon="6.97677">
        <ele>989.81</ele>
        <time>2022-10-05T09:19:47Z</time>
      </trkpt>
      <trkpt lat="48.01992" lon="6.97655">
        <ele>992.22</ele>
        <time>2022-10-05T09:20:00Z</time>
      </trkpt>
      <trkpt lat="48.01997" lon="6.9763">
        <ele>994.62</ele>
        <time>2022-10-05T09:20:15Z</time>
      </trkpt>
      <trkpt lat="48.01999" lon="6.97618">
        <ele>996.06</ele>
        <time>2022-10-05T09:20:24Z</time>
      </trkpt>
      <trkpt lat="48.02008" lon="6.97593">
        <ele>997.99</ele>
        <time>2022-10-05T09:20:40Z</time>
      </trkpt>
      <trkpt lat="48.02017" lon="6.97571">
        <ele>1000.39</ele>
        <time>2022-10-05T09:20:55Z</time>
      </trkpt>
      <trkpt lat="48.02026" lon="6.97554">
        <ele>1002.31</ele>
        <time>2022-10-05T09:21:07Z</time>
      </trkpt>
      <trkpt lat="48.02028" lon="6.9755">
        <ele>1002.79</ele>
        <time>2022-10-05T09:21:10Z</time>
      </trkpt>
      <trkpt lat="48.02036" lon="6.97531">
        <ele>1005.2</ele>
        <time>2022-10-05T09:21:26Z</time>
      </trkpt>
      <trkpt lat="48.02043" lon="6.97509">
        <ele>1006.64</ele>
        <time>2022-10-05T09:21:38Z</time>
      </trkpt>
      <trkpt lat="48.02046" lon="6.97484">
        <ele>1008.08</ele>
        <time>2022-10-05T09:21:51Z</time>
      </trkpt>
      <trkpt lat="48.02047" lon="6.97477">
        <ele>1008.56</ele>
        <time>2022-10-05T09:21:56Z</time>
      </trkpt>
      <trkpt lat="48.02053" lon="6.97459">
        <ele>1010</ele>
        <time>2022-10-05T09:22:09Z</time>
      </trkpt>
      <trkpt lat="48.02055" lon="6.97444">
        <ele>1010.48</ele>
        <time>2022-10-05T09:22:20Z</time>
      </trkpt>
      <trkpt lat="48.02062" lon="6.97423">
        <ele>1013.37</ele>
        <time>2022-10-05T09:22:35Z</time>
      </trkpt>
      <trkpt lat="48.02065" lon="6.97394">
        <ele>1015.77</ele>
        <time>2022-10-05T09:22:53Z</time>
      </trkpt>
      <trkpt lat="48.0207" lon="6.97373">
        <ele>1017.69</ele>
        <time>2022-10-05T09:23:08Z</time>
      </trkpt>
      <trkpt lat="48.02076" lon="6.97352">
        <ele>1019.13</ele>
        <time>2022-10-05T09:23:23Z</time>
      </trkpt>
      <trkpt lat="48.02082" lon="6.97337">
        <ele>1020.1</ele>
        <time>2022-10-05T09:23:36Z</time>
      </trkpt>
      <trkpt lat="48.02087" lon="6.97321">
        <ele>1022.5</ele>
        <time>2022-10-05T09:23:48Z</time>
      </trkpt>
      <trkpt lat="48.02091" lon="6.97302">
        <ele>1024.9</ele>
        <time>2022-10-05T09:24:01Z</time>
      </trkpt>
      <trkpt lat="48.02097" lon="6.97284">
        <ele>1027.31</ele>
        <time>2022-10-05T09:24:13Z</time>
      </trkpt>
      <trkpt lat="48.02103" lon="6.97265">
        <ele>1027.79</ele>
        <time>2022-10-05T09:24:26Z</time>
      </trkpt>
      <trkpt lat="48.02109" lon="6.97245">
        <ele>1030.67</ele>
        <time>2022-10-05T09:24:39Z</time>
      </trkpt>
      <trkpt lat="48.02112" lon="6.97233">
        <ele>1029.71</ele>
        <time>2022-10-05T09:24:45Z</time>
      </trkpt>
      <trkpt lat="48.02118" lon="6.97216">
        <ele>1031.15</ele>
        <time>2022-10-05T09:24:56Z</time>
      </trkpt>
      <trkpt lat="48.02118" lon="6.97214">
        <ele>1031.63</ele>
        <time>2022-10-05T09:24:58Z</time>
      </trkpt>
      <trkpt lat="48.0212" lon="6.97201">
        <ele>1033.07</ele>
        <time>2022-10-05T09:25:09Z</time>
      </trkpt>
      <trkpt lat="48.02126" lon="6.97185">
        <ele>1034.52</ele>
        <time>2022-10-05T09:25:21Z</time>
      </trkpt>
      <trkpt lat="48.02133" lon="6.97167">
        <ele>1036.44</ele>
        <time>2022-10-05T09:25:33Z</time>
      </trkpt>
      <trkpt lat="48.02135" lon="6.97164">
        <ele>1036.44</ele>
        <time>2022-10-05T09:25:36Z</time>
      </trkpt>
      <trkpt lat="48.02144" lon="6.97142">
        <ele>1038.36</ele>
        <time>2022-10-05T09:25:52Z</time>
      </trkpt>
      <trkpt lat="48.02154" lon="6.97116">
        <ele>1040.28</ele>
        <time>2022-10-05T09:26:07Z</time>
      </trkpt>
      <trkpt lat="48.02155" lon="6.97115">
        <ele>1040.28</ele>
        <time>2022-10-05T09:26:08Z</time>
      </trkpt>
      <trkpt lat="48.02159" lon="6.97107">
        <ele>1040.76</ele>
        <time>2022-10-05T09:26:14Z</time>
      </trkpt>
      <trkpt lat="48.02168" lon="6.97095">
        <ele>1041.25</ele>
        <time>2022-10-05T09:26:27Z</time>
      </trkpt>
      <trkpt lat="48.02169" lon="6.97095">
        <ele>1041.73</ele>
        <time>2022-10-05T09:26:28Z</time>
      </trkpt>
      <trkpt lat="48.02175" lon="6.97084">
        <ele>1044.13</ele>
        <time>2022-10-05T09:26:38Z</time>
      </trkpt>
      <trkpt lat="48.02181" lon="6.97079">
        <ele>1044.61</ele>
        <time>2022-10-05T09:26:44Z</time>
      </trkpt>
      <trkpt lat="48.02189" lon="6.97061">
        <ele>1046.53</ele>
        <time>2022-10-05T09:26:59Z</time>
      </trkpt>
      <trkpt lat="48.02199" lon="6.97043">
        <ele>1048.94</ele>
        <time>2022-10-05T09:27:13Z</time>
      </trkpt>
      <trkpt lat="48.02202" lon="6.9704">
        <ele>1049.42</ele>
        <time>2022-10-05T09:27:16Z</time>
      </trkpt>
      <trkpt lat="48.02212" lon="6.97024">
        <ele>1051.34</ele>
        <time>2022-10-05T09:27:25Z</time>
      </trkpt>
      <trkpt lat="48.02219" lon="6.97021">
        <ele>1051.82</ele>
        <time>2022-10-05T09:27:30Z</time>
      </trkpt>
      <trkpt lat="48.02224" lon="6.97018">
        <ele>1052.78</ele>
        <time>2022-10-05T09:27:34Z</time>
      </trkpt>
      <trkpt lat="48.02226" lon="6.97017">
        <ele>1053.74</ele>
        <time>2022-10-05T09:27:36Z</time>
      </trkpt>
      <trkpt lat="48.02234" lon="6.97016">
        <ele>1054.22</ele>
        <time>2022-10-05T09:27:42Z</time>
      </trkpt>
      <trkpt lat="48.02253" lon="6.97024">
        <ele>1056.63</ele>
        <time>2022-10-05T09:27:58Z</time>
      </trkpt>
      <trkpt lat="48.02254" lon="6.97024">
        <ele>1056.63</ele>
        <time>2022-10-05T09:28:04Z</time>
      </trkpt>
      <trkpt lat="48.0226" lon="6.97026">
        <ele>1056.63</ele>
        <time>2022-10-05T09:28:09Z</time>
      </trkpt>
      <trkpt lat="48.02278" lon="6.97036">
        <ele>1059.03</ele>
        <time>2022-10-05T09:28:23Z</time>
      </trkpt>
      <trkpt lat="48.02293" lon="6.9705">
        <ele>1060.95</ele>
        <time>2022-10-05T09:28:39Z</time>
      </trkpt>
      <trkpt lat="48.02295" lon="6.97053">
        <ele>1061.43</ele>
        <time>2022-10-05T09:28:42Z</time>
      </trkpt>
      <trkpt lat="48.02306" lon="6.97059">
        <ele>1062.87</ele>
        <time>2022-10-05T09:28:56Z</time>
      </trkpt>
      <trkpt lat="48.02313" lon="6.9706">
        <ele>1063.36</ele>
        <time>2022-10-05T09:29:02Z</time>
      </trkpt>
      <trkpt lat="48.02325" lon="6.97062">
        <ele>1064.8</ele>
        <time>2022-10-05T09:29:16Z</time>
      </trkpt>
      <trkpt lat="48.02335" lon="6.9706">
        <ele>1066.72</ele>
        <time>2022-10-05T09:29:28Z</time>
      </trkpt>
      <trkpt lat="48.02345" lon="6.97049">
        <ele>1068.16</ele>
        <time>2022-10-05T09:29:43Z</time>
      </trkpt>
      <trkpt lat="48.02351" lon="6.97032">
        <ele>1069.6</ele>
        <time>2022-10-05T09:29:56Z</time>
      </trkpt>
      <trkpt lat="48.02363" lon="6.9702">
        <ele>1071.53</ele>
        <time>2022-10-05T09:30:08Z</time>
      </trkpt>
      <trkpt lat="48.02373" lon="6.97009">
        <ele>1073.45</ele>
        <time>2022-10-05T09:30:22Z</time>
      </trkpt>
      <trkpt lat="48.0239" lon="6.96996">
        <ele>1074.89</ele>
        <time>2022-10-05T09:30:37Z</time>
      </trkpt>
      <trkpt lat="48.02391" lon="6.96995">
        <ele>1075.37</ele>
        <time>2022-10-05T09:30:38Z</time>
      </trkpt>
      <trkpt lat="48.02407" lon="6.96988">
        <ele>1078.26</ele>
        <time>2022-10-05T09:30:52Z</time>
      </trkpt>
      <trkpt lat="48.02422" lon="6.9698">
        <ele>1080.18</ele>
        <time>2022-10-05T09:31:07Z</time>
      </trkpt>
      <trkpt lat="48.02438" lon="6.96979">
        <ele>1081.14</ele>
        <time>2022-10-05T09:31:21Z</time>
      </trkpt>
      <trkpt lat="48.02441" lon="6.96978">
        <ele>1081.14</ele>
        <time>2022-10-05T09:31:25Z</time>
      </trkpt>
      <trkpt lat="48.02446" lon="6.96977">
        <ele>1081.14</ele>
        <time>2022-10-05T09:31:30Z</time>
      </trkpt>
      <trkpt lat="48.02452" lon="6.96976">
        <ele>1083.06</ele>
        <time>2022-10-05T09:31:36Z</time>
      </trkpt>
      <trkpt lat="48.02454" lon="6.96978">
        <ele>1084.02</ele>
        <time>2022-10-05T09:31:38Z</time>
      </trkpt>
      <trkpt lat="48.02463" lon="6.96979">
        <ele>1084.99</ele>
        <time>2022-10-05T09:31:48Z</time>
      </trkpt>
      <trkpt lat="48.02467" lon="6.96977">
        <ele>1086.43</ele>
        <time>2022-10-05T09:31:52Z</time>
      </trkpt>
      <trkpt lat="48.02485" lon="6.96986">
        <ele>1088.83</ele>
        <time>2022-10-05T09:32:09Z</time>
      </trkpt>
      <trkpt lat="48.0249" lon="6.96988">
        <ele>1089.79</ele>
        <time>2022-10-05T09:32:16Z</time>
      </trkpt>
      <trkpt lat="48.02497" lon="6.96994">
        <ele>1091.23</ele>
        <time>2022-10-05T09:32:22Z</time>
      </trkpt>
      <trkpt lat="48.02511" lon="6.97001">
        <ele>1092.2</ele>
        <time>2022-10-05T09:32:37Z</time>
      </trkpt>
      <trkpt lat="48.02515" lon="6.97004">
        <ele>1092.2</ele>
        <time>2022-10-05T09:32:41Z</time>
      </trkpt>
      <trkpt lat="48.02521" lon="6.97011">
        <ele>1093.16</ele>
        <time>2022-10-05T09:32:48Z</time>
      </trkpt>
      <trkpt lat="48.02532" lon="6.9702">
        <ele>1096.04</ele>
        <time>2022-10-05T09:33:01Z</time>
      </trkpt>
      <trkpt lat="48.02543" lon="6.97031">
        <ele>1097</ele>
        <time>2022-10-05T09:33:12Z</time>
      </trkpt>
      <trkpt lat="48.02559" lon="6.97049">
        <ele>1099.89</ele>
        <time>2022-10-05T09:33:27Z</time>
      </trkpt>
      <trkpt lat="48.0257" lon="6.97059">
        <ele>1101.33</ele>
        <time>2022-10-05T09:33:41Z</time>
      </trkpt>
      <trkpt lat="48.02571" lon="6.97061">
        <ele>1101.33</ele>
        <time>2022-10-05T09:33:43Z</time>
      </trkpt>
      <trkpt lat="48.02584" lon="6.97074">
        <ele>1102.29</ele>
        <time>2022-10-05T09:33:56Z</time>
      </trkpt>
      <trkpt lat="48.02596" lon="6.97092">
        <ele>1104.21</ele>
        <time>2022-10-05T09:34:11Z</time>
      </trkpt>
      <trkpt lat="48.02599" lon="6.97096">
        <ele>1104.69</ele>
        <time>2022-10-05T09:34:15Z</time>
      </trkpt>
      <trkpt lat="48.02612" lon="6.9711">
        <ele>1104.21</ele>
        <time>2022-10-05T09:34:28Z</time>
      </trkpt>
      <trkpt lat="48.02614" lon="6.97111">
        <ele>1104.69</ele>
        <time>2022-10-05T09:34:30Z</time>
      </trkpt>
      <trkpt lat="48.02627" lon="6.9712">
        <ele>1104.21</ele>
        <time>2022-10-05T09:34:42Z</time>
      </trkpt>
      <trkpt lat="48.02629" lon="6.97122">
        <ele>1104.21</ele>
        <time>2022-10-05T09:34:44Z</time>
      </trkpt>
      <trkpt lat="48.02645" lon="6.97136">
        <ele>1104.21</ele>
        <time>2022-10-05T09:34:58Z</time>
      </trkpt>
      <trkpt lat="48.02661" lon="6.97147">
        <ele>1104.69</ele>
        <time>2022-10-05T09:35:12Z</time>
      </trkpt>
      <trkpt lat="48.02666" lon="6.97148">
        <ele>1104.69</ele>
        <time>2022-10-05T09:35:16Z</time>
      </trkpt>
      <trkpt lat="48.02682" lon="6.97147">
        <ele>1104.21</ele>
        <time>2022-10-05T09:35:30Z</time>
      </trkpt>
      <trkpt lat="48.02686" lon="6.97146">
        <ele>1104.21</ele>
        <time>2022-10-05T09:35:34Z</time>
      </trkpt>
      <trkpt lat="48.02703" lon="6.97136">
        <ele>1103.25</ele>
        <time>2022-10-05T09:35:49Z</time>
      </trkpt>
      <trkpt lat="48.02706" lon="6.97134">
        <ele>1103.73</ele>
        <time>2022-10-05T09:35:52Z</time>
      </trkpt>
      <trkpt lat="48.02724" lon="6.97137">
        <ele>1104.21</ele>
        <time>2022-10-05T09:36:07Z</time>
      </trkpt>
      <trkpt lat="48.02739" lon="6.97144">
        <ele>1105.17</ele>
        <time>2022-10-05T09:36:23Z</time>
      </trkpt>
      <trkpt lat="48.02749" lon="6.9715">
        <ele>1105.17</ele>
        <time>2022-10-05T09:36:36Z</time>
      </trkpt>
      <trkpt lat="48.02758" lon="6.97158">
        <ele>1104.69</ele>
        <time>2022-10-05T09:36:50Z</time>
      </trkpt>
      <trkpt lat="48.02771" lon="6.97177">
        <ele>1105.65</ele>
        <time>2022-10-05T09:37:06Z</time>
      </trkpt>
      <trkpt lat="48.02779" lon="6.97187">
        <ele>1105.17</ele>
        <time>2022-10-05T09:37:14Z</time>
      </trkpt>
      <trkpt lat="48.02796" lon="6.97207">
        <ele>1105.65</ele>
        <time>2022-10-05T09:37:31Z</time>
      </trkpt>
      <trkpt lat="48.02802" lon="6.97208">
        <ele>1106.13</ele>
        <time>2022-10-05T09:37:37Z</time>
      </trkpt>
      <trkpt lat="48.02804" lon="6.97209">
        <ele>1105.65</ele>
        <time>2022-10-05T09:37:40Z</time>
      </trkpt>
      <trkpt lat="48.02811" lon="6.97208">
        <ele>1105.65</ele>
        <time>2022-10-05T09:37:49Z</time>
      </trkpt>
      <trkpt lat="48.02819" lon="6.97203">
        <ele>1106.13</ele>
        <time>2022-10-05T09:37:57Z</time>
      </trkpt>
      <trkpt lat="48.02827" lon="6.97197">
        <ele>1106.13</ele>
        <time>2022-10-05T09:38:05Z</time>
      </trkpt>
      <trkpt lat="48.02829" lon="6.97195">
        <ele>1105.65</ele>
        <time>2022-10-05T09:38:08Z</time>
      </trkpt>
      <trkpt lat="48.02838" lon="6.97178">
        <ele>1105.65</ele>
        <time>2022-10-05T09:38:22Z</time>
      </trkpt>
      <trkpt lat="48.02844" lon="6.97162">
        <ele>1104.21</ele>
        <time>2022-10-05T09:38:34Z</time>
      </trkpt>
      <trkpt lat="48.02863" lon="6.97138">
        <ele>1105.65</ele>
        <time>2022-10-05T09:38:51Z</time>
      </trkpt>
      <trkpt lat="48.02871" lon="6.97124">
        <ele>1105.17</ele>
        <time>2022-10-05T09:38:59Z</time>
      </trkpt>
      <trkpt lat="48.02873" lon="6.97121">
        <ele>1105.65</ele>
        <time>2022-10-05T09:39:01Z</time>
      </trkpt>
      <trkpt lat="48.02874" lon="6.97118">
        <ele>1105.65</ele>
        <time>2022-10-05T09:39:03Z</time>
      </trkpt>
      <trkpt lat="48.0288" lon="6.97114">
        <ele>1105.65</ele>
        <time>2022-10-05T09:39:08Z</time>
      </trkpt>
      <trkpt lat="48.02885" lon="6.97108">
        <ele>1105.65</ele>
        <time>2022-10-05T09:39:13Z</time>
      </trkpt>
      <trkpt lat="48.02894" lon="6.97095">
        <ele>1104.69</ele>
        <time>2022-10-05T09:39:24Z</time>
      </trkpt>
      <trkpt lat="48.02899" lon="6.97088">
        <ele>1104.69</ele>
        <time>2022-10-05T09:39:31Z</time>
      </trkpt>
      <trkpt lat="48.02903" lon="6.97081">
        <ele>1104.69</ele>
        <time>2022-10-05T09:39:36Z</time>
      </trkpt>
      <trkpt lat="48.02907" lon="6.97074">
        <ele>1104.69</ele>
        <time>2022-10-05T09:39:41Z</time>
      </trkpt>
      <trkpt lat="48.02919" lon="6.97057">
        <ele>1104.21</ele>
        <time>2022-10-05T09:39:54Z</time>
      </trkpt>
      <trkpt lat="48.02922" lon="6.97054">
        <ele>1104.69</ele>
        <time>2022-10-05T09:39:57Z</time>
      </trkpt>
      <trkpt lat="48.02933" lon="6.97046">
        <ele>1104.69</ele>
        <time>2022-10-05T09:40:05Z</time>
      </trkpt>
      <trkpt lat="48.02942" lon="6.97027">
        <ele>1105.17</ele>
        <time>2022-10-05T09:40:19Z</time>
      </trkpt>
      <trkpt lat="48.02951" lon="6.97018">
        <ele>1105.65</ele>
        <time>2022-10-05T09:40:27Z</time>
      </trkpt>
      <trkpt lat="48.02964" lon="6.96999">
        <ele>1104.69</ele>
        <time>2022-10-05T09:40:41Z</time>
      </trkpt>
      <trkpt lat="48.02977" lon="6.9699">
        <ele>1104.69</ele>
        <time>2022-10-05T09:40:52Z</time>
      </trkpt>
      <trkpt lat="48.02987" lon="6.9698">
        <ele>1106.61</ele>
        <time>2022-10-05T09:41:01Z</time>
      </trkpt>
      <trkpt lat="48.02993" lon="6.96972">
        <ele>1106.61</ele>
        <time>2022-10-05T09:41:06Z</time>
      </trkpt>
      <trkpt lat="48.03016" lon="6.96962">
        <ele>1106.13</ele>
        <time>2022-10-05T09:41:20Z</time>
      </trkpt>
      <trkpt lat="48.03038" lon="6.96962">
        <ele>1106.13</ele>
        <time>2022-10-05T09:41:35Z</time>
      </trkpt>
      <trkpt lat="48.03055" lon="6.96971">
        <ele>1106.13</ele>
        <time>2022-10-05T09:41:50Z</time>
      </trkpt>
      <trkpt lat="48.03057" lon="6.96974">
        <ele>1107.58</ele>
        <time>2022-10-05T09:41:54Z</time>
      </trkpt>
      <trkpt lat="48.03059" lon="6.96977">
        <ele>1108.54</ele>
        <time>2022-10-05T09:41:56Z</time>
      </trkpt>
      <trkpt lat="48.03064" lon="6.96984">
        <ele>1108.06</ele>
        <time>2022-10-05T09:42:02Z</time>
      </trkpt>
      <trkpt lat="48.03072" lon="6.96997">
        <ele>1109.02</ele>
        <time>2022-10-05T09:42:16Z</time>
      </trkpt>
      <trkpt lat="48.03073" lon="6.96999">
        <ele>1108.06</ele>
        <time>2022-10-05T09:42:36Z</time>
      </trkpt>
      <trkpt lat="48.03081" lon="6.97008">
        <ele>1109.5</ele>
        <time>2022-10-05T09:42:49Z</time>
      </trkpt>
      <trkpt lat="48.03082" lon="6.97011">
        <ele>1109.02</ele>
        <time>2022-10-05T09:42:55Z</time>
      </trkpt>
      <trkpt lat="48.03086" lon="6.97014">
        <ele>1110.94</ele>
        <time>2022-10-05T09:42:59Z</time>
      </trkpt>
      <trkpt lat="48.031" lon="6.97021">
        <ele>1109.5</ele>
        <time>2022-10-05T09:43:12Z</time>
      </trkpt>
      <trkpt lat="48.03103" lon="6.97023">
        <ele>1109.02</ele>
        <time>2022-10-05T09:43:22Z</time>
      </trkpt>
      <trkpt lat="48.03109" lon="6.9703">
        <ele>1109.98</ele>
        <time>2022-10-05T09:43:38Z</time>
      </trkpt>
      <trkpt lat="48.03113" lon="6.97034">
        <ele>1110.46</ele>
        <time>2022-10-05T09:43:44Z</time>
      </trkpt>
      <trkpt lat="48.03123" lon="6.97043">
        <ele>1112.86</ele>
        <time>2022-10-05T09:43:59Z</time>
      </trkpt>
      <trkpt lat="48.03131" lon="6.97058">
        <ele>1113.82</ele>
        <time>2022-10-05T09:44:12Z</time>
      </trkpt>
      <trkpt lat="48.03139" lon="6.97074">
        <ele>1116.23</ele>
        <time>2022-10-05T09:44:26Z</time>
      </trkpt>
      <trkpt lat="48.03148" lon="6.97088">
        <ele>1117.67</ele>
        <time>2022-10-05T09:44:40Z</time>
      </trkpt>
      <trkpt lat="48.03148" lon="6.97088">
        <ele>1116.71</ele>
        <time>2022-10-05T09:44:56Z</time>
      </trkpt>
      <trkpt lat="48.03149" lon="6.97092">
        <ele>1118.15</ele>
        <time>2022-10-05T09:45:15Z</time>
      </trkpt>
      <trkpt lat="48.03151" lon="6.97096">
        <ele>1118.63</ele>
        <time>2022-10-05T09:45:28Z</time>
      </trkpt>
      <trkpt lat="48.03154" lon="6.97105">
        <ele>1119.59</ele>
        <time>2022-10-05T09:45:37Z</time>
      </trkpt>
      <trkpt lat="48.03156" lon="6.97114">
        <ele>1119.59</ele>
        <time>2022-10-05T09:45:42Z</time>
      </trkpt>
      <trkpt lat="48.03164" lon="6.97132">
        <ele>1121.52</ele>
        <time>2022-10-05T09:45:56Z</time>
      </trkpt>
      <trkpt lat="48.0317" lon="6.97149">
        <ele>1123.44</ele>
        <time>2022-10-05T09:46:10Z</time>
      </trkpt>
      <trkpt lat="48.03177" lon="6.97175">
        <ele>1124.4</ele>
        <time>2022-10-05T09:46:26Z</time>
      </trkpt>
      <trkpt lat="48.03184" lon="6.97194">
        <ele>1125.36</ele>
        <time>2022-10-05T09:46:40Z</time>
      </trkpt>
      <trkpt lat="48.0319" lon="6.97211">
        <ele>1126.32</ele>
        <time>2022-10-05T09:46:52Z</time>
      </trkpt>
      <trkpt lat="48.03194" lon="6.9723">
        <ele>1126.32</ele>
        <time>2022-10-05T09:47:08Z</time>
      </trkpt>
      <trkpt lat="48.03197" lon="6.97248">
        <ele>1126.32</ele>
        <time>2022-10-05T09:47:21Z</time>
      </trkpt>
      <trkpt lat="48.03197" lon="6.9726">
        <ele>1125.36</ele>
        <time>2022-10-05T09:47:28Z</time>
      </trkpt>
      <trkpt lat="48.03198" lon="6.97271">
        <ele>1124.88</ele>
        <time>2022-10-05T09:47:34Z</time>
      </trkpt>
      <trkpt lat="48.03199" lon="6.97285">
        <ele>1122.96</ele>
        <time>2022-10-05T09:47:42Z</time>
      </trkpt>
      <trkpt lat="48.03199" lon="6.97304">
        <ele>1122</ele>
        <time>2022-10-05T09:47:53Z</time>
      </trkpt>
      <trkpt lat="48.03199" lon="6.97316">
        <ele>1120.55</ele>
        <time>2022-10-05T09:48:01Z</time>
      </trkpt>
      <trkpt lat="48.032" lon="6.97327">
        <ele>1119.11</ele>
        <time>2022-10-05T09:48:07Z</time>
      </trkpt>
      <trkpt lat="48.03201" lon="6.97349">
        <ele>1116.71</ele>
        <time>2022-10-05T09:48:22Z</time>
      </trkpt>
      <trkpt lat="48.03201" lon="6.97355">
        <ele>1116.23</ele>
        <time>2022-10-05T09:48:26Z</time>
      </trkpt>
      <trkpt lat="48.03202" lon="6.97362">
        <ele>1115.27</ele>
        <time>2022-10-05T09:48:30Z</time>
      </trkpt>
      <trkpt lat="48.03205" lon="6.97382">
        <ele>1113.82</ele>
        <time>2022-10-05T09:48:43Z</time>
      </trkpt>
      <trkpt lat="48.03206" lon="6.9741">
        <ele>1111.42</ele>
        <time>2022-10-05T09:48:58Z</time>
      </trkpt>
      <trkpt lat="48.03206" lon="6.97434">
        <ele>1109.98</ele>
        <time>2022-10-05T09:49:10Z</time>
      </trkpt>
      <trkpt lat="48.03206" lon="6.97436">
        <ele>1109.98</ele>
        <time>2022-10-05T09:49:30Z</time>
      </trkpt>
      <trkpt lat="48.03208" lon="6.97439">
        <ele>1110.46</ele>
        <time>2022-10-05T09:49:59Z</time>
      </trkpt>
      <trkpt lat="48.03208" lon="6.97441">
        <ele>1110.46</ele>
        <time>2022-10-05T09:50:33Z</time>
      </trkpt>
      <trkpt lat="48.03207" lon="6.97442">
        <ele>1110.46</ele>
        <time>2022-10-05T09:51:08Z</time>
      </trkpt>
      <trkpt lat="48.03208" lon="6.97444">
        <ele>1110.94</ele>
        <time>2022-10-05T09:51:46Z</time>
      </trkpt>
      <trkpt lat="48.03208" lon="6.97444">
        <ele>1109.98</ele>
        <time>2022-10-05T09:52:09Z</time>
      </trkpt>
      <trkpt lat="48.03207" lon="6.97444">
        <ele>1109.98</ele>
        <time>2022-10-05T09:52:27Z</time>
      </trkpt>
      <trkpt lat="48.03207" lon="6.97444">
        <ele>1109.98</ele>
        <time>2022-10-05T09:52:47Z</time>
      </trkpt>
      <trkpt lat="48.03207" lon="6.97445">
        <ele>1109.98</ele>
        <time>2022-10-05T09:53:01Z</time>
      </trkpt>
      <trkpt lat="48.03208" lon="6.97445">
        <ele>1109.5</ele>
        <time>2022-10-05T09:53:02Z</time>
      </trkpt>
      <trkpt lat="48.03209" lon="6.97455">
        <ele>1108.54</ele>
        <time>2022-10-05T09:53:15Z</time>
      </trkpt>
      <trkpt lat="48.0321" lon="6.97459">
        <ele>1108.06</ele>
        <time>2022-10-05T09:53:18Z</time>
      </trkpt>
      <trkpt lat="48.0321" lon="6.97466">
        <ele>1107.58</ele>
        <time>2022-10-05T09:53:27Z</time>
      </trkpt>
      <trkpt lat="48.03212" lon="6.97477">
        <ele>1106.61</ele>
        <time>2022-10-05T09:53:39Z</time>
      </trkpt>
      <trkpt lat="48.03212" lon="6.97483">
        <ele>1105.65</ele>
        <time>2022-10-05T09:53:50Z</time>
      </trkpt>
      <trkpt lat="48.03214" lon="6.97497">
        <ele>1104.21</ele>
        <time>2022-10-05T09:53:57Z</time>
      </trkpt>
      <trkpt lat="48.03215" lon="6.97511">
        <ele>1103.25</ele>
        <time>2022-10-05T09:54:04Z</time>
      </trkpt>
      <trkpt lat="48.03217" lon="6.97521">
        <ele>1102.77</ele>
        <time>2022-10-05T09:54:09Z</time>
      </trkpt>
      <trkpt lat="48.0322" lon="6.97532">
        <ele>1101.33</ele>
        <time>2022-10-05T09:54:17Z</time>
      </trkpt>
      <trkpt lat="48.03227" lon="6.97554">
        <ele>1098.44</ele>
        <time>2022-10-05T09:54:30Z</time>
      </trkpt>
      <trkpt lat="48.03228" lon="6.97557">
        <ele>1097.48</ele>
        <time>2022-10-05T09:54:33Z</time>
      </trkpt>
      <trkpt lat="48.0323" lon="6.9757">
        <ele>1097.48</ele>
        <time>2022-10-05T09:54:40Z</time>
      </trkpt>
      <trkpt lat="48.03232" lon="6.97575">
        <ele>1097.48</ele>
        <time>2022-10-05T09:54:43Z</time>
      </trkpt>
      <trkpt lat="48.03234" lon="6.97587">
        <ele>1096.04</ele>
        <time>2022-10-05T09:54:50Z</time>
      </trkpt>
      <trkpt lat="48.03233" lon="6.97604">
        <ele>1094.6</ele>
        <time>2022-10-05T09:55:04Z</time>
      </trkpt>
      <trkpt lat="48.03233" lon="6.97611">
        <ele>1094.12</ele>
        <time>2022-10-05T09:55:13Z</time>
      </trkpt>
      <trkpt lat="48.03234" lon="6.9762">
        <ele>1093.64</ele>
        <time>2022-10-05T09:55:28Z</time>
      </trkpt>
      <trkpt lat="48.03235" lon="6.97622">
        <ele>1093.64</ele>
        <time>2022-10-05T09:55:36Z</time>
      </trkpt>
      <trkpt lat="48.03243" lon="6.97633">
        <ele>1092.2</ele>
        <time>2022-10-05T09:55:42Z</time>
      </trkpt>
      <trkpt lat="48.03245" lon="6.97627">
        <ele>1093.16</ele>
        <time>2022-10-05T09:55:50Z</time>
      </trkpt>
      <trkpt lat="48.03244" lon="6.97622">
        <ele>1094.6</ele>
        <time>2022-10-05T09:56:04Z</time>
      </trkpt>
      <trkpt lat="48.03242" lon="6.97625">
        <ele>1094.12</ele>
        <time>2022-10-05T09:56:08Z</time>
      </trkpt>
      <trkpt lat="48.03244" lon="6.97637">
        <ele>1093.16</ele>
        <time>2022-10-05T09:56:17Z</time>
      </trkpt>
      <trkpt lat="48.03247" lon="6.97652">
        <ele>1091.71</ele>
        <time>2022-10-05T09:56:25Z</time>
      </trkpt>
      <trkpt lat="48.03249" lon="6.9766">
        <ele>1091.71</ele>
        <time>2022-10-05T09:56:31Z</time>
      </trkpt>
      <trkpt lat="48.0325" lon="6.97664">
        <ele>1091.71</ele>
        <time>2022-10-05T09:56:33Z</time>
      </trkpt>
      <trkpt lat="48.03261" lon="6.97692">
        <ele>1088.35</ele>
        <time>2022-10-05T09:56:48Z</time>
      </trkpt>
      <trkpt lat="48.0327" lon="6.97715">
        <ele>1086.91</ele>
        <time>2022-10-05T09:57:03Z</time>
      </trkpt>
      <trkpt lat="48.03272" lon="6.97724">
        <ele>1086.43</ele>
        <time>2022-10-05T09:57:09Z</time>
      </trkpt>
      <trkpt lat="48.03272" lon="6.97735">
        <ele>1085.47</ele>
        <time>2022-10-05T09:57:22Z</time>
      </trkpt>
      <trkpt lat="48.03273" lon="6.97745">
        <ele>1084.02</ele>
        <time>2022-10-05T09:57:34Z</time>
      </trkpt>
      <trkpt lat="48.03267" lon="6.97754">
        <ele>1081.14</ele>
        <time>2022-10-05T09:57:47Z</time>
      </trkpt>
      <trkpt lat="48.03262" lon="6.97763">
        <ele>1078.26</ele>
        <time>2022-10-05T09:58:02Z</time>
      </trkpt>
      <trkpt lat="48.03258" lon="6.97772">
        <ele>1076.81</ele>
        <time>2022-10-05T09:58:17Z</time>
      </trkpt>
      <trkpt lat="48.03254" lon="6.97779">
        <ele>1075.37</ele>
        <time>2022-10-05T09:58:36Z</time>
      </trkpt>
      <trkpt lat="48.03252" lon="6.97785">
        <ele>1073.93</ele>
        <time>2022-10-05T09:59:00Z</time>
      </trkpt>
      <trkpt lat="48.03249" lon="6.97791">
        <ele>1073.45</ele>
        <time>2022-10-05T09:59:35Z</time>
      </trkpt>
      <trkpt lat="48.03247" lon="6.97794">
        <ele>1072.01</ele>
        <time>2022-10-05T09:59:46Z</time>
      </trkpt>
      <trkpt lat="48.0325" lon="6.97795">
        <ele>1071.53</ele>
        <time>2022-10-05T09:59:50Z</time>
      </trkpt>
      <trkpt lat="48.03254" lon="6.97797">
        <ele>1070.08</ele>
        <time>2022-10-05T10:00:04Z</time>
      </trkpt>
      <trkpt lat="48.03257" lon="6.978">
        <ele>1068.16</ele>
        <time>2022-10-05T10:00:18Z</time>
      </trkpt>
      <trkpt lat="48.03259" lon="6.978">
        <ele>1066.72</ele>
        <time>2022-10-05T10:00:34Z</time>
      </trkpt>
      <trkpt lat="48.03262" lon="6.97798">
        <ele>1067.68</ele>
        <time>2022-10-05T10:00:59Z</time>
      </trkpt>
      <trkpt lat="48.03267" lon="6.97799">
        <ele>1068.16</ele>
        <time>2022-10-05T10:01:20Z</time>
      </trkpt>
      <trkpt lat="48.03277" lon="6.97796">
        <ele>1067.2</ele>
        <time>2022-10-05T10:01:38Z</time>
      </trkpt>
      <trkpt lat="48.03292" lon="6.97798">
        <ele>1065.28</ele>
        <time>2022-10-05T10:01:56Z</time>
      </trkpt>
      <trkpt lat="48.03303" lon="6.97795">
        <ele>1063.36</ele>
        <time>2022-10-05T10:02:09Z</time>
      </trkpt>
      <trkpt lat="48.03321" lon="6.97796">
        <ele>1063.36</ele>
        <time>2022-10-05T10:02:25Z</time>
      </trkpt>
      <trkpt lat="48.0333" lon="6.97795">
        <ele>1063.84</ele>
        <time>2022-10-05T10:02:38Z</time>
      </trkpt>
      <trkpt lat="48.03333" lon="6.97794">
        <ele>1064.32</ele>
        <time>2022-10-05T10:02:54Z</time>
      </trkpt>
      <trkpt lat="48.03333" lon="6.97792">
        <ele>1064.32</ele>
        <time>2022-10-05T10:03:20Z</time>
      </trkpt>
      <trkpt lat="48.03333" lon="6.97793">
        <ele>1063.84</ele>
        <time>2022-10-05T10:03:36Z</time>
      </trkpt>
      <trkpt lat="48.03336" lon="6.97793">
        <ele>1063.36</ele>
        <time>2022-10-05T10:03:59Z</time>
      </trkpt>
      <trkpt lat="48.03337" lon="6.97794">
        <ele>1063.36</ele>
        <time>2022-10-05T10:04:11Z</time>
      </trkpt>
      <trkpt lat="48.03344" lon="6.97794">
        <ele>1061.91</ele>
        <time>2022-10-05T10:04:28Z</time>
      </trkpt>
      <trkpt lat="48.03345" lon="6.97793">
        <ele>1061.43</ele>
        <time>2022-10-05T10:04:45Z</time>
      </trkpt>
      <trkpt lat="48.03345" lon="6.97793">
        <ele>1061.91</ele>
        <time>2022-10-05T10:05:13Z</time>
      </trkpt>
      <trkpt lat="48.03345" lon="6.97792">
        <ele>1061.91</ele>
        <time>2022-10-05T10:05:43Z</time>
      </trkpt>
      <trkpt lat="48.03345" lon="6.97794">
        <ele>1060.47</ele>
        <time>2022-10-05T10:06:00Z</time>
      </trkpt>
      <trkpt lat="48.0335" lon="6.9779">
        <ele>1059.99</ele>
        <time>2022-10-05T10:06:24Z</time>
      </trkpt>
      <trkpt lat="48.03351" lon="6.9779">
        <ele>1060.47</ele>
        <time>2022-10-05T10:07:04Z</time>
      </trkpt>
      <trkpt lat="48.03352" lon="6.97791">
        <ele>1060.47</ele>
        <time>2022-10-05T10:07:32Z</time>
      </trkpt>
      <trkpt lat="48.03354" lon="6.9779">
        <ele>1060.47</ele>
        <time>2022-10-05T10:07:42Z</time>
      </trkpt>
      <trkpt lat="48.03355" lon="6.97789">
        <ele>1060.47</ele>
        <time>2022-10-05T10:07:44Z</time>
      </trkpt>
      <trkpt lat="48.03365" lon="6.97782">
        <ele>1059.99</ele>
        <time>2022-10-05T10:07:57Z</time>
      </trkpt>
      <trkpt lat="48.0337" lon="6.97783">
        <ele>1060.47</ele>
        <time>2022-10-05T10:08:06Z</time>
      </trkpt>
      <trkpt lat="48.03372" lon="6.97786">
        <ele>1060.95</ele>
        <time>2022-10-05T10:08:08Z</time>
      </trkpt>
      <trkpt lat="48.03385" lon="6.97799">
        <ele>1061.43</ele>
        <time>2022-10-05T10:08:22Z</time>
      </trkpt>
      <trkpt lat="48.03387" lon="6.97801">
        <ele>1061.91</ele>
        <time>2022-10-05T10:08:24Z</time>
      </trkpt>
      <trkpt lat="48.03401" lon="6.97815">
        <ele>1061.43</ele>
        <time>2022-10-05T10:08:39Z</time>
      </trkpt>
      <trkpt lat="48.03416" lon="6.97827">
        <ele>1059.51</ele>
        <time>2022-10-05T10:08:52Z</time>
      </trkpt>
      <trkpt lat="48.03421" lon="6.97833">
        <ele>1059.51</ele>
        <time>2022-10-05T10:08:57Z</time>
      </trkpt>
      <trkpt lat="48.03424" lon="6.97835">
        <ele>1059.03</ele>
        <time>2022-10-05T10:09:10Z</time>
      </trkpt>
      <trkpt lat="48.03424" lon="6.97836">
        <ele>1058.07</ele>
        <time>2022-10-05T10:09:24Z</time>
      </trkpt>
      <trkpt lat="48.03422" lon="6.97855">
        <ele>1059.03</ele>
        <time>2022-10-05T10:09:39Z</time>
      </trkpt>
      <trkpt lat="48.03413" lon="6.97867">
        <ele>1059.99</ele>
        <time>2022-10-05T10:09:52Z</time>
      </trkpt>
      <trkpt lat="48.03409" lon="6.97873">
        <ele>1059.99</ele>
        <time>2022-10-05T10:09:57Z</time>
      </trkpt>
      <trkpt lat="48.034" lon="6.97894">
        <ele>1059.51</ele>
        <time>2022-10-05T10:10:09Z</time>
      </trkpt>
      <trkpt lat="48.03398" lon="6.97905">
        <ele>1059.51</ele>
        <time>2022-10-05T10:10:14Z</time>
      </trkpt>
      <trkpt lat="48.03396" lon="6.97914">
        <ele>1059.99</ele>
        <time>2022-10-05T10:10:18Z</time>
      </trkpt>
      <trkpt lat="48.03393" lon="6.97939">
        <ele>1059.03</ele>
        <time>2022-10-05T10:10:33Z</time>
      </trkpt>
      <trkpt lat="48.03389" lon="6.9796">
        <ele>1059.51</ele>
        <time>2022-10-05T10:10:47Z</time>
      </trkpt>
      <trkpt lat="48.03384" lon="6.97981">
        <ele>1059.51</ele>
        <time>2022-10-05T10:10:58Z</time>
      </trkpt>
      <trkpt lat="48.03384" lon="6.97987">
        <ele>1059.99</ele>
        <time>2022-10-05T10:11:01Z</time>
      </trkpt>
      <trkpt lat="48.03378" lon="6.98013">
        <ele>1059.99</ele>
        <time>2022-10-05T10:11:17Z</time>
      </trkpt>
      <trkpt lat="48.03373" lon="6.98034">
        <ele>1059.03</ele>
        <time>2022-10-05T10:11:30Z</time>
      </trkpt>
      <trkpt lat="48.03369" lon="6.98045">
        <ele>1057.59</ele>
        <time>2022-10-05T10:11:40Z</time>
      </trkpt>
      <trkpt lat="48.03364" lon="6.98059">
        <ele>1057.59</ele>
        <time>2022-10-05T10:11:48Z</time>
      </trkpt>
      <trkpt lat="48.03361" lon="6.98062">
        <ele>1057.59</ele>
        <time>2022-10-05T10:11:51Z</time>
      </trkpt>
      <trkpt lat="48.03351" lon="6.98085">
        <ele>1058.07</ele>
        <time>2022-10-05T10:12:04Z</time>
      </trkpt>
      <trkpt lat="48.03347" lon="6.98104">
        <ele>1057.59</ele>
        <time>2022-10-05T10:12:16Z</time>
      </trkpt>
      <trkpt lat="48.03348" lon="6.98108">
        <ele>1057.59</ele>
        <time>2022-10-05T10:12:18Z</time>
      </trkpt>
      <trkpt lat="48.03347" lon="6.98117">
        <ele>1057.11</ele>
        <time>2022-10-05T10:12:22Z</time>
      </trkpt>
      <trkpt lat="48.03345" lon="6.98132">
        <ele>1056.63</ele>
        <time>2022-10-05T10:12:37Z</time>
      </trkpt>
      <trkpt lat="48.03343" lon="6.9815">
        <ele>1057.11</ele>
        <time>2022-10-05T10:12:50Z</time>
      </trkpt>
      <trkpt lat="48.03338" lon="6.9816">
        <ele>1058.07</ele>
        <time>2022-10-05T10:12:59Z</time>
      </trkpt>
      <trkpt lat="48.03335" lon="6.9818">
        <ele>1058.07</ele>
        <time>2022-10-05T10:13:11Z</time>
      </trkpt>
      <trkpt lat="48.03331" lon="6.98195">
        <ele>1057.11</ele>
        <time>2022-10-05T10:13:23Z</time>
      </trkpt>
      <trkpt lat="48.03331" lon="6.98198">
        <ele>1056.63</ele>
        <time>2022-10-05T10:13:38Z</time>
      </trkpt>
      <trkpt lat="48.03329" lon="6.98202">
        <ele>1057.11</ele>
        <time>2022-10-05T10:13:54Z</time>
      </trkpt>
      <trkpt lat="48.03325" lon="6.98211">
        <ele>1057.59</ele>
        <time>2022-10-05T10:14:01Z</time>
      </trkpt>
      <trkpt lat="48.03316" lon="6.98227">
        <ele>1057.59</ele>
        <time>2022-10-05T10:14:15Z</time>
      </trkpt>
      <trkpt lat="48.0331" lon="6.98242">
        <ele>1057.11</ele>
        <time>2022-10-05T10:14:26Z</time>
      </trkpt>
      <trkpt lat="48.03308" lon="6.98243">
        <ele>1057.11</ele>
        <time>2022-10-05T10:14:28Z</time>
      </trkpt>
      <trkpt lat="48.03299" lon="6.98256">
        <ele>1057.59</ele>
        <time>2022-10-05T10:14:39Z</time>
      </trkpt>
      <trkpt lat="48.03294" lon="6.98269">
        <ele>1058.07</ele>
        <time>2022-10-05T10:14:46Z</time>
      </trkpt>
      <trkpt lat="48.03289" lon="6.98282">
        <ele>1058.07</ele>
        <time>2022-10-05T10:14:54Z</time>
      </trkpt>
      <trkpt lat="48.03279" lon="6.98309">
        <ele>1057.59</ele>
        <time>2022-10-05T10:15:09Z</time>
      </trkpt>
      <trkpt lat="48.03277" lon="6.98315">
        <ele>1057.11</ele>
        <time>2022-10-05T10:15:13Z</time>
      </trkpt>
      <trkpt lat="48.03268" lon="6.98339">
        <ele>1057.11</ele>
        <time>2022-10-05T10:15:27Z</time>
      </trkpt>
      <trkpt lat="48.03252" lon="6.98356">
        <ele>1056.63</ele>
        <time>2022-10-05T10:15:43Z</time>
      </trkpt>
      <trkpt lat="48.0324" lon="6.9837">
        <ele>1057.11</ele>
        <time>2022-10-05T10:15:55Z</time>
      </trkpt>
      <trkpt lat="48.03236" lon="6.98373">
        <ele>1057.59</ele>
        <time>2022-10-05T10:15:59Z</time>
      </trkpt>
      <trkpt lat="48.03229" lon="6.98384">
        <ele>1057.59</ele>
        <time>2022-10-05T10:16:06Z</time>
      </trkpt>
      <trkpt lat="48.0322" lon="6.98396">
        <ele>1058.55</ele>
        <time>2022-10-05T10:16:17Z</time>
      </trkpt>
      <trkpt lat="48.0321" lon="6.98406">
        <ele>1058.07</ele>
        <time>2022-10-05T10:16:30Z</time>
      </trkpt>
      <trkpt lat="48.03208" lon="6.9841">
        <ele>1058.07</ele>
        <time>2022-10-05T10:16:44Z</time>
      </trkpt>
      <trkpt lat="48.03205" lon="6.98408">
        <ele>1057.11</ele>
        <time>2022-10-05T10:16:59Z</time>
      </trkpt>
      <trkpt lat="48.03202" lon="6.98408">
        <ele>1056.63</ele>
        <time>2022-10-05T10:17:12Z</time>
      </trkpt>
      <trkpt lat="48.03202" lon="6.98416">
        <ele>1057.11</ele>
        <time>2022-10-05T10:17:28Z</time>
      </trkpt>
      <trkpt lat="48.03203" lon="6.98418">
        <ele>1057.59</ele>
        <time>2022-10-05T10:17:41Z</time>
      </trkpt>
      <trkpt lat="48.03203" lon="6.98419">
        <ele>1057.11</ele>
        <time>2022-10-05T10:18:05Z</time>
      </trkpt>
      <trkpt lat="48.03203" lon="6.98419">
        <ele>1056.15</ele>
        <time>2022-10-05T10:18:28Z</time>
      </trkpt>
      <trkpt lat="48.03203" lon="6.9842">
        <ele>1058.07</ele>
        <time>2022-10-05T10:18:52Z</time>
      </trkpt>
      <trkpt lat="48.03203" lon="6.98421">
        <ele>1057.59</ele>
        <time>2022-10-05T10:19:15Z</time>
      </trkpt>
      <trkpt lat="48.03203" lon="6.98422">
        <ele>1056.63</ele>
        <time>2022-10-05T10:19:37Z</time>
      </trkpt>
      <trkpt lat="48.03203" lon="6.98423">
        <ele>1056.63</ele>
        <time>2022-10-05T10:19:57Z</time>
      </trkpt>
      <trkpt lat="48.03203" lon="6.98423">
        <ele>1056.63</ele>
        <time>2022-10-05T10:20:20Z</time>
      </trkpt>
      <trkpt lat="48.03203" lon="6.98422">
        <ele>1055.67</ele>
        <time>2022-10-05T10:20:41Z</time>
      </trkpt>
      <trkpt lat="48.03204" lon="6.98421">
        <ele>1056.15</ele>
        <time>2022-10-05T10:21:03Z</time>
      </trkpt>
      <trkpt lat="48.03205" lon="6.98421">
        <ele>1056.63</ele>
        <time>2022-10-05T10:21:23Z</time>
      </trkpt>
      <trkpt lat="48.03199" lon="6.98425">
        <ele>1057.11</ele>
        <time>2022-10-05T10:21:34Z</time>
      </trkpt>
      <trkpt lat="48.03197" lon="6.98428">
        <ele>1057.11</ele>
        <time>2022-10-05T10:21:39Z</time>
      </trkpt>
      <trkpt lat="48.03196" lon="6.98431">
        <ele>1057.59</ele>
        <time>2022-10-05T10:21:42Z</time>
      </trkpt>
      <trkpt lat="48.03191" lon="6.98441">
        <ele>1057.59</ele>
        <time>2022-10-05T10:21:55Z</time>
      </trkpt>
      <trkpt lat="48.03189" lon="6.98454">
        <ele>1056.63</ele>
        <time>2022-10-05T10:22:09Z</time>
      </trkpt>
      <trkpt lat="48.03188" lon="6.98458">
        <ele>1056.63</ele>
        <time>2022-10-05T10:22:14Z</time>
      </trkpt>
      <trkpt lat="48.03179" lon="6.98471">
        <ele>1056.15</ele>
        <time>2022-10-05T10:22:28Z</time>
      </trkpt>
      <trkpt lat="48.03176" lon="6.98479">
        <ele>1054.7</ele>
        <time>2022-10-05T10:22:38Z</time>
      </trkpt>
      <trkpt lat="48.03172" lon="6.98475">
        <ele>1054.7</ele>
        <time>2022-10-05T10:22:51Z</time>
      </trkpt>
      <trkpt lat="48.03172" lon="6.98474">
        <ele>1054.22</ele>
        <time>2022-10-05T10:23:10Z</time>
      </trkpt>
      <trkpt lat="48.03168" lon="6.98471">
        <ele>1054.22</ele>
        <time>2022-10-05T10:23:23Z</time>
      </trkpt>
      <trkpt lat="48.03169" lon="6.98474">
        <ele>1054.22</ele>
        <time>2022-10-05T10:23:38Z</time>
      </trkpt>
      <trkpt lat="48.03169" lon="6.98475">
        <ele>1054.22</ele>
        <time>2022-10-05T10:23:53Z</time>
      </trkpt>
      <trkpt lat="48.0317" lon="6.9848">
        <ele>1054.7</ele>
        <time>2022-10-05T10:24:04Z</time>
      </trkpt>
      <trkpt lat="48.03172" lon="6.98485">
        <ele>1054.7</ele>
        <time>2022-10-05T10:24:13Z</time>
      </trkpt>
      <trkpt lat="48.03172" lon="6.98489">
        <ele>1054.7</ele>
        <time>2022-10-05T10:24:16Z</time>
      </trkpt>
      <trkpt lat="48.03169" lon="6.98496">
        <ele>1054.7</ele>
        <time>2022-10-05T10:24:26Z</time>
      </trkpt>
      <trkpt lat="48.03168" lon="6.98502">
        <ele>1055.67</ele>
        <time>2022-10-05T10:24:31Z</time>
      </trkpt>
      <trkpt lat="48.03167" lon="6.98507">
        <ele>1055.67</ele>
        <time>2022-10-05T10:24:34Z</time>
      </trkpt>
      <trkpt lat="48.03165" lon="6.98509">
        <ele>1055.67</ele>
        <time>2022-10-05T10:24:36Z</time>
      </trkpt>
      <trkpt lat="48.0316" lon="6.98513">
        <ele>1056.63</ele>
        <time>2022-10-05T10:24:50Z</time>
      </trkpt>
      <trkpt lat="48.03155" lon="6.98506">
        <ele>1057.11</ele>
        <time>2022-10-05T10:25:02Z</time>
      </trkpt>
      <trkpt lat="48.03152" lon="6.98494">
        <ele>1056.63</ele>
        <time>2022-10-05T10:25:09Z</time>
      </trkpt>
      <trkpt lat="48.0314" lon="6.98483">
        <ele>1056.15</ele>
        <time>2022-10-05T10:25:24Z</time>
      </trkpt>
      <trkpt lat="48.0314" lon="6.98475">
        <ele>1055.67</ele>
        <time>2022-10-05T10:25:35Z</time>
      </trkpt>
      <trkpt lat="48.0314" lon="6.98469">
        <ele>1055.18</ele>
        <time>2022-10-05T10:26:03Z</time>
      </trkpt>
      <trkpt lat="48.03139" lon="6.98467">
        <ele>1056.63</ele>
        <time>2022-10-05T10:26:25Z</time>
      </trkpt>
      <trkpt lat="48.03137" lon="6.98468">
        <ele>1056.63</ele>
        <time>2022-10-05T10:26:47Z</time>
      </trkpt>
      <trkpt lat="48.03137" lon="6.98468">
        <ele>1057.11</ele>
        <time>2022-10-05T10:27:13Z</time>
      </trkpt>
      <trkpt lat="48.03136" lon="6.98468">
        <ele>1056.63</ele>
        <time>2022-10-05T10:27:33Z</time>
      </trkpt>
      <trkpt lat="48.03136" lon="6.9847">
        <ele>1055.67</ele>
        <time>2022-10-05T10:28:14Z</time>
      </trkpt>
      <trkpt lat="48.03136" lon="6.9847">
        <ele>1056.15</ele>
        <time>2022-10-05T10:28:56Z</time>
      </trkpt>
      <trkpt lat="48.03136" lon="6.9847">
        <ele>1056.15</ele>
        <time>2022-10-05T10:29:37Z</time>
      </trkpt>
      <trkpt lat="48.03135" lon="6.98471">
        <ele>1055.67</ele>
        <time>2022-10-05T10:30:17Z</time>
      </trkpt>
      <trkpt lat="48.03135" lon="6.98471">
        <ele>1056.15</ele>
        <time>2022-10-05T10:30:50Z</time>
      </trkpt>
      <trkpt lat="48.03135" lon="6.9847">
        <ele>1056.15</ele>
        <time>2022-10-05T10:31:30Z</time>
      </trkpt>
      <trkpt lat="48.03135" lon="6.98471">
        <ele>1055.67</ele>
        <time>2022-10-05T10:32:08Z</time>
      </trkpt>
      <trkpt lat="48.03135" lon="6.98471">
        <ele>1055.18</ele>
        <time>2022-10-05T10:32:38Z</time>
      </trkpt>
      <trkpt lat="48.03135" lon="6.98471">
        <ele>1054.7</ele>
        <time>2022-10-05T10:33:08Z</time>
      </trkpt>
      <trkpt lat="48.03135" lon="6.98471">
        <ele>1055.18</ele>
        <time>2022-10-05T10:33:42Z</time>
      </trkpt>
      <trkpt lat="48.03135" lon="6.98471">
        <ele>1055.18</ele>
        <time>2022-10-05T10:34:10Z</time>
      </trkpt>
      <trkpt lat="48.03135" lon="6.98471">
        <ele>1055.18</ele>
        <time>2022-10-05T10:34:39Z</time>
      </trkpt>
      <trkpt lat="48.03135" lon="6.98471">
        <ele>1055.18</ele>
        <time>2022-10-05T10:35:11Z</time>
      </trkpt>
      <trkpt lat="48.03135" lon="6.98471">
        <ele>1054.7</ele>
        <time>2022-10-05T10:35:40Z</time>
      </trkpt>
      <trkpt lat="48.03135" lon="6.9847">
        <ele>1054.22</ele>
        <time>2022-10-05T10:36:12Z</time>
      </trkpt>
      <trkpt lat="48.03136" lon="6.9847">
        <ele>1054.7</ele>
        <time>2022-10-05T10:36:38Z</time>
      </trkpt>
      <trkpt lat="48.03134" lon="6.98472">
        <ele>1055.18</ele>
        <time>2022-10-05T10:37:00Z</time>
      </trkpt>
      <trkpt lat="48.03133" lon="6.98473">
        <ele>1054.22</ele>
        <time>2022-10-05T10:37:32Z</time>
      </trkpt>
      <trkpt lat="48.03135" lon="6.98471">
        <ele>1053.26</ele>
        <time>2022-10-05T10:38:05Z</time>
      </trkpt>
      <trkpt lat="48.03134" lon="6.98471">
        <ele>1054.22</ele>
        <time>2022-10-05T10:38:39Z</time>
      </trkpt>
      <trkpt lat="48.03133" lon="6.98472">
        <ele>1054.22</ele>
        <time>2022-10-05T10:39:05Z</time>
      </trkpt>
      <trkpt lat="48.03134" lon="6.98472">
        <ele>1054.22</ele>
        <time>2022-10-05T10:39:35Z</time>
      </trkpt>
      <trkpt lat="48.03134" lon="6.98472">
        <ele>1053.74</ele>
        <time>2022-10-05T10:40:11Z</time>
      </trkpt>
      <trkpt lat="48.03137" lon="6.98471">
        <ele>1053.26</ele>
        <time>2022-10-05T10:40:44Z</time>
      </trkpt>
      <trkpt lat="48.03136" lon="6.98472">
        <ele>1052.78</ele>
        <time>2022-10-05T10:41:10Z</time>
      </trkpt>
      <trkpt lat="48.03136" lon="6.98472">
        <ele>1053.26</ele>
        <time>2022-10-05T10:41:40Z</time>
      </trkpt>
      <trkpt lat="48.03137" lon="6.9847">
        <ele>1053.26</ele>
        <time>2022-10-05T10:42:04Z</time>
      </trkpt>
      <trkpt lat="48.03136" lon="6.98472">
        <ele>1052.3</ele>
        <time>2022-10-05T10:42:20Z</time>
      </trkpt>
      <trkpt lat="48.03136" lon="6.98474">
        <ele>1052.78</ele>
        <time>2022-10-05T10:42:36Z</time>
      </trkpt>
      <trkpt lat="48.03135" lon="6.98471">
        <ele>1052.78</ele>
        <time>2022-10-05T10:43:09Z</time>
      </trkpt>
      <trkpt lat="48.03135" lon="6.98471">
        <ele>1052.3</ele>
        <time>2022-10-05T10:43:46Z</time>
      </trkpt>
      <trkpt lat="48.03134" lon="6.98471">
        <ele>1052.3</ele>
        <time>2022-10-05T10:44:31Z</time>
      </trkpt>
      <trkpt lat="48.03134" lon="6.98471">
        <ele>1052.3</ele>
        <time>2022-10-05T10:45:09Z</time>
      </trkpt>
      <trkpt lat="48.03134" lon="6.9847">
        <ele>1051.82</ele>
        <time>2022-10-05T10:45:40Z</time>
      </trkpt>
      <trkpt lat="48.03133" lon="6.98471">
        <ele>1052.78</ele>
        <time>2022-10-05T10:46:15Z</time>
      </trkpt>
      <trkpt lat="48.03133" lon="6.98471">
        <ele>1051.82</ele>
        <time>2022-10-05T10:46:40Z</time>
      </trkpt>
      <trkpt lat="48.03133" lon="6.98471">
        <ele>1052.3</ele>
        <time>2022-10-05T10:47:14Z</time>
      </trkpt>
      <trkpt lat="48.03133" lon="6.98471">
        <ele>1051.34</ele>
        <time>2022-10-05T10:47:48Z</time>
      </trkpt>
      <trkpt lat="48.03132" lon="6.9847">
        <ele>1051.34</ele>
        <time>2022-10-05T10:48:27Z</time>
      </trkpt>
      <trkpt lat="48.03132" lon="6.9847">
        <ele>1050.86</ele>
        <time>2022-10-05T10:49:00Z</time>
      </trkpt>
      <trkpt lat="48.03132" lon="6.9847">
        <ele>1050.86</ele>
        <time>2022-10-05T10:49:42Z</time>
      </trkpt>
      <trkpt lat="48.03132" lon="6.98471">
        <ele>1050.38</ele>
        <time>2022-10-05T10:50:22Z</time>
      </trkpt>
      <trkpt lat="48.03133" lon="6.98471">
        <ele>1050.86</ele>
        <time>2022-10-05T10:51:00Z</time>
      </trkpt>
      <trkpt lat="48.03133" lon="6.98471">
        <ele>1049.9</ele>
        <time>2022-10-05T10:51:38Z</time>
      </trkpt>
      <trkpt lat="48.03133" lon="6.9847">
        <ele>1050.38</ele>
        <time>2022-10-05T10:52:19Z</time>
      </trkpt>
      <trkpt lat="48.03133" lon="6.98471">
        <ele>1049.42</ele>
        <time>2022-10-05T10:52:48Z</time>
      </trkpt>
      <trkpt lat="48.03133" lon="6.98471">
        <ele>1049.42</ele>
        <time>2022-10-05T10:53:24Z</time>
      </trkpt>
      <trkpt lat="48.03133" lon="6.9847">
        <ele>1049.42</ele>
        <time>2022-10-05T10:54:08Z</time>
      </trkpt>
      <trkpt lat="48.03133" lon="6.98471">
        <ele>1049.42</ele>
        <time>2022-10-05T10:54:43Z</time>
      </trkpt>
      <trkpt lat="48.03133" lon="6.9847">
        <ele>1048.94</ele>
        <time>2022-10-05T10:55:23Z</time>
      </trkpt>
      <trkpt lat="48.03133" lon="6.9847">
        <ele>1048.94</ele>
        <time>2022-10-05T10:55:59Z</time>
      </trkpt>
      <trkpt lat="48.03133" lon="6.9847">
        <ele>1049.42</ele>
        <time>2022-10-05T10:56:33Z</time>
      </trkpt>
      <trkpt lat="48.03133" lon="6.98471">
        <ele>1049.42</ele>
        <time>2022-10-05T10:57:13Z</time>
      </trkpt>
      <trkpt lat="48.03133" lon="6.9847">
        <ele>1048.45</ele>
        <time>2022-10-05T10:57:52Z</time>
      </trkpt>
      <trkpt lat="48.03133" lon="6.98472">
        <ele>1048.94</ele>
        <time>2022-10-05T10:58:28Z</time>
      </trkpt>
      <trkpt lat="48.03133" lon="6.98473">
        <ele>1048.94</ele>
        <time>2022-10-05T10:59:03Z</time>
      </trkpt>
      <trkpt lat="48.03133" lon="6.98472">
        <ele>1049.42</ele>
        <time>2022-10-05T10:59:39Z</time>
      </trkpt>
      <trkpt lat="48.03133" lon="6.98472">
        <ele>1048.94</ele>
        <time>2022-10-05T11:00:19Z</time>
      </trkpt>
      <trkpt lat="48.03133" lon="6.98473">
        <ele>1048.94</ele>
        <time>2022-10-05T11:01:00Z</time>
      </trkpt>
      <trkpt lat="48.03132" lon="6.98473">
        <ele>1048.45</ele>
        <time>2022-10-05T11:01:43Z</time>
      </trkpt>
      <trkpt lat="48.03132" lon="6.98474">
        <ele>1048.94</ele>
        <time>2022-10-05T11:02:21Z</time>
      </trkpt>
      <trkpt lat="48.03132" lon="6.98472">
        <ele>1048.94</ele>
        <time>2022-10-05T11:02:52Z</time>
      </trkpt>
      <trkpt lat="48.03132" lon="6.98471">
        <ele>1048.45</ele>
        <time>2022-10-05T11:03:29Z</time>
      </trkpt>
      <trkpt lat="48.03132" lon="6.98472">
        <ele>1048.94</ele>
        <time>2022-10-05T11:04:06Z</time>
      </trkpt>
      <trkpt lat="48.03131" lon="6.98472">
        <ele>1049.42</ele>
        <time>2022-10-05T11:04:43Z</time>
      </trkpt>
      <trkpt lat="48.03132" lon="6.98473">
        <ele>1049.9</ele>
        <time>2022-10-05T11:05:18Z</time>
      </trkpt>
      <trkpt lat="48.03132" lon="6.98473">
        <ele>1049.42</ele>
        <time>2022-10-05T11:05:55Z</time>
      </trkpt>
      <trkpt lat="48.03132" lon="6.98472">
        <ele>1048.94</ele>
        <time>2022-10-05T11:06:34Z</time>
      </trkpt>
      <trkpt lat="48.03131" lon="6.98471">
        <ele>1048.94</ele>
        <time>2022-10-05T11:07:17Z</time>
      </trkpt>
      <trkpt lat="48.03131" lon="6.98471">
        <ele>1049.42</ele>
        <time>2022-10-05T11:07:55Z</time>
      </trkpt>
      <trkpt lat="48.03131" lon="6.98471">
        <ele>1048.94</ele>
        <time>2022-10-05T11:08:37Z</time>
      </trkpt>
      <trkpt lat="48.03132" lon="6.98472">
        <ele>1048.94</ele>
        <time>2022-10-05T11:09:11Z</time>
      </trkpt>
      <trkpt lat="48.03132" lon="6.98472">
        <ele>1048.94</ele>
        <time>2022-10-05T11:09:45Z</time>
      </trkpt>
      <trkpt lat="48.03132" lon="6.98472">
        <ele>1040.76</ele>
        <time>2022-10-05T11:09:50Z</time>
      </trkpt>
      <trkpt lat="48.03132" lon="6.98472">
        <ele>1047.97</ele>
        <time>2022-10-05T11:09:51Z</time>
      </trkpt>
      <trkpt lat="48.03133" lon="6.98469">
        <ele>1053.26</ele>
        <time>2022-10-05T11:09:56Z</time>
      </trkpt>
      <trkpt lat="48.03134" lon="6.98469">
        <ele>1047.97</ele>
        <time>2022-10-05T11:09:58Z</time>
      </trkpt>
      <trkpt lat="48.03134" lon="6.98468">
        <ele>1051.34</ele>
        <time>2022-10-05T11:10:00Z</time>
      </trkpt>
      <trkpt lat="48.03134" lon="6.98468">
        <ele>1049.42</ele>
        <time>2022-10-05T11:10:01Z</time>
      </trkpt>
      <trkpt lat="48.03131" lon="6.98471">
        <ele>1050.86</ele>
        <time>2022-10-05T11:10:22Z</time>
      </trkpt>
      <trkpt lat="48.03132" lon="6.98471">
        <ele>1049.42</ele>
        <time>2022-10-05T11:10:24Z</time>
      </trkpt>
      <trkpt lat="48.03133" lon="6.98472">
        <ele>1048.94</ele>
        <time>2022-10-05T11:10:44Z</time>
      </trkpt>
      <trkpt lat="48.03131" lon="6.98473">
        <ele>1050.38</ele>
        <time>2022-10-05T11:10:55Z</time>
      </trkpt>
      <trkpt lat="48.03132" lon="6.98472">
        <ele>1050.38</ele>
        <time>2022-10-05T11:11:10Z</time>
      </trkpt>
      <trkpt lat="48.03131" lon="6.98466">
        <ele>1050.38</ele>
        <time>2022-10-05T11:11:23Z</time>
      </trkpt>
      <trkpt lat="48.03131" lon="6.98464">
        <ele>1049.9</ele>
        <time>2022-10-05T11:11:35Z</time>
      </trkpt>
      <trkpt lat="48.03126" lon="6.98461">
        <ele>1049.9</ele>
        <time>2022-10-05T11:11:47Z</time>
      </trkpt>
      <trkpt lat="48.03116" lon="6.98459">
        <ele>1049.9</ele>
        <time>2022-10-05T11:12:00Z</time>
      </trkpt>
      <trkpt lat="48.03114" lon="6.98458">
        <ele>1049.9</ele>
        <time>2022-10-05T11:12:02Z</time>
      </trkpt>
      <trkpt lat="48.03105" lon="6.98452">
        <ele>1050.86</ele>
        <time>2022-10-05T11:12:16Z</time>
      </trkpt>
      <trkpt lat="48.03097" lon="6.98436">
        <ele>1049.9</ele>
        <time>2022-10-05T11:12:31Z</time>
      </trkpt>
      <trkpt lat="48.03095" lon="6.98432">
        <ele>1051.82</ele>
        <time>2022-10-05T11:12:34Z</time>
      </trkpt>
      <trkpt lat="48.03092" lon="6.98415">
        <ele>1049.42</ele>
        <time>2022-10-05T11:12:43Z</time>
      </trkpt>
      <trkpt lat="48.03091" lon="6.98406">
        <ele>1049.9</ele>
        <time>2022-10-05T11:12:55Z</time>
      </trkpt>
      <trkpt lat="48.03086" lon="6.98394">
        <ele>1049.42</ele>
        <time>2022-10-05T11:13:08Z</time>
      </trkpt>
      <trkpt lat="48.03088" lon="6.98389">
        <ele>1049.42</ele>
        <time>2022-10-05T11:13:24Z</time>
      </trkpt>
      <trkpt lat="48.03088" lon="6.98388">
        <ele>1050.38</ele>
        <time>2022-10-05T11:13:30Z</time>
      </trkpt>
      <trkpt lat="48.03078" lon="6.98381">
        <ele>1050.86</ele>
        <time>2022-10-05T11:13:40Z</time>
      </trkpt>
      <trkpt lat="48.03076" lon="6.98379">
        <ele>1050.86</ele>
        <time>2022-10-05T11:13:42Z</time>
      </trkpt>
      <trkpt lat="48.03067" lon="6.98363">
        <ele>1052.78</ele>
        <time>2022-10-05T11:13:58Z</time>
      </trkpt>
      <trkpt lat="48.03065" lon="6.98358">
        <ele>1054.22</ele>
        <time>2022-10-05T11:14:03Z</time>
      </trkpt>
      <trkpt lat="48.03065" lon="6.98349">
        <ele>1057.11</ele>
        <time>2022-10-05T11:14:13Z</time>
      </trkpt>
      <trkpt lat="48.03061" lon="6.9835">
        <ele>1058.07</ele>
        <time>2022-10-05T11:14:29Z</time>
      </trkpt>
      <trkpt lat="48.0306" lon="6.98339">
        <ele>1057.11</ele>
        <time>2022-10-05T11:14:42Z</time>
      </trkpt>
      <trkpt lat="48.03058" lon="6.98336">
        <ele>1055.67</ele>
        <time>2022-10-05T11:14:50Z</time>
      </trkpt>
      <trkpt lat="48.03055" lon="6.98332">
        <ele>1056.63</ele>
        <time>2022-10-05T11:14:53Z</time>
      </trkpt>
      <trkpt lat="48.03054" lon="6.98328">
        <ele>1055.18</ele>
        <time>2022-10-05T11:14:56Z</time>
      </trkpt>
      <trkpt lat="48.03057" lon="6.98312">
        <ele>1057.11</ele>
        <time>2022-10-05T11:15:11Z</time>
      </trkpt>
      <trkpt lat="48.0306" lon="6.983">
        <ele>1058.07</ele>
        <time>2022-10-05T11:15:23Z</time>
      </trkpt>
      <trkpt lat="48.03068" lon="6.98294">
        <ele>1058.55</ele>
        <time>2022-10-05T11:15:37Z</time>
      </trkpt>
      <trkpt lat="48.0307" lon="6.98289">
        <ele>1058.55</ele>
        <time>2022-10-05T11:15:53Z</time>
      </trkpt>
      <trkpt lat="48.03068" lon="6.98288">
        <ele>1060.47</ele>
        <time>2022-10-05T11:16:06Z</time>
      </trkpt>
      <trkpt lat="48.03059" lon="6.9829">
        <ele>1063.84</ele>
        <time>2022-10-05T11:16:16Z</time>
      </trkpt>
      <trkpt lat="48.03056" lon="6.98289">
        <ele>1063.84</ele>
        <time>2022-10-05T11:16:20Z</time>
      </trkpt>
      <trkpt lat="48.0305" lon="6.98278">
        <ele>1064.32</ele>
        <time>2022-10-05T11:16:32Z</time>
      </trkpt>
      <trkpt lat="48.03048" lon="6.98275">
        <ele>1067.68</ele>
        <time>2022-10-05T11:16:42Z</time>
      </trkpt>
      <trkpt lat="48.03042" lon="6.98277">
        <ele>1068.16</ele>
        <time>2022-10-05T11:16:59Z</time>
      </trkpt>
      <trkpt lat="48.0304" lon="6.98264">
        <ele>1070.08</ele>
        <time>2022-10-05T11:17:15Z</time>
      </trkpt>
      <trkpt lat="48.03047" lon="6.98253">
        <ele>1070.08</ele>
        <time>2022-10-05T11:17:25Z</time>
      </trkpt>
      <trkpt lat="48.03053" lon="6.9824">
        <ele>1071.05</ele>
        <time>2022-10-05T11:17:40Z</time>
      </trkpt>
      <trkpt lat="48.03056" lon="6.98234">
        <ele>1070.57</ele>
        <time>2022-10-05T11:17:55Z</time>
      </trkpt>
      <trkpt lat="48.03056" lon="6.98218">
        <ele>1072.01</ele>
        <time>2022-10-05T11:18:11Z</time>
      </trkpt>
      <trkpt lat="48.03052" lon="6.98214">
        <ele>1072.49</ele>
        <time>2022-10-05T11:18:14Z</time>
      </trkpt>
      <trkpt lat="48.0305" lon="6.98205">
        <ele>1070.57</ele>
        <time>2022-10-05T11:18:21Z</time>
      </trkpt>
      <trkpt lat="48.03046" lon="6.98191">
        <ele>1070.08</ele>
        <time>2022-10-05T11:18:34Z</time>
      </trkpt>
      <trkpt lat="48.03044" lon="6.98167">
        <ele>1072.01</ele>
        <time>2022-10-05T11:18:49Z</time>
      </trkpt>
      <trkpt lat="48.03045" lon="6.98154">
        <ele>1068.64</ele>
        <time>2022-10-05T11:19:03Z</time>
      </trkpt>
      <trkpt lat="48.03044" lon="6.98152">
        <ele>1071.53</ele>
        <time>2022-10-05T11:19:06Z</time>
      </trkpt>
      <trkpt lat="48.03038" lon="6.9813">
        <ele>1069.6</ele>
        <time>2022-10-05T11:19:23Z</time>
      </trkpt>
      <trkpt lat="48.03044" lon="6.98108">
        <ele>1068.64</ele>
        <time>2022-10-05T11:19:38Z</time>
      </trkpt>
      <trkpt lat="48.03047" lon="6.98096">
        <ele>1064.8</ele>
        <time>2022-10-05T11:19:53Z</time>
      </trkpt>
      <trkpt lat="48.03048" lon="6.98094">
        <ele>1065.28</ele>
        <time>2022-10-05T11:19:54Z</time>
      </trkpt>
      <trkpt lat="48.03059" lon="6.98079">
        <ele>1064.32</ele>
        <time>2022-10-05T11:20:08Z</time>
      </trkpt>
      <trkpt lat="48.03065" lon="6.98064">
        <ele>1065.76</ele>
        <time>2022-10-05T11:20:18Z</time>
      </trkpt>
      <trkpt lat="48.03072" lon="6.9805">
        <ele>1068.16</ele>
        <time>2022-10-05T11:20:35Z</time>
      </trkpt>
      <trkpt lat="48.03072" lon="6.98034">
        <ele>1070.08</ele>
        <time>2022-10-05T11:20:49Z</time>
      </trkpt>
      <trkpt lat="48.03085" lon="6.98005">
        <ele>1070.57</ele>
        <time>2022-10-05T11:21:02Z</time>
      </trkpt>
      <trkpt lat="48.03085" lon="6.98002">
        <ele>1072.01</ele>
        <time>2022-10-05T11:21:03Z</time>
      </trkpt>
      <trkpt lat="48.03084" lon="6.97997">
        <ele>1071.53</ele>
        <time>2022-10-05T11:21:06Z</time>
      </trkpt>
      <trkpt lat="48.03086" lon="6.97989">
        <ele>1071.53</ele>
        <time>2022-10-05T11:21:12Z</time>
      </trkpt>
      <trkpt lat="48.03087" lon="6.97982">
        <ele>1072.97</ele>
        <time>2022-10-05T11:21:17Z</time>
      </trkpt>
      <trkpt lat="48.0309" lon="6.97975">
        <ele>1071.05</ele>
        <time>2022-10-05T11:21:21Z</time>
      </trkpt>
      <trkpt lat="48.03091" lon="6.97972">
        <ele>1072.49</ele>
        <time>2022-10-05T11:21:23Z</time>
      </trkpt>
      <trkpt lat="48.03096" lon="6.97957">
        <ele>1073.93</ele>
        <time>2022-10-05T11:21:38Z</time>
      </trkpt>
      <trkpt lat="48.03094" lon="6.97953">
        <ele>1072.49</ele>
        <time>2022-10-05T11:21:41Z</time>
      </trkpt>
      <trkpt lat="48.03097" lon="6.97944">
        <ele>1074.41</ele>
        <time>2022-10-05T11:21:54Z</time>
      </trkpt>
      <trkpt lat="48.031" lon="6.97933">
        <ele>1075.85</ele>
        <time>2022-10-05T11:22:11Z</time>
      </trkpt>
      <trkpt lat="48.03105" lon="6.97921">
        <ele>1077.78</ele>
        <time>2022-10-05T11:22:28Z</time>
      </trkpt>
      <trkpt lat="48.03104" lon="6.97906">
        <ele>1078.74</ele>
        <time>2022-10-05T11:22:41Z</time>
      </trkpt>
      <trkpt lat="48.03109" lon="6.979">
        <ele>1081.14</ele>
        <time>2022-10-05T11:22:50Z</time>
      </trkpt>
      <trkpt lat="48.03116" lon="6.97895">
        <ele>1081.62</ele>
        <time>2022-10-05T11:23:04Z</time>
      </trkpt>
      <trkpt lat="48.03115" lon="6.97897">
        <ele>1083.54</ele>
        <time>2022-10-05T11:23:18Z</time>
      </trkpt>
      <trkpt lat="48.03111" lon="6.979">
        <ele>1084.5</ele>
        <time>2022-10-05T11:23:31Z</time>
      </trkpt>
      <trkpt lat="48.03103" lon="6.97904">
        <ele>1086.43</ele>
        <time>2022-10-05T11:23:43Z</time>
      </trkpt>
      <trkpt lat="48.031" lon="6.97904">
        <ele>1086.43</ele>
        <time>2022-10-05T11:23:45Z</time>
      </trkpt>
      <trkpt lat="48.03085" lon="6.97906">
        <ele>1088.83</ele>
        <time>2022-10-05T11:24:03Z</time>
      </trkpt>
      <trkpt lat="48.0308" lon="6.97912">
        <ele>1090.27</ele>
        <time>2022-10-05T11:24:19Z</time>
      </trkpt>
      <trkpt lat="48.03081" lon="6.97929">
        <ele>1091.71</ele>
        <time>2022-10-05T11:24:32Z</time>
      </trkpt>
      <trkpt lat="48.03081" lon="6.97939">
        <ele>1091.71</ele>
        <time>2022-10-05T11:24:42Z</time>
      </trkpt>
      <trkpt lat="48.03076" lon="6.97941">
        <ele>1093.64</ele>
        <time>2022-10-05T11:24:46Z</time>
      </trkpt>
      <trkpt lat="48.03064" lon="6.97957">
        <ele>1094.6</ele>
        <time>2022-10-05T11:25:00Z</time>
      </trkpt>
      <trkpt lat="48.03052" lon="6.97979">
        <ele>1096.52</ele>
        <time>2022-10-05T11:25:17Z</time>
      </trkpt>
      <trkpt lat="48.03041" lon="6.97989">
        <ele>1098.92</ele>
        <time>2022-10-05T11:25:32Z</time>
      </trkpt>
      <trkpt lat="48.03032" lon="6.97996">
        <ele>1101.81</ele>
        <time>2022-10-05T11:25:43Z</time>
      </trkpt>
      <trkpt lat="48.03024" lon="6.98003">
        <ele>1104.69</ele>
        <time>2022-10-05T11:25:53Z</time>
      </trkpt>
      <trkpt lat="48.03022" lon="6.98009">
        <ele>1102.77</ele>
        <time>2022-10-05T11:25:57Z</time>
      </trkpt>
      <trkpt lat="48.0302" lon="6.98022">
        <ele>1101.81</ele>
        <time>2022-10-05T11:26:05Z</time>
      </trkpt>
      <trkpt lat="48.03019" lon="6.98028">
        <ele>1102.29</ele>
        <time>2022-10-05T11:26:09Z</time>
      </trkpt>
      <trkpt lat="48.03012" lon="6.98044">
        <ele>1103.73</ele>
        <time>2022-10-05T11:26:18Z</time>
      </trkpt>
      <trkpt lat="48.03007" lon="6.98051">
        <ele>1102.29</ele>
        <time>2022-10-05T11:26:24Z</time>
      </trkpt>
      <trkpt lat="48.03005" lon="6.98057">
        <ele>1102.29</ele>
        <time>2022-10-05T11:26:29Z</time>
      </trkpt>
      <trkpt lat="48.03003" lon="6.98065">
        <ele>1102.77</ele>
        <time>2022-10-05T11:26:33Z</time>
      </trkpt>
      <trkpt lat="48.03002" lon="6.98068">
        <ele>1101.81</ele>
        <time>2022-10-05T11:26:34Z</time>
      </trkpt>
      <trkpt lat="48.02999" lon="6.98074">
        <ele>1103.25</ele>
        <time>2022-10-05T11:26:37Z</time>
      </trkpt>
      <trkpt lat="48.02998" lon="6.98098">
        <ele>1102.77</ele>
        <time>2022-10-05T11:26:49Z</time>
      </trkpt>
      <trkpt lat="48.02999" lon="6.98118">
        <ele>1101.81</ele>
        <time>2022-10-05T11:26:58Z</time>
      </trkpt>
      <trkpt lat="48.02998" lon="6.98124">
        <ele>1103.73</ele>
        <time>2022-10-05T11:27:01Z</time>
      </trkpt>
      <trkpt lat="48.02998" lon="6.98131">
        <ele>1103.25</ele>
        <time>2022-10-05T11:27:04Z</time>
      </trkpt>
      <trkpt lat="48.02997" lon="6.98135">
        <ele>1102.77</ele>
        <time>2022-10-05T11:27:07Z</time>
      </trkpt>
      <trkpt lat="48.02991" lon="6.98145">
        <ele>1104.21</ele>
        <time>2022-10-05T11:27:13Z</time>
      </trkpt>
      <trkpt lat="48.02981" lon="6.98159">
        <ele>1105.17</ele>
        <time>2022-10-05T11:27:24Z</time>
      </trkpt>
      <trkpt lat="48.0298" lon="6.98167">
        <ele>1103.73</ele>
        <time>2022-10-05T11:27:27Z</time>
      </trkpt>
      <trkpt lat="48.0298" lon="6.98172">
        <ele>1105.65</ele>
        <time>2022-10-05T11:27:29Z</time>
      </trkpt>
      <trkpt lat="48.02979" lon="6.98173">
        <ele>1103.73</ele>
        <time>2022-10-05T11:27:30Z</time>
      </trkpt>
      <trkpt lat="48.02979" lon="6.9818">
        <ele>1105.65</ele>
        <time>2022-10-05T11:27:33Z</time>
      </trkpt>
      <trkpt lat="48.0297" lon="6.98197">
        <ele>1105.17</ele>
        <time>2022-10-05T11:27:44Z</time>
      </trkpt>
      <trkpt lat="48.02969" lon="6.98198">
        <ele>1106.61</ele>
        <time>2022-10-05T11:27:45Z</time>
      </trkpt>
      <trkpt lat="48.02968" lon="6.98202">
        <ele>1104.69</ele>
        <time>2022-10-05T11:27:47Z</time>
      </trkpt>
      <trkpt lat="48.02967" lon="6.98203">
        <ele>1104.69</ele>
        <time>2022-10-05T11:27:48Z</time>
      </trkpt>
      <trkpt lat="48.02965" lon="6.9821">
        <ele>1105.65</ele>
        <time>2022-10-05T11:27:52Z</time>
      </trkpt>
      <trkpt lat="48.02959" lon="6.98217">
        <ele>1107.1</ele>
        <time>2022-10-05T11:27:58Z</time>
      </trkpt>
      <trkpt lat="48.02957" lon="6.98221">
        <ele>1106.13</ele>
        <time>2022-10-05T11:28:00Z</time>
      </trkpt>
      <trkpt lat="48.02954" lon="6.9823">
        <ele>1108.54</ele>
        <time>2022-10-05T11:28:07Z</time>
      </trkpt>
      <trkpt lat="48.02952" lon="6.98245">
        <ele>1109.02</ele>
        <time>2022-10-05T11:28:16Z</time>
      </trkpt>
      <trkpt lat="48.02956" lon="6.98259">
        <ele>1109.5</ele>
        <time>2022-10-05T11:28:22Z</time>
      </trkpt>
      <trkpt lat="48.02954" lon="6.9827">
        <ele>1111.42</ele>
        <time>2022-10-05T11:28:28Z</time>
      </trkpt>
      <trkpt lat="48.02946" lon="6.98286">
        <ele>1110.94</ele>
        <time>2022-10-05T11:28:40Z</time>
      </trkpt>
      <trkpt lat="48.02938" lon="6.98305">
        <ele>1112.38</ele>
        <time>2022-10-05T11:28:53Z</time>
      </trkpt>
      <trkpt lat="48.02938" lon="6.98307">
        <ele>1113.82</ele>
        <time>2022-10-05T11:28:54Z</time>
      </trkpt>
      <trkpt lat="48.0294" lon="6.98318">
        <ele>1113.82</ele>
        <time>2022-10-05T11:28:59Z</time>
      </trkpt>
      <trkpt lat="48.02939" lon="6.9832">
        <ele>1112.86</ele>
        <time>2022-10-05T11:29:00Z</time>
      </trkpt>
      <trkpt lat="48.02936" lon="6.98345">
        <ele>1115.75</ele>
        <time>2022-10-05T11:29:14Z</time>
      </trkpt>
      <trkpt lat="48.02929" lon="6.98357">
        <ele>1115.75</ele>
        <time>2022-10-05T11:29:26Z</time>
      </trkpt>
      <trkpt lat="48.02924" lon="6.98357">
        <ele>1116.71</ele>
        <time>2022-10-05T11:29:41Z</time>
      </trkpt>
      <trkpt lat="48.02919" lon="6.98359">
        <ele>1117.67</ele>
        <time>2022-10-05T11:29:48Z</time>
      </trkpt>
      <trkpt lat="48.02915" lon="6.98365">
        <ele>1117.19</ele>
        <time>2022-10-05T11:30:00Z</time>
      </trkpt>
      <trkpt lat="48.02912" lon="6.98368">
        <ele>1117.19</ele>
        <time>2022-10-05T11:30:04Z</time>
      </trkpt>
      <trkpt lat="48.0291" lon="6.98378">
        <ele>1117.19</ele>
        <time>2022-10-05T11:30:17Z</time>
      </trkpt>
      <trkpt lat="48.0291" lon="6.98396">
        <ele>1116.23</ele>
        <time>2022-10-05T11:30:31Z</time>
      </trkpt>
      <trkpt lat="48.02909" lon="6.98407">
        <ele>1116.23</ele>
        <time>2022-10-05T11:30:40Z</time>
      </trkpt>
      <trkpt lat="48.02907" lon="6.98413">
        <ele>1117.19</ele>
        <time>2022-10-05T11:30:43Z</time>
      </trkpt>
      <trkpt lat="48.02906" lon="6.9842">
        <ele>1116.23</ele>
        <time>2022-10-05T11:30:47Z</time>
      </trkpt>
      <trkpt lat="48.02905" lon="6.98432">
        <ele>1114.79</ele>
        <time>2022-10-05T11:30:53Z</time>
      </trkpt>
      <trkpt lat="48.0289" lon="6.98455">
        <ele>1114.79</ele>
        <time>2022-10-05T11:31:10Z</time>
      </trkpt>
      <trkpt lat="48.02888" lon="6.98466">
        <ele>1113.82</ele>
        <time>2022-10-05T11:31:18Z</time>
      </trkpt>
      <trkpt lat="48.02888" lon="6.98468">
        <ele>1114.31</ele>
        <time>2022-10-05T11:31:19Z</time>
      </trkpt>
      <trkpt lat="48.02887" lon="6.9848">
        <ele>1112.38</ele>
        <time>2022-10-05T11:31:28Z</time>
      </trkpt>
      <trkpt lat="48.02884" lon="6.98492">
        <ele>1112.38</ele>
        <time>2022-10-05T11:31:36Z</time>
      </trkpt>
      <trkpt lat="48.02877" lon="6.98513">
        <ele>1114.31</ele>
        <time>2022-10-05T11:31:47Z</time>
      </trkpt>
      <trkpt lat="48.02875" lon="6.98526">
        <ele>1113.82</ele>
        <time>2022-10-05T11:31:54Z</time>
      </trkpt>
      <trkpt lat="48.02871" lon="6.98535">
        <ele>1113.34</ele>
        <time>2022-10-05T11:32:02Z</time>
      </trkpt>
      <trkpt lat="48.0287" lon="6.98546">
        <ele>1112.86</ele>
        <time>2022-10-05T11:32:08Z</time>
      </trkpt>
      <trkpt lat="48.02869" lon="6.98549">
        <ele>1113.82</ele>
        <time>2022-10-05T11:32:10Z</time>
      </trkpt>
      <trkpt lat="48.02869" lon="6.98562">
        <ele>1114.31</ele>
        <time>2022-10-05T11:32:21Z</time>
      </trkpt>
      <trkpt lat="48.02868" lon="6.98563">
        <ele>1114.31</ele>
        <time>2022-10-05T11:32:22Z</time>
      </trkpt>
      <trkpt lat="48.0286" lon="6.98579">
        <ele>1113.34</ele>
        <time>2022-10-05T11:32:35Z</time>
      </trkpt>
      <trkpt lat="48.0286" lon="6.98583">
        <ele>1113.82</ele>
        <time>2022-10-05T11:32:50Z</time>
      </trkpt>
      <trkpt lat="48.02854" lon="6.98595">
        <ele>1112.86</ele>
        <time>2022-10-05T11:33:06Z</time>
      </trkpt>
      <trkpt lat="48.02847" lon="6.98601">
        <ele>1112.86</ele>
        <time>2022-10-05T11:33:22Z</time>
      </trkpt>
      <trkpt lat="48.0284" lon="6.98602">
        <ele>1113.82</ele>
        <time>2022-10-05T11:33:33Z</time>
      </trkpt>
      <trkpt lat="48.02838" lon="6.98607">
        <ele>1113.82</ele>
        <time>2022-10-05T11:33:37Z</time>
      </trkpt>
      <trkpt lat="48.02832" lon="6.98612">
        <ele>1112.86</ele>
        <time>2022-10-05T11:33:48Z</time>
      </trkpt>
      <trkpt lat="48.02812" lon="6.98618">
        <ele>1112.86</ele>
        <time>2022-10-05T11:34:03Z</time>
      </trkpt>
      <trkpt lat="48.02806" lon="6.98631">
        <ele>1112.38</ele>
        <time>2022-10-05T11:34:10Z</time>
      </trkpt>
      <trkpt lat="48.02779" lon="6.98633">
        <ele>1112.86</ele>
        <time>2022-10-05T11:34:23Z</time>
      </trkpt>
      <trkpt lat="48.02778" lon="6.98634">
        <ele>1111.9</ele>
        <time>2022-10-05T11:34:24Z</time>
      </trkpt>
      <trkpt lat="48.02768" lon="6.98638">
        <ele>1113.34</ele>
        <time>2022-10-05T11:34:34Z</time>
      </trkpt>
      <trkpt lat="48.02763" lon="6.98639">
        <ele>1112.86</ele>
        <time>2022-10-05T11:34:40Z</time>
      </trkpt>
      <trkpt lat="48.02759" lon="6.98638">
        <ele>1111.9</ele>
        <time>2022-10-05T11:34:44Z</time>
      </trkpt>
      <trkpt lat="48.02747" lon="6.98634">
        <ele>1111.9</ele>
        <time>2022-10-05T11:34:56Z</time>
      </trkpt>
      <trkpt lat="48.02733" lon="6.98626">
        <ele>1111.42</ele>
        <time>2022-10-05T11:35:09Z</time>
      </trkpt>
      <trkpt lat="48.0272" lon="6.98617">
        <ele>1111.42</ele>
        <time>2022-10-05T11:35:23Z</time>
      </trkpt>
      <trkpt lat="48.02715" lon="6.98615">
        <ele>1110.94</ele>
        <time>2022-10-05T11:35:29Z</time>
      </trkpt>
      <trkpt lat="48.02705" lon="6.98615">
        <ele>1111.42</ele>
        <time>2022-10-05T11:35:44Z</time>
      </trkpt>
      <trkpt lat="48.02688" lon="6.98606">
        <ele>1111.9</ele>
        <time>2022-10-05T11:35:58Z</time>
      </trkpt>
      <trkpt lat="48.02685" lon="6.98604">
        <ele>1110.46</ele>
        <time>2022-10-05T11:36:00Z</time>
      </trkpt>
      <trkpt lat="48.02683" lon="6.98603">
        <ele>1110.94</ele>
        <time>2022-10-05T11:36:01Z</time>
      </trkpt>
      <trkpt lat="48.02674" lon="6.98596">
        <ele>1110.46</ele>
        <time>2022-10-05T11:36:17Z</time>
      </trkpt>
      <trkpt lat="48.02672" lon="6.98592">
        <ele>1110.94</ele>
        <time>2022-10-05T11:36:25Z</time>
      </trkpt>
      <trkpt lat="48.0267" lon="6.98588">
        <ele>1110.94</ele>
        <time>2022-10-05T11:36:27Z</time>
      </trkpt>
      <trkpt lat="48.02664" lon="6.98588">
        <ele>1112.38</ele>
        <time>2022-10-05T11:36:29Z</time>
      </trkpt>
      <trkpt lat="48.02659" lon="6.98584">
        <ele>1110.46</ele>
        <time>2022-10-05T11:36:32Z</time>
      </trkpt>
      <trkpt lat="48.02651" lon="6.98576">
        <ele>1111.42</ele>
        <time>2022-10-05T11:36:38Z</time>
      </trkpt>
      <trkpt lat="48.02639" lon="6.98563">
        <ele>1109.98</ele>
        <time>2022-10-05T11:36:47Z</time>
      </trkpt>
      <trkpt lat="48.02633" lon="6.98554">
        <ele>1108.06</ele>
        <time>2022-10-05T11:36:51Z</time>
      </trkpt>
      <trkpt lat="48.02631" lon="6.98548">
        <ele>1110.46</ele>
        <time>2022-10-05T11:36:54Z</time>
      </trkpt>
      <trkpt lat="48.02631" lon="6.98547">
        <ele>1109.5</ele>
        <time>2022-10-05T11:36:55Z</time>
      </trkpt>
      <trkpt lat="48.02624" lon="6.98539">
        <ele>1110.94</ele>
        <time>2022-10-05T11:37:00Z</time>
      </trkpt>
      <trkpt lat="48.0262" lon="6.98538">
        <ele>1109.02</ele>
        <time>2022-10-05T11:37:05Z</time>
      </trkpt>
      <trkpt lat="48.02617" lon="6.98534">
        <ele>1111.42</ele>
        <time>2022-10-05T11:37:08Z</time>
      </trkpt>
      <trkpt lat="48.02611" lon="6.9853">
        <ele>1109.5</ele>
        <time>2022-10-05T11:37:12Z</time>
      </trkpt>
      <trkpt lat="48.02592" lon="6.98523">
        <ele>1110.94</ele>
        <time>2022-10-05T11:37:23Z</time>
      </trkpt>
      <trkpt lat="48.02571" lon="6.98496">
        <ele>1110.46</ele>
        <time>2022-10-05T11:37:35Z</time>
      </trkpt>
      <trkpt lat="48.02569" lon="6.98487">
        <ele>1110.94</ele>
        <time>2022-10-05T11:37:40Z</time>
      </trkpt>
      <trkpt lat="48.02561" lon="6.98471">
        <ele>1111.9</ele>
        <time>2022-10-05T11:37:49Z</time>
      </trkpt>
      <trkpt lat="48.02548" lon="6.98456">
        <ele>1110.46</ele>
        <time>2022-10-05T11:38:02Z</time>
      </trkpt>
      <trkpt lat="48.0254" lon="6.98448">
        <ele>1111.42</ele>
        <time>2022-10-05T11:38:09Z</time>
      </trkpt>
      <trkpt lat="48.02538" lon="6.98446">
        <ele>1109.98</ele>
        <time>2022-10-05T11:38:11Z</time>
      </trkpt>
      <trkpt lat="48.02537" lon="6.98444">
        <ele>1111.42</ele>
        <time>2022-10-05T11:38:13Z</time>
      </trkpt>
      <trkpt lat="48.02533" lon="6.98433">
        <ele>1111.42</ele>
        <time>2022-10-05T11:38:19Z</time>
      </trkpt>
      <trkpt lat="48.02532" lon="6.98429">
        <ele>1110.46</ele>
        <time>2022-10-05T11:38:21Z</time>
      </trkpt>
      <trkpt lat="48.02529" lon="6.98425">
        <ele>1110.94</ele>
        <time>2022-10-05T11:38:26Z</time>
      </trkpt>
      <trkpt lat="48.02518" lon="6.98409">
        <ele>1110.46</ele>
        <time>2022-10-05T11:38:38Z</time>
      </trkpt>
      <trkpt lat="48.02515" lon="6.98408">
        <ele>1111.9</ele>
        <time>2022-10-05T11:38:40Z</time>
      </trkpt>
      <trkpt lat="48.02507" lon="6.98405">
        <ele>1110.94</ele>
        <time>2022-10-05T11:38:46Z</time>
      </trkpt>
      <trkpt lat="48.02494" lon="6.984">
        <ele>1110.94</ele>
        <time>2022-10-05T11:38:55Z</time>
      </trkpt>
      <trkpt lat="48.02488" lon="6.98398">
        <ele>1109.02</ele>
        <time>2022-10-05T11:39:00Z</time>
      </trkpt>
      <trkpt lat="48.02483" lon="6.98401">
        <ele>1109.5</ele>
        <time>2022-10-05T11:39:04Z</time>
      </trkpt>
      <trkpt lat="48.02479" lon="6.98401">
        <ele>1108.54</ele>
        <time>2022-10-05T11:39:10Z</time>
      </trkpt>
      <trkpt lat="48.0248" lon="6.984">
        <ele>1108.06</ele>
        <time>2022-10-05T11:39:15Z</time>
      </trkpt>
      <trkpt lat="48.02481" lon="6.98402">
        <ele>1108.54</ele>
        <time>2022-10-05T11:39:18Z</time>
      </trkpt>
      <trkpt lat="48.02482" lon="6.98406">
        <ele>1106.61</ele>
        <time>2022-10-05T11:39:23Z</time>
      </trkpt>
      <trkpt lat="48.02482" lon="6.98407">
        <ele>1108.54</ele>
        <time>2022-10-05T11:39:25Z</time>
      </trkpt>
      <trkpt lat="48.02482" lon="6.98408">
        <ele>1108.54</ele>
        <time>2022-10-05T11:39:27Z</time>
      </trkpt>
      <trkpt lat="48.02479" lon="6.98415">
        <ele>1108.54</ele>
        <time>2022-10-05T11:39:33Z</time>
      </trkpt>
      <trkpt lat="48.02479" lon="6.98416">
        <ele>1107.58</ele>
        <time>2022-10-05T11:39:34Z</time>
      </trkpt>
      <trkpt lat="48.02479" lon="6.98417">
        <ele>1107.1</ele>
        <time>2022-10-05T11:39:36Z</time>
      </trkpt>
      <trkpt lat="48.02475" lon="6.98425">
        <ele>1106.61</ele>
        <time>2022-10-05T11:39:43Z</time>
      </trkpt>
      <trkpt lat="48.02474" lon="6.98432">
        <ele>1105.65</ele>
        <time>2022-10-05T11:39:47Z</time>
      </trkpt>
      <trkpt lat="48.02472" lon="6.98446">
        <ele>1104.21</ele>
        <time>2022-10-05T11:39:54Z</time>
      </trkpt>
      <trkpt lat="48.02472" lon="6.98447">
        <ele>1105.17</ele>
        <time>2022-10-05T11:39:55Z</time>
      </trkpt>
      <trkpt lat="48.02468" lon="6.98457">
        <ele>1103.73</ele>
        <time>2022-10-05T11:40:01Z</time>
      </trkpt>
      <trkpt lat="48.02461" lon="6.98479">
        <ele>1105.17</ele>
        <time>2022-10-05T11:40:11Z</time>
      </trkpt>
      <trkpt lat="48.02453" lon="6.98487">
        <ele>1103.25</ele>
        <time>2022-10-05T11:40:20Z</time>
      </trkpt>
      <trkpt lat="48.02449" lon="6.9849">
        <ele>1104.21</ele>
        <time>2022-10-05T11:40:23Z</time>
      </trkpt>
      <trkpt lat="48.02447" lon="6.98492">
        <ele>1102.77</ele>
        <time>2022-10-05T11:40:26Z</time>
      </trkpt>
      <trkpt lat="48.02443" lon="6.98496">
        <ele>1103.25</ele>
        <time>2022-10-05T11:40:29Z</time>
      </trkpt>
      <trkpt lat="48.02439" lon="6.98498">
        <ele>1101.33</ele>
        <time>2022-10-05T11:40:31Z</time>
      </trkpt>
      <trkpt lat="48.02434" lon="6.98501">
        <ele>1103.73</ele>
        <time>2022-10-05T11:40:34Z</time>
      </trkpt>
      <trkpt lat="48.0243" lon="6.98502">
        <ele>1101.33</ele>
        <time>2022-10-05T11:40:37Z</time>
      </trkpt>
      <trkpt lat="48.02428" lon="6.98504">
        <ele>1102.77</ele>
        <time>2022-10-05T11:40:40Z</time>
      </trkpt>
      <trkpt lat="48.02425" lon="6.98504">
        <ele>1099.89</ele>
        <time>2022-10-05T11:40:42Z</time>
      </trkpt>
      <trkpt lat="48.02421" lon="6.98505">
        <ele>1097.96</ele>
        <time>2022-10-05T11:40:45Z</time>
      </trkpt>
      <trkpt lat="48.02419" lon="6.98506">
        <ele>1099.4</ele>
        <time>2022-10-05T11:40:47Z</time>
      </trkpt>
      <trkpt lat="48.02412" lon="6.98507">
        <ele>1097.48</ele>
        <time>2022-10-05T11:41:01Z</time>
      </trkpt>
      <trkpt lat="48.02403" lon="6.98511">
        <ele>1100.85</ele>
        <time>2022-10-05T11:41:11Z</time>
      </trkpt>
      <trkpt lat="48.02391" lon="6.98518">
        <ele>1101.33</ele>
        <time>2022-10-05T11:41:27Z</time>
      </trkpt>
      <trkpt lat="48.02385" lon="6.98522">
        <ele>1100.85</ele>
        <time>2022-10-05T11:41:32Z</time>
      </trkpt>
      <trkpt lat="48.02384" lon="6.98523">
        <ele>1102.29</ele>
        <time>2022-10-05T11:41:33Z</time>
      </trkpt>
      <trkpt lat="48.02384" lon="6.98523">
        <ele>1102.77</ele>
        <time>2022-10-05T11:41:37Z</time>
      </trkpt>
      <trkpt lat="48.0238" lon="6.98525">
        <ele>1102.29</ele>
        <time>2022-10-05T11:41:42Z</time>
      </trkpt>
      <trkpt lat="48.02379" lon="6.98525">
        <ele>1103.73</ele>
        <time>2022-10-05T11:41:43Z</time>
      </trkpt>
      <trkpt lat="48.02376" lon="6.98525">
        <ele>1104.69</ele>
        <time>2022-10-05T11:41:47Z</time>
      </trkpt>
      <trkpt lat="48.02375" lon="6.98525">
        <ele>1103.25</ele>
        <time>2022-10-05T11:41:48Z</time>
      </trkpt>
      <trkpt lat="48.02369" lon="6.98529">
        <ele>1104.69</ele>
        <time>2022-10-05T11:42:03Z</time>
      </trkpt>
      <trkpt lat="48.02367" lon="6.98529">
        <ele>1105.65</ele>
        <time>2022-10-05T11:42:04Z</time>
      </trkpt>
      <trkpt lat="48.02366" lon="6.98529">
        <ele>1104.69</ele>
        <time>2022-10-05T11:42:05Z</time>
      </trkpt>
      <trkpt lat="48.02359" lon="6.98525">
        <ele>1106.13</ele>
        <time>2022-10-05T11:42:09Z</time>
      </trkpt>
      <trkpt lat="48.02354" lon="6.98524">
        <ele>1107.58</ele>
        <time>2022-10-05T11:42:15Z</time>
      </trkpt>
      <trkpt lat="48.02354" lon="6.98525">
        <ele>1105.65</ele>
        <time>2022-10-05T11:42:16Z</time>
      </trkpt>
      <trkpt lat="48.02351" lon="6.98527">
        <ele>1107.58</ele>
        <time>2022-10-05T11:42:20Z</time>
      </trkpt>
      <trkpt lat="48.02344" lon="6.98526">
        <ele>1108.54</ele>
        <time>2022-10-05T11:42:26Z</time>
      </trkpt>
      <trkpt lat="48.02323" lon="6.9852">
        <ele>1109.02</ele>
        <time>2022-10-05T11:42:31Z</time>
      </trkpt>
      <trkpt lat="48.02298" lon="6.98523">
        <ele>1110.94</ele>
        <time>2022-10-05T11:42:49Z</time>
      </trkpt>
      <trkpt lat="48.02294" lon="6.98524">
        <ele>1110.94</ele>
        <time>2022-10-05T11:43:05Z</time>
      </trkpt>
      <trkpt lat="48.02288" lon="6.98524">
        <ele>1114.79</ele>
        <time>2022-10-05T11:43:17Z</time>
      </trkpt>
      <trkpt lat="48.0228" lon="6.98519">
        <ele>1114.31</ele>
        <time>2022-10-05T11:43:26Z</time>
      </trkpt>
      <trkpt lat="48.0226" lon="6.98514">
        <ele>1115.27</ele>
        <time>2022-10-05T11:43:43Z</time>
      </trkpt>
      <trkpt lat="48.02249" lon="6.9851">
        <ele>1118.15</ele>
        <time>2022-10-05T11:43:55Z</time>
      </trkpt>
      <trkpt lat="48.02244" lon="6.98503">
        <ele>1117.67</ele>
        <time>2022-10-05T11:44:04Z</time>
      </trkpt>
      <trkpt lat="48.02234" lon="6.98504">
        <ele>1120.07</ele>
        <time>2022-10-05T11:44:19Z</time>
      </trkpt>
      <trkpt lat="48.02221" lon="6.985">
        <ele>1120.55</ele>
        <time>2022-10-05T11:44:33Z</time>
      </trkpt>
      <trkpt lat="48.02216" lon="6.98496">
        <ele>1122.48</ele>
        <time>2022-10-05T11:44:41Z</time>
      </trkpt>
      <trkpt lat="48.02212" lon="6.98495">
        <ele>1122.96</ele>
        <time>2022-10-05T11:44:47Z</time>
      </trkpt>
      <trkpt lat="48.02205" lon="6.98489">
        <ele>1124.4</ele>
        <time>2022-10-05T11:44:55Z</time>
      </trkpt>
      <trkpt lat="48.02199" lon="6.98487">
        <ele>1124.88</ele>
        <time>2022-10-05T11:45:11Z</time>
      </trkpt>
      <trkpt lat="48.02198" lon="6.98488">
        <ele>1126.8</ele>
        <time>2022-10-05T11:45:16Z</time>
      </trkpt>
      <trkpt lat="48.02194" lon="6.98483">
        <ele>1128.24</ele>
        <time>2022-10-05T11:45:27Z</time>
      </trkpt>
      <trkpt lat="48.02179" lon="6.98478">
        <ele>1128.73</ele>
        <time>2022-10-05T11:45:43Z</time>
      </trkpt>
      <trkpt lat="48.02171" lon="6.98475">
        <ele>1129.21</ele>
        <time>2022-10-05T11:45:58Z</time>
      </trkpt>
      <trkpt lat="48.02154" lon="6.98475">
        <ele>1132.09</ele>
        <time>2022-10-05T11:46:11Z</time>
      </trkpt>
      <trkpt lat="48.02142" lon="6.98474">
        <ele>1133.53</ele>
        <time>2022-10-05T11:46:29Z</time>
      </trkpt>
      <trkpt lat="48.02141" lon="6.98475">
        <ele>1134.49</ele>
        <time>2022-10-05T11:46:32Z</time>
      </trkpt>
      <trkpt lat="48.02123" lon="6.98475">
        <ele>1136.42</ele>
        <time>2022-10-05T11:46:48Z</time>
      </trkpt>
      <trkpt lat="48.02106" lon="6.98479">
        <ele>1136.9</ele>
        <time>2022-10-05T11:47:03Z</time>
      </trkpt>
      <trkpt lat="48.02095" lon="6.98479">
        <ele>1137.38</ele>
        <time>2022-10-05T11:47:16Z</time>
      </trkpt>
      <trkpt lat="48.02076" lon="6.98484">
        <ele>1141.22</ele>
        <time>2022-10-05T11:47:30Z</time>
      </trkpt>
      <trkpt lat="48.02067" lon="6.98488">
        <ele>1141.7</ele>
        <time>2022-10-05T11:47:45Z</time>
      </trkpt>
      <trkpt lat="48.02057" lon="6.98487">
        <ele>1144.11</ele>
        <time>2022-10-05T11:48:00Z</time>
      </trkpt>
      <trkpt lat="48.02047" lon="6.98483">
        <ele>1144.11</ele>
        <time>2022-10-05T11:48:12Z</time>
      </trkpt>
      <trkpt lat="48.02036" lon="6.98475">
        <ele>1145.55</ele>
        <time>2022-10-05T11:48:29Z</time>
      </trkpt>
      <trkpt lat="48.02032" lon="6.98473">
        <ele>1147.47</ele>
        <time>2022-10-05T11:48:41Z</time>
      </trkpt>
      <trkpt lat="48.02023" lon="6.98471">
        <ele>1149.87</ele>
        <time>2022-10-05T11:48:46Z</time>
      </trkpt>
      <trkpt lat="48.02003" lon="6.98475">
        <ele>1152.28</ele>
        <time>2022-10-05T11:49:03Z</time>
      </trkpt>
      <trkpt lat="48.01995" lon="6.98478">
        <ele>1153.72</ele>
        <time>2022-10-05T11:49:16Z</time>
      </trkpt>
      <trkpt lat="48.0199" lon="6.98481">
        <ele>1157.56</ele>
        <time>2022-10-05T11:49:25Z</time>
      </trkpt>
      <trkpt lat="48.01977" lon="6.98483">
        <ele>1158.05</ele>
        <time>2022-10-05T11:49:40Z</time>
      </trkpt>
      <trkpt lat="48.01971" lon="6.98485">
        <ele>1160.45</ele>
        <time>2022-10-05T11:49:50Z</time>
      </trkpt>
      <trkpt lat="48.01966" lon="6.9849">
        <ele>1163.33</ele>
        <time>2022-10-05T11:49:59Z</time>
      </trkpt>
      <trkpt lat="48.01955" lon="6.98497">
        <ele>1164.77</ele>
        <time>2022-10-05T11:50:14Z</time>
      </trkpt>
      <trkpt lat="48.0195" lon="6.98504">
        <ele>1165.26</ele>
        <time>2022-10-05T11:50:29Z</time>
      </trkpt>
      <trkpt lat="48.01942" lon="6.98509">
        <ele>1168.14</ele>
        <time>2022-10-05T11:50:39Z</time>
      </trkpt>
      <trkpt lat="48.01934" lon="6.98513">
        <ele>1169.58</ele>
        <time>2022-10-05T11:50:54Z</time>
      </trkpt>
      <trkpt lat="48.01926" lon="6.98518">
        <ele>1171.98</ele>
        <time>2022-10-05T11:51:07Z</time>
      </trkpt>
      <trkpt lat="48.01908" lon="6.98528">
        <ele>1175.35</ele>
        <time>2022-10-05T11:51:24Z</time>
      </trkpt>
      <trkpt lat="48.01907" lon="6.98529">
        <ele>1175.83</ele>
        <time>2022-10-05T11:51:25Z</time>
      </trkpt>
      <trkpt lat="48.01902" lon="6.98539">
        <ele>1179.19</ele>
        <time>2022-10-05T11:51:38Z</time>
      </trkpt>
      <trkpt lat="48.01897" lon="6.98533">
        <ele>1176.79</ele>
        <time>2022-10-05T11:51:49Z</time>
      </trkpt>
      <trkpt lat="48.01894" lon="6.98529">
        <ele>1178.71</ele>
        <time>2022-10-05T11:51:54Z</time>
      </trkpt>
      <trkpt lat="48.01891" lon="6.98524">
        <ele>1176.31</ele>
        <time>2022-10-05T11:51:57Z</time>
      </trkpt>
      <trkpt lat="48.0189" lon="6.98524">
        <ele>1177.27</ele>
        <time>2022-10-05T11:51:58Z</time>
      </trkpt>
      <trkpt lat="48.01887" lon="6.98522">
        <ele>1176.79</ele>
        <time>2022-10-05T11:52:01Z</time>
      </trkpt>
      <trkpt lat="48.01884" lon="6.98518">
        <ele>1174.87</ele>
        <time>2022-10-05T11:52:04Z</time>
      </trkpt>
      <trkpt lat="48.01876" lon="6.98518">
        <ele>1177.75</ele>
        <time>2022-10-05T11:52:13Z</time>
      </trkpt>
      <trkpt lat="48.01869" lon="6.98518">
        <ele>1179.19</ele>
        <time>2022-10-05T11:52:19Z</time>
      </trkpt>
      <trkpt lat="48.01854" lon="6.98513">
        <ele>1179.67</ele>
        <time>2022-10-05T11:52:32Z</time>
      </trkpt>
      <trkpt lat="48.01839" lon="6.9851">
        <ele>1181.6</ele>
        <time>2022-10-05T11:52:47Z</time>
      </trkpt>
      <trkpt lat="48.01833" lon="6.98508">
        <ele>1181.12</ele>
        <time>2022-10-05T11:52:51Z</time>
      </trkpt>
      <trkpt lat="48.01819" lon="6.98507">
        <ele>1181.12</ele>
        <time>2022-10-05T11:53:06Z</time>
      </trkpt>
      <trkpt lat="48.01809" lon="6.98505">
        <ele>1183.04</ele>
        <time>2022-10-05T11:53:18Z</time>
      </trkpt>
      <trkpt lat="48.01804" lon="6.98502">
        <ele>1180.64</ele>
        <time>2022-10-05T11:53:21Z</time>
      </trkpt>
      <trkpt lat="48.01791" lon="6.98496">
        <ele>1181.6</ele>
        <time>2022-10-05T11:53:32Z</time>
      </trkpt>
      <trkpt lat="48.01788" lon="6.98494">
        <ele>1178.23</ele>
        <time>2022-10-05T11:53:37Z</time>
      </trkpt>
      <trkpt lat="48.01778" lon="6.98489">
        <ele>1176.79</ele>
        <time>2022-10-05T11:53:49Z</time>
      </trkpt>
      <trkpt lat="48.01776" lon="6.98489">
        <ele>1180.16</ele>
        <time>2022-10-05T11:53:54Z</time>
      </trkpt>
      <trkpt lat="48.01771" lon="6.98494">
        <ele>1182.08</ele>
        <time>2022-10-05T11:54:04Z</time>
      </trkpt>
      <trkpt lat="48.01754" lon="6.98496">
        <ele>1182.08</ele>
        <time>2022-10-05T11:54:18Z</time>
      </trkpt>
      <trkpt lat="48.01735" lon="6.98494">
        <ele>1180.64</ele>
        <time>2022-10-05T11:54:29Z</time>
      </trkpt>
      <trkpt lat="48.01732" lon="6.98495">
        <ele>1179.67</ele>
        <time>2022-10-05T11:54:31Z</time>
      </trkpt>
      <trkpt lat="48.01729" lon="6.98493">
        <ele>1180.64</ele>
        <time>2022-10-05T11:54:34Z</time>
      </trkpt>
      <trkpt lat="48.01713" lon="6.98487">
        <ele>1177.27</ele>
        <time>2022-10-05T11:54:46Z</time>
      </trkpt>
      <trkpt lat="48.01712" lon="6.98486">
        <ele>1177.75</ele>
        <time>2022-10-05T11:54:47Z</time>
      </trkpt>
      <trkpt lat="48.01705" lon="6.98484">
        <ele>1178.23</ele>
        <time>2022-10-05T11:54:53Z</time>
      </trkpt>
      <trkpt lat="48.01704" lon="6.98484">
        <ele>1177.27</ele>
        <time>2022-10-05T11:54:54Z</time>
      </trkpt>
      <trkpt lat="48.0169" lon="6.9848">
        <ele>1175.35</ele>
        <time>2022-10-05T11:55:09Z</time>
      </trkpt>
      <trkpt lat="48.01689" lon="6.9848">
        <ele>1173.91</ele>
        <time>2022-10-05T11:55:11Z</time>
      </trkpt>
      <trkpt lat="48.01687" lon="6.9848">
        <ele>1172.95</ele>
        <time>2022-10-05T11:55:14Z</time>
      </trkpt>
      <trkpt lat="48.01677" lon="6.98478">
        <ele>1174.87</ele>
        <time>2022-10-05T11:55:26Z</time>
      </trkpt>
      <trkpt lat="48.01664" lon="6.98476">
        <ele>1171.5</ele>
        <time>2022-10-05T11:55:34Z</time>
      </trkpt>
      <trkpt lat="48.0165" lon="6.98473">
        <ele>1171.98</ele>
        <time>2022-10-05T11:55:46Z</time>
      </trkpt>
      <trkpt lat="48.01643" lon="6.98471">
        <ele>1171.5</ele>
        <time>2022-10-05T11:55:51Z</time>
      </trkpt>
      <trkpt lat="48.0162" lon="6.98469">
        <ele>1171.98</ele>
        <time>2022-10-05T11:56:04Z</time>
      </trkpt>
      <trkpt lat="48.01604" lon="6.98464">
        <ele>1172.95</ele>
        <time>2022-10-05T11:56:18Z</time>
      </trkpt>
      <trkpt lat="48.01603" lon="6.98464">
        <ele>1172.95</ele>
        <time>2022-10-05T11:56:19Z</time>
      </trkpt>
      <trkpt lat="48.01602" lon="6.98464">
        <ele>1174.87</ele>
        <time>2022-10-05T11:56:25Z</time>
      </trkpt>
      <trkpt lat="48.01589" lon="6.98459">
        <ele>1175.83</ele>
        <time>2022-10-05T11:56:39Z</time>
      </trkpt>
      <trkpt lat="48.01572" lon="6.98454">
        <ele>1177.75</ele>
        <time>2022-10-05T11:56:52Z</time>
      </trkpt>
      <trkpt lat="48.01561" lon="6.98451">
        <ele>1180.16</ele>
        <time>2022-10-05T11:57:06Z</time>
      </trkpt>
      <trkpt lat="48.0155" lon="6.98446">
        <ele>1180.16</ele>
        <time>2022-10-05T11:57:15Z</time>
      </trkpt>
      <trkpt lat="48.01539" lon="6.98447">
        <ele>1182.56</ele>
        <time>2022-10-05T11:57:30Z</time>
      </trkpt>
      <trkpt lat="48.01532" lon="6.98444">
        <ele>1184</ele>
        <time>2022-10-05T11:57:38Z</time>
      </trkpt>
      <trkpt lat="48.01528" lon="6.98442">
        <ele>1184.96</ele>
        <time>2022-10-05T11:57:42Z</time>
      </trkpt>
      <trkpt lat="48.01517" lon="6.98439">
        <ele>1185.44</ele>
        <time>2022-10-05T11:57:58Z</time>
      </trkpt>
      <trkpt lat="48.01508" lon="6.98438">
        <ele>1188.33</ele>
        <time>2022-10-05T11:58:10Z</time>
      </trkpt>
      <trkpt lat="48.01507" lon="6.98438">
        <ele>1189.29</ele>
        <time>2022-10-05T11:58:12Z</time>
      </trkpt>
      <trkpt lat="48.01499" lon="6.98439">
        <ele>1189.77</ele>
        <time>2022-10-05T11:58:27Z</time>
      </trkpt>
      <trkpt lat="48.01497" lon="6.9844">
        <ele>1188.81</ele>
        <time>2022-10-05T11:58:30Z</time>
      </trkpt>
      <trkpt lat="48.0149" lon="6.98441">
        <ele>1188.81</ele>
        <time>2022-10-05T11:58:49Z</time>
      </trkpt>
      <trkpt lat="48.01483" lon="6.98441">
        <ele>1191.21</ele>
        <time>2022-10-05T11:59:03Z</time>
      </trkpt>
      <trkpt lat="48.01473" lon="6.98439">
        <ele>1191.69</ele>
        <time>2022-10-05T11:59:18Z</time>
      </trkpt>
      <trkpt lat="48.01467" lon="6.98443">
        <ele>1192.17</ele>
        <time>2022-10-05T11:59:32Z</time>
      </trkpt>
      <trkpt lat="48.01463" lon="6.98447">
        <ele>1195.54</ele>
        <time>2022-10-05T11:59:44Z</time>
      </trkpt>
      <trkpt lat="48.0146" lon="6.98455">
        <ele>1198.9</ele>
        <time>2022-10-05T11:59:58Z</time>
      </trkpt>
      <trkpt lat="48.01461" lon="6.98467">
        <ele>1199.38</ele>
        <time>2022-10-05T12:00:07Z</time>
      </trkpt>
      <trkpt lat="48.01468" lon="6.98481">
        <ele>1199.38</ele>
        <time>2022-10-05T12:00:20Z</time>
      </trkpt>
      <trkpt lat="48.01468" lon="6.98481">
        <ele>1199.38</ele>
        <time>2022-10-05T12:00:21Z</time>
      </trkpt>
      <trkpt lat="48.01471" lon="6.98484">
        <ele>1199.38</ele>
        <time>2022-10-05T12:00:24Z</time>
      </trkpt>
      <trkpt lat="48.01479" lon="6.98493">
        <ele>1199.38</ele>
        <time>2022-10-05T12:00:38Z</time>
      </trkpt>
      <trkpt lat="48.01481" lon="6.9851">
        <ele>1200.82</ele>
        <time>2022-10-05T12:00:50Z</time>
      </trkpt>
      <trkpt lat="48.0149" lon="6.98526">
        <ele>1201.79</ele>
        <time>2022-10-05T12:01:03Z</time>
      </trkpt>
      <trkpt lat="48.0149" lon="6.98528">
        <ele>1202.75</ele>
        <time>2022-10-05T12:01:05Z</time>
      </trkpt>
      <trkpt lat="48.0149" lon="6.98533">
        <ele>1202.75</ele>
        <time>2022-10-05T12:01:10Z</time>
      </trkpt>
      <trkpt lat="48.0149" lon="6.98539">
        <ele>1201.3</ele>
        <time>2022-10-05T12:01:21Z</time>
      </trkpt>
      <trkpt lat="48.0149" lon="6.98539">
        <ele>1205.63</ele>
        <time>2022-10-05T12:01:27Z</time>
      </trkpt>
      <trkpt lat="48.01489" lon="6.98539">
        <ele>1203.23</ele>
        <time>2022-10-05T12:01:30Z</time>
      </trkpt>
      <trkpt lat="48.01483" lon="6.98543">
        <ele>1203.23</ele>
        <time>2022-10-05T12:01:50Z</time>
      </trkpt>
      <trkpt lat="48.01483" lon="6.98544">
        <ele>1202.27</ele>
        <time>2022-10-05T12:02:11Z</time>
      </trkpt>
      <trkpt lat="48.01483" lon="6.98545">
        <ele>1201.79</ele>
        <time>2022-10-05T12:02:39Z</time>
      </trkpt>
      <trkpt lat="48.01483" lon="6.98545">
        <ele>1202.27</ele>
        <time>2022-10-05T12:03:00Z</time>
      </trkpt>
      <trkpt lat="48.01481" lon="6.9855">
        <ele>1202.75</ele>
        <time>2022-10-05T12:03:12Z</time>
      </trkpt>
      <trkpt lat="48.01479" lon="6.98554">
        <ele>1202.75</ele>
        <time>2022-10-05T12:03:16Z</time>
      </trkpt>
      <trkpt lat="48.01473" lon="6.98566">
        <ele>1203.71</ele>
        <time>2022-10-05T12:03:33Z</time>
      </trkpt>
      <trkpt lat="48.01462" lon="6.98567">
        <ele>1204.19</ele>
        <time>2022-10-05T12:03:47Z</time>
      </trkpt>
      <trkpt lat="48.01457" lon="6.98567">
        <ele>1205.63</ele>
        <time>2022-10-05T12:04:01Z</time>
      </trkpt>
      <trkpt lat="48.01452" lon="6.98564">
        <ele>1207.55</ele>
        <time>2022-10-05T12:04:15Z</time>
      </trkpt>
      <trkpt lat="48.01447" lon="6.98564">
        <ele>1209.96</ele>
        <time>2022-10-05T12:04:31Z</time>
      </trkpt>
      <trkpt lat="48.01443" lon="6.98564">
        <ele>1211.88</ele>
        <time>2022-10-05T12:04:46Z</time>
      </trkpt>
      <trkpt lat="48.01434" lon="6.98561">
        <ele>1213.8</ele>
        <time>2022-10-05T12:04:58Z</time>
      </trkpt>
      <trkpt lat="48.01425" lon="6.98562">
        <ele>1215.72</ele>
        <time>2022-10-05T12:05:12Z</time>
      </trkpt>
      <trkpt lat="48.01421" lon="6.9856">
        <ele>1216.21</ele>
        <time>2022-10-05T12:05:28Z</time>
      </trkpt>
      <trkpt lat="48.01416" lon="6.98555">
        <ele>1214.76</ele>
        <time>2022-10-05T12:05:46Z</time>
      </trkpt>
      <trkpt lat="48.01416" lon="6.98555">
        <ele>1214.76</ele>
        <time>2022-10-05T12:05:49Z</time>
      </trkpt>
      <trkpt lat="48.01398" lon="6.98546">
        <ele>1215.24</ele>
        <time>2022-10-05T12:06:01Z</time>
      </trkpt>
      <trkpt lat="48.01386" lon="6.98537">
        <ele>1217.17</ele>
        <time>2022-10-05T12:06:14Z</time>
      </trkpt>
      <trkpt lat="48.01378" lon="6.9853">
        <ele>1219.09</ele>
        <time>2022-10-05T12:06:29Z</time>
      </trkpt>
      <trkpt lat="48.01362" lon="6.98528">
        <ele>1222.45</ele>
        <time>2022-10-05T12:06:42Z</time>
      </trkpt>
      <trkpt lat="48.01358" lon="6.98527">
        <ele>1225.34</ele>
        <time>2022-10-05T12:06:55Z</time>
      </trkpt>
      <trkpt lat="48.01345" lon="6.98519">
        <ele>1225.82</ele>
        <time>2022-10-05T12:07:07Z</time>
      </trkpt>
      <trkpt lat="48.01338" lon="6.98512">
        <ele>1227.74</ele>
        <time>2022-10-05T12:07:21Z</time>
      </trkpt>
      <trkpt lat="48.01325" lon="6.98504">
        <ele>1229.66</ele>
        <time>2022-10-05T12:07:35Z</time>
      </trkpt>
      <trkpt lat="48.01311" lon="6.98496">
        <ele>1230.62</ele>
        <time>2022-10-05T12:07:49Z</time>
      </trkpt>
      <trkpt lat="48.01298" lon="6.98483">
        <ele>1230.62</ele>
        <time>2022-10-05T12:08:05Z</time>
      </trkpt>
      <trkpt lat="48.01282" lon="6.98463">
        <ele>1231.11</ele>
        <time>2022-10-05T12:08:22Z</time>
      </trkpt>
      <trkpt lat="48.01279" lon="6.9846">
        <ele>1232.07</ele>
        <time>2022-10-05T12:08:25Z</time>
      </trkpt>
      <trkpt lat="48.01266" lon="6.98444">
        <ele>1233.03</ele>
        <time>2022-10-05T12:08:40Z</time>
      </trkpt>
      <trkpt lat="48.01257" lon="6.98435">
        <ele>1233.99</ele>
        <time>2022-10-05T12:08:52Z</time>
      </trkpt>
      <trkpt lat="48.01255" lon="6.98435">
        <ele>1233.99</ele>
        <time>2022-10-05T12:08:53Z</time>
      </trkpt>
      <trkpt lat="48.01251" lon="6.98433">
        <ele>1233.99</ele>
        <time>2022-10-05T12:08:56Z</time>
      </trkpt>
      <trkpt lat="48.01237" lon="6.98418">
        <ele>1235.43</ele>
        <time>2022-10-05T12:09:11Z</time>
      </trkpt>
      <trkpt lat="48.01227" lon="6.98406">
        <ele>1238.8</ele>
        <time>2022-10-05T12:09:26Z</time>
      </trkpt>
      <trkpt lat="48.01217" lon="6.98392">
        <ele>1240.24</ele>
        <time>2022-10-05T12:09:41Z</time>
      </trkpt>
      <trkpt lat="48.01209" lon="6.98384">
        <ele>1243.6</ele>
        <time>2022-10-05T12:09:56Z</time>
      </trkpt>
      <trkpt lat="48.01202" lon="6.98376">
        <ele>1246.49</ele>
        <time>2022-10-05T12:10:10Z</time>
      </trkpt>
      <trkpt lat="48.0119" lon="6.98363">
        <ele>1248.41</ele>
        <time>2022-10-05T12:10:21Z</time>
      </trkpt>
      <trkpt lat="48.0119" lon="6.98359">
        <ele>1248.41</ele>
        <time>2022-10-05T12:10:23Z</time>
      </trkpt>
      <trkpt lat="48.01189" lon="6.98352">
        <ele>1249.37</ele>
        <time>2022-10-05T12:10:27Z</time>
      </trkpt>
      <trkpt lat="48.01173" lon="6.98345">
        <ele>1252.74</ele>
        <time>2022-10-05T12:10:40Z</time>
      </trkpt>
      <trkpt lat="48.0117" lon="6.98347">
        <ele>1253.7</ele>
        <time>2022-10-05T12:10:44Z</time>
      </trkpt>
      <trkpt lat="48.01168" lon="6.98348">
        <ele>1254.66</ele>
        <time>2022-10-05T12:10:46Z</time>
      </trkpt>
      <trkpt lat="48.01158" lon="6.98358">
        <ele>1257.06</ele>
        <time>2022-10-05T12:10:59Z</time>
      </trkpt>
      <trkpt lat="48.01157" lon="6.9836">
        <ele>1257.06</ele>
        <time>2022-10-05T12:11:01Z</time>
      </trkpt>
      <trkpt lat="48.01153" lon="6.98365">
        <ele>1259.94</ele>
        <time>2022-10-05T12:11:07Z</time>
      </trkpt>
      <trkpt lat="48.0115" lon="6.98367">
        <ele>1258.98</ele>
        <time>2022-10-05T12:11:21Z</time>
      </trkpt>
      <trkpt lat="48.01149" lon="6.98367">
        <ele>1258.02</ele>
        <time>2022-10-05T12:11:37Z</time>
      </trkpt>
      <trkpt lat="48.01149" lon="6.98367">
        <ele>1258.98</ele>
        <time>2022-10-05T12:11:49Z</time>
      </trkpt>
      <trkpt lat="48.01149" lon="6.98368">
        <ele>1258.98</ele>
        <time>2022-10-05T12:12:14Z</time>
      </trkpt>
      <trkpt lat="48.01148" lon="6.98367">
        <ele>1258.02</ele>
        <time>2022-10-05T12:12:31Z</time>
      </trkpt>
      <trkpt lat="48.01148" lon="6.98367">
        <ele>1257.54</ele>
        <time>2022-10-05T12:12:50Z</time>
      </trkpt>
      <trkpt lat="48.01148" lon="6.98367">
        <ele>1257.06</ele>
        <time>2022-10-05T12:13:09Z</time>
      </trkpt>
      <trkpt lat="48.01148" lon="6.98367">
        <ele>1257.54</ele>
        <time>2022-10-05T12:13:23Z</time>
      </trkpt>
      <trkpt lat="48.01148" lon="6.98367">
        <ele>1257.54</ele>
        <time>2022-10-05T12:13:42Z</time>
      </trkpt>
      <trkpt lat="48.01147" lon="6.98367">
        <ele>1258.02</ele>
        <time>2022-10-05T12:14:09Z</time>
      </trkpt>
      <trkpt lat="48.01147" lon="6.98367">
        <ele>1257.06</ele>
        <time>2022-10-05T12:14:11Z</time>
      </trkpt>
      <trkpt lat="48.01148" lon="6.98366">
        <ele>1257.06</ele>
        <time>2022-10-05T12:14:39Z</time>
      </trkpt>
      <trkpt lat="48.01148" lon="6.98366">
        <ele>1257.06</ele>
        <time>2022-10-05T12:15:00Z</time>
      </trkpt>
      <trkpt lat="48.01147" lon="6.98365">
        <ele>1256.1</ele>
        <time>2022-10-05T12:15:25Z</time>
      </trkpt>
      <trkpt lat="48.01147" lon="6.98365">
        <ele>1250.81</ele>
        <time>2022-10-05T12:15:45Z</time>
      </trkpt>
      <trkpt lat="48.01147" lon="6.98365">
        <ele>1250.81</ele>
        <time>2022-10-05T12:15:46Z</time>
      </trkpt>
      <trkpt lat="48.01147" lon="6.98365">
        <ele>1259.94</ele>
        <time>2022-10-05T12:15:47Z</time>
      </trkpt>
      <trkpt lat="48.01147" lon="6.98365">
        <ele>1257.06</ele>
        <time>2022-10-05T12:15:50Z</time>
      </trkpt>
      <trkpt lat="48.01147" lon="6.98366">
        <ele>1256.58</ele>
        <time>2022-10-05T12:16:16Z</time>
      </trkpt>
      <trkpt lat="48.01147" lon="6.98367">
        <ele>1256.58</ele>
        <time>2022-10-05T12:16:50Z</time>
      </trkpt>
      <trkpt lat="48.01148" lon="6.98367">
        <ele>1255.62</ele>
        <time>2022-10-05T12:17:05Z</time>
      </trkpt>
      <trkpt lat="48.01148" lon="6.98367">
        <ele>1256.58</ele>
        <time>2022-10-05T12:17:26Z</time>
      </trkpt>
      <trkpt lat="48.01148" lon="6.98354">
        <ele>1261.87</ele>
        <time>2022-10-05T12:17:34Z</time>
      </trkpt>
      <trkpt lat="48.01148" lon="6.98352">
        <ele>1258.02</ele>
        <time>2022-10-05T12:17:35Z</time>
      </trkpt>
      <trkpt lat="48.01143" lon="6.98337">
        <ele>1260.43</ele>
        <time>2022-10-05T12:17:47Z</time>
      </trkpt>
      <trkpt lat="48.01142" lon="6.98334">
        <ele>1259.94</ele>
        <time>2022-10-05T12:17:51Z</time>
      </trkpt>
      <trkpt lat="48.01141" lon="6.98333">
        <ele>1264.75</ele>
        <time>2022-10-05T12:17:52Z</time>
      </trkpt>
      <trkpt lat="48.01141" lon="6.98332">
        <ele>1260.43</ele>
        <time>2022-10-05T12:17:53Z</time>
      </trkpt>
      <trkpt lat="48.01137" lon="6.98328">
        <ele>1266.67</ele>
        <time>2022-10-05T12:17:59Z</time>
      </trkpt>
      <trkpt lat="48.01137" lon="6.98328">
        <ele>1262.83</ele>
        <time>2022-10-05T12:18:00Z</time>
      </trkpt>
      <trkpt lat="48.01134" lon="6.9833">
        <ele>1267.16</ele>
        <time>2022-10-05T12:18:04Z</time>
      </trkpt>
      <trkpt lat="48.01134" lon="6.98331">
        <ele>1262.83</ele>
        <time>2022-10-05T12:18:05Z</time>
      </trkpt>
      <trkpt lat="48.01129" lon="6.98333">
        <ele>1266.67</ele>
        <time>2022-10-05T12:18:11Z</time>
      </trkpt>
      <trkpt lat="48.01127" lon="6.98333">
        <ele>1264.75</ele>
        <time>2022-10-05T12:18:14Z</time>
      </trkpt>
      <trkpt lat="48.01127" lon="6.98333">
        <ele>1268.12</ele>
        <time>2022-10-05T12:18:15Z</time>
      </trkpt>
      <trkpt lat="48.01121" lon="6.98332">
        <ele>1272.44</ele>
        <time>2022-10-05T12:18:24Z</time>
      </trkpt>
      <trkpt lat="48.01121" lon="6.98331">
        <ele>1269.08</ele>
        <time>2022-10-05T12:18:25Z</time>
      </trkpt>
      <trkpt lat="48.0112" lon="6.98326">
        <ele>1272.92</ele>
        <time>2022-10-05T12:18:30Z</time>
      </trkpt>
      <trkpt lat="48.0112" lon="6.98325">
        <ele>1267.16</ele>
        <time>2022-10-05T12:18:31Z</time>
      </trkpt>
      <trkpt lat="48.0112" lon="6.98324">
        <ele>1272.44</ele>
        <time>2022-10-05T12:18:32Z</time>
      </trkpt>
      <trkpt lat="48.0112" lon="6.98323">
        <ele>1269.56</ele>
        <time>2022-10-05T12:18:33Z</time>
      </trkpt>
      <trkpt lat="48.01119" lon="6.98319">
        <ele>1273.4</ele>
        <time>2022-10-05T12:18:37Z</time>
      </trkpt>
      <trkpt lat="48.01119" lon="6.98315">
        <ele>1269.56</ele>
        <time>2022-10-05T12:18:39Z</time>
      </trkpt>
      <trkpt lat="48.01119" lon="6.98311">
        <ele>1273.4</ele>
        <time>2022-10-05T12:18:42Z</time>
      </trkpt>
      <trkpt lat="48.01118" lon="6.98307">
        <ele>1270.52</ele>
        <time>2022-10-05T12:18:45Z</time>
      </trkpt>
      <trkpt lat="48.01117" lon="6.98304">
        <ele>1274.36</ele>
        <time>2022-10-05T12:18:47Z</time>
      </trkpt>
      <trkpt lat="48.01117" lon="6.98302">
        <ele>1271.96</ele>
        <time>2022-10-05T12:18:48Z</time>
      </trkpt>
      <trkpt lat="48.01113" lon="6.98301">
        <ele>1274.85</ele>
        <time>2022-10-05T12:18:55Z</time>
      </trkpt>
      <trkpt lat="48.01109" lon="6.98304">
        <ele>1275.81</ele>
        <time>2022-10-05T12:19:00Z</time>
      </trkpt>
      <trkpt lat="48.01107" lon="6.98306">
        <ele>1277.73</ele>
        <time>2022-10-05T12:19:02Z</time>
      </trkpt>
      <trkpt lat="48.01103" lon="6.9831">
        <ele>1281.09</ele>
        <time>2022-10-05T12:19:07Z</time>
      </trkpt>
      <trkpt lat="48.01102" lon="6.98311">
        <ele>1277.73</ele>
        <time>2022-10-05T12:19:09Z</time>
      </trkpt>
      <trkpt lat="48.011" lon="6.98312">
        <ele>1281.09</ele>
        <time>2022-10-05T12:19:11Z</time>
      </trkpt>
      <trkpt lat="48.01099" lon="6.98313">
        <ele>1280.13</ele>
        <time>2022-10-05T12:19:12Z</time>
      </trkpt>
      <trkpt lat="48.01098" lon="6.98314">
        <ele>1275.81</ele>
        <time>2022-10-05T12:19:14Z</time>
      </trkpt>
      <trkpt lat="48.01097" lon="6.98314">
        <ele>1283.98</ele>
        <time>2022-10-05T12:19:15Z</time>
      </trkpt>
      <trkpt lat="48.01097" lon="6.98313">
        <ele>1279.17</ele>
        <time>2022-10-05T12:19:16Z</time>
      </trkpt>
      <trkpt lat="48.01097" lon="6.9831">
        <ele>1283.02</ele>
        <time>2022-10-05T12:19:18Z</time>
      </trkpt>
      <trkpt lat="48.01096" lon="6.98302">
        <ele>1282.06</ele>
        <time>2022-10-05T12:19:24Z</time>
      </trkpt>
      <trkpt lat="48.01093" lon="6.98292">
        <ele>1283.02</ele>
        <time>2022-10-05T12:19:31Z</time>
      </trkpt>
      <trkpt lat="48.01091" lon="6.98288">
        <ele>1277.73</ele>
        <time>2022-10-05T12:19:34Z</time>
      </trkpt>
      <trkpt lat="48.01091" lon="6.98287">
        <ele>1287.82</ele>
        <time>2022-10-05T12:19:35Z</time>
      </trkpt>
      <trkpt lat="48.01089" lon="6.98285">
        <ele>1283.98</ele>
        <time>2022-10-05T12:19:37Z</time>
      </trkpt>
      <trkpt lat="48.01086" lon="6.98283">
        <ele>1284.94</ele>
        <time>2022-10-05T12:19:40Z</time>
      </trkpt>
      <trkpt lat="48.01084" lon="6.98282">
        <ele>1287.82</ele>
        <time>2022-10-05T12:19:42Z</time>
      </trkpt>
      <trkpt lat="48.01082" lon="6.98283">
        <ele>1284.94</ele>
        <time>2022-10-05T12:19:44Z</time>
      </trkpt>
      <trkpt lat="48.01078" lon="6.98286">
        <ele>1286.38</ele>
        <time>2022-10-05T12:19:48Z</time>
      </trkpt>
      <trkpt lat="48.01071" lon="6.98288">
        <ele>1285.9</ele>
        <time>2022-10-05T12:19:55Z</time>
      </trkpt>
      <trkpt lat="48.01068" lon="6.98291">
        <ele>1290.71</ele>
        <time>2022-10-05T12:19:58Z</time>
      </trkpt>
      <trkpt lat="48.01067" lon="6.98292">
        <ele>1286.86</ele>
        <time>2022-10-05T12:19:59Z</time>
      </trkpt>
      <trkpt lat="48.01063" lon="6.98292">
        <ele>1291.67</ele>
        <time>2022-10-05T12:20:03Z</time>
      </trkpt>
      <trkpt lat="48.01054" lon="6.9829">
        <ele>1295.51</ele>
        <time>2022-10-05T12:20:13Z</time>
      </trkpt>
      <trkpt lat="48.01053" lon="6.9829">
        <ele>1292.15</ele>
        <time>2022-10-05T12:20:14Z</time>
      </trkpt>
      <trkpt lat="48.01053" lon="6.9829">
        <ele>1300.8</ele>
        <time>2022-10-05T12:20:16Z</time>
      </trkpt>
      <trkpt lat="48.01053" lon="6.9829">
        <ele>1294.07</ele>
        <time>2022-10-05T12:20:17Z</time>
      </trkpt>
      <trkpt lat="48.01053" lon="6.9829">
        <ele>1290.71</ele>
        <time>2022-10-05T12:20:18Z</time>
      </trkpt>
      <trkpt lat="48.01053" lon="6.9829">
        <ele>1295.99</ele>
        <time>2022-10-05T12:20:19Z</time>
      </trkpt>
      <trkpt lat="48.01047" lon="6.98292">
        <ele>1292.15</ele>
        <time>2022-10-05T12:20:24Z</time>
      </trkpt>
      <trkpt lat="48.01043" lon="6.98293">
        <ele>1295.99</ele>
        <time>2022-10-05T12:20:27Z</time>
      </trkpt>
      <trkpt lat="48.01035" lon="6.98292">
        <ele>1295.51</ele>
        <time>2022-10-05T12:20:34Z</time>
      </trkpt>
      <trkpt lat="48.01032" lon="6.98293">
        <ele>1298.88</ele>
        <time>2022-10-05T12:20:36Z</time>
      </trkpt>
      <trkpt lat="48.01015" lon="6.98296">
        <ele>1302.72</ele>
        <time>2022-10-05T12:20:50Z</time>
      </trkpt>
      <trkpt lat="48.01002" lon="6.98298">
        <ele>1304.65</ele>
        <time>2022-10-05T12:21:00Z</time>
      </trkpt>
      <trkpt lat="48.00995" lon="6.98303">
        <ele>1302.72</ele>
        <time>2022-10-05T12:21:06Z</time>
      </trkpt>
      <trkpt lat="48.00991" lon="6.98305">
        <ele>1306.09</ele>
        <time>2022-10-05T12:21:09Z</time>
      </trkpt>
      <trkpt lat="48.00985" lon="6.98306">
        <ele>1304.17</ele>
        <time>2022-10-05T12:21:14Z</time>
      </trkpt>
      <trkpt lat="48.00981" lon="6.983">
        <ele>1311.86</ele>
        <time>2022-10-05T12:21:18Z</time>
      </trkpt>
      <trkpt lat="48.00979" lon="6.98297">
        <ele>1308.97</ele>
        <time>2022-10-05T12:21:20Z</time>
      </trkpt>
      <trkpt lat="48.00979" lon="6.98295">
        <ele>1305.13</ele>
        <time>2022-10-05T12:21:21Z</time>
      </trkpt>
      <trkpt lat="48.00978" lon="6.9829">
        <ele>1309.45</ele>
        <time>2022-10-05T12:21:23Z</time>
      </trkpt>
      <trkpt lat="48.00977" lon="6.98286">
        <ele>1312.82</ele>
        <time>2022-10-05T12:21:25Z</time>
      </trkpt>
      <trkpt lat="48.00977" lon="6.98283">
        <ele>1308.49</ele>
        <time>2022-10-05T12:21:27Z</time>
      </trkpt>
      <trkpt lat="48.00977" lon="6.98282">
        <ele>1308.97</ele>
        <time>2022-10-05T12:21:28Z</time>
      </trkpt>
      <trkpt lat="48.00977" lon="6.9828">
        <ele>1312.82</ele>
        <time>2022-10-05T12:21:29Z</time>
      </trkpt>
      <trkpt lat="48.00977" lon="6.9828">
        <ele>1312.34</ele>
        <time>2022-10-05T12:21:30Z</time>
      </trkpt>
      <trkpt lat="48.00977" lon="6.98279">
        <ele>1306.09</ele>
        <time>2022-10-05T12:21:31Z</time>
      </trkpt>
      <trkpt lat="48.00977" lon="6.98279">
        <ele>1311.38</ele>
        <time>2022-10-05T12:21:32Z</time>
      </trkpt>
      <trkpt lat="48.00977" lon="6.98279">
        <ele>1303.69</ele>
        <time>2022-10-05T12:21:34Z</time>
      </trkpt>
      <trkpt lat="48.00977" lon="6.98279">
        <ele>1306.57</ele>
        <time>2022-10-05T12:21:35Z</time>
      </trkpt>
      <trkpt lat="48.00977" lon="6.98278">
        <ele>1303.2</ele>
        <time>2022-10-05T12:21:44Z</time>
      </trkpt>
      <trkpt lat="48.00977" lon="6.98278">
        <ele>1306.57</ele>
        <time>2022-10-05T12:21:50Z</time>
      </trkpt>
      <trkpt lat="48.00977" lon="6.98277">
        <ele>1309.93</ele>
        <time>2022-10-05T12:21:57Z</time>
      </trkpt>
      <trkpt lat="48.00977" lon="6.98277">
        <ele>1303.69</ele>
        <time>2022-10-05T12:21:59Z</time>
      </trkpt>
      <trkpt lat="48.00977" lon="6.98277">
        <ele>1306.09</ele>
        <time>2022-10-05T12:22:00Z</time>
      </trkpt>
      <trkpt lat="48.00977" lon="6.98277">
        <ele>1308.49</ele>
        <time>2022-10-05T12:22:12Z</time>
      </trkpt>
      <trkpt lat="48.00977" lon="6.98277">
        <ele>1309.45</ele>
        <time>2022-10-05T12:22:18Z</time>
      </trkpt>
      <trkpt lat="48.00977" lon="6.98277">
        <ele>1304.65</ele>
        <time>2022-10-05T12:22:26Z</time>
      </trkpt>
      <trkpt lat="48.00977" lon="6.98277">
        <ele>1306.57</ele>
        <time>2022-10-05T12:22:27Z</time>
      </trkpt>
      <trkpt lat="48.00977" lon="6.98277">
        <ele>1312.34</ele>
        <time>2022-10-05T12:22:29Z</time>
      </trkpt>
      <trkpt lat="48.00977" lon="6.98277">
        <ele>1308.01</ele>
        <time>2022-10-05T12:22:30Z</time>
      </trkpt>
      <trkpt lat="48.00977" lon="6.98277">
        <ele>1308.01</ele>
        <time>2022-10-05T12:22:35Z</time>
      </trkpt>
      <trkpt lat="48.00977" lon="6.98277">
        <ele>1309.45</ele>
        <time>2022-10-05T12:22:38Z</time>
      </trkpt>
      <trkpt lat="48.00977" lon="6.98277">
        <ele>1304.65</ele>
        <time>2022-10-05T12:22:40Z</time>
      </trkpt>
      <trkpt lat="48.00977" lon="6.98277">
        <ele>1308.01</ele>
        <time>2022-10-05T12:22:41Z</time>
      </trkpt>
      <trkpt lat="48.00977" lon="6.98277">
        <ele>1304.17</ele>
        <time>2022-10-05T12:22:46Z</time>
      </trkpt>
      <trkpt lat="48.00977" lon="6.98277">
        <ele>1305.61</ele>
        <time>2022-10-05T12:22:47Z</time>
      </trkpt>
      <trkpt lat="48.00977" lon="6.98277">
        <ele>1306.57</ele>
        <time>2022-10-05T12:22:49Z</time>
      </trkpt>
      <trkpt lat="48.00977" lon="6.98277">
        <ele>1307.53</ele>
        <time>2022-10-05T12:22:53Z</time>
      </trkpt>
      <trkpt lat="48.00977" lon="6.98276">
        <ele>1310.9</ele>
        <time>2022-10-05T12:23:08Z</time>
      </trkpt>
      <trkpt lat="48.00977" lon="6.98276">
        <ele>1306.57</ele>
        <time>2022-10-05T12:23:09Z</time>
      </trkpt>
      <trkpt lat="48.00977" lon="6.98276">
        <ele>1306.57</ele>
        <time>2022-10-05T12:23:10Z</time>
      </trkpt>
      <trkpt lat="48.00977" lon="6.98276">
        <ele>1303.2</ele>
        <time>2022-10-05T12:23:16Z</time>
      </trkpt>
      <trkpt lat="48.00977" lon="6.98276">
        <ele>1304.65</ele>
        <time>2022-10-05T12:23:17Z</time>
      </trkpt>
      <trkpt lat="48.00977" lon="6.98276">
        <ele>1306.57</ele>
        <time>2022-10-05T12:23:19Z</time>
      </trkpt>
      <trkpt lat="48.00977" lon="6.98276">
        <ele>1307.53</ele>
        <time>2022-10-05T12:23:37Z</time>
      </trkpt>
      <trkpt lat="48.00977" lon="6.98276">
        <ele>1306.09</ele>
        <time>2022-10-05T12:23:39Z</time>
      </trkpt>
      <trkpt lat="48.00977" lon="6.98276">
        <ele>1310.41</ele>
        <time>2022-10-05T12:23:42Z</time>
      </trkpt>
      <trkpt lat="48.00977" lon="6.98276">
        <ele>1304.17</ele>
        <time>2022-10-05T12:23:43Z</time>
      </trkpt>
      <trkpt lat="48.00977" lon="6.98276">
        <ele>1306.57</ele>
        <time>2022-10-05T12:23:47Z</time>
      </trkpt>
      <trkpt lat="48.00977" lon="6.98276">
        <ele>1305.61</ele>
        <time>2022-10-05T12:23:49Z</time>
      </trkpt>
      <trkpt lat="48.00977" lon="6.98276">
        <ele>1303.69</ele>
        <time>2022-10-05T12:23:59Z</time>
      </trkpt>
      <trkpt lat="48.00977" lon="6.98276">
        <ele>1309.45</ele>
        <time>2022-10-05T12:24:21Z</time>
      </trkpt>
      <trkpt lat="48.00977" lon="6.98276">
        <ele>1307.53</ele>
        <time>2022-10-05T12:24:22Z</time>
      </trkpt>
      <trkpt lat="48.00977" lon="6.98276">
        <ele>1305.13</ele>
        <time>2022-10-05T12:24:24Z</time>
      </trkpt>
      <trkpt lat="48.00977" lon="6.98276">
        <ele>1306.57</ele>
        <time>2022-10-05T12:24:28Z</time>
      </trkpt>
      <trkpt lat="48.00977" lon="6.98276">
        <ele>1303.2</ele>
        <time>2022-10-05T12:24:40Z</time>
      </trkpt>
      <trkpt lat="48.00977" lon="6.98277">
        <ele>1306.57</ele>
        <time>2022-10-05T12:24:41Z</time>
      </trkpt>
      <trkpt lat="48.00977" lon="6.98277">
        <ele>1310.9</ele>
        <time>2022-10-05T12:24:44Z</time>
      </trkpt>
      <trkpt lat="48.00977" lon="6.98277">
        <ele>1307.05</ele>
        <time>2022-10-05T12:24:45Z</time>
      </trkpt>
      <trkpt lat="48.00977" lon="6.98277">
        <ele>1300.8</ele>
        <time>2022-10-05T12:24:46Z</time>
      </trkpt>
      <trkpt lat="48.00977" lon="6.98277">
        <ele>1307.05</ele>
        <time>2022-10-05T12:24:47Z</time>
      </trkpt>
      <trkpt lat="48.00977" lon="6.98277">
        <ele>1311.38</ele>
        <time>2022-10-05T12:25:10Z</time>
      </trkpt>
      <trkpt lat="48.00977" lon="6.98277">
        <ele>1306.57</ele>
        <time>2022-10-05T12:25:11Z</time>
      </trkpt>
      <trkpt lat="48.00977" lon="6.98277">
        <ele>1305.61</ele>
        <time>2022-10-05T12:25:26Z</time>
      </trkpt>
      <trkpt lat="48.00977" lon="6.98277">
        <ele>1306.57</ele>
        <time>2022-10-05T12:25:31Z</time>
      </trkpt>
      <trkpt lat="48.00977" lon="6.98277">
        <ele>1307.53</ele>
        <time>2022-10-05T12:25:43Z</time>
      </trkpt>
      <trkpt lat="48.00977" lon="6.98277">
        <ele>1308.01</ele>
        <time>2022-10-05T12:25:50Z</time>
      </trkpt>
      <trkpt lat="48.00977" lon="6.98275">
        <ele>1306.09</ele>
        <time>2022-10-05T12:26:04Z</time>
      </trkpt>
      <trkpt lat="48.00977" lon="6.98274">
        <ele>1310.41</ele>
        <time>2022-10-05T12:26:10Z</time>
      </trkpt>
      <trkpt lat="48.00977" lon="6.98274">
        <ele>1307.53</ele>
        <time>2022-10-05T12:26:22Z</time>
      </trkpt>
      <trkpt lat="48.00977" lon="6.98274">
        <ele>1307.53</ele>
        <time>2022-10-05T12:26:36Z</time>
      </trkpt>
      <trkpt lat="48.00977" lon="6.98274">
        <ele>1306.57</ele>
        <time>2022-10-05T12:26:43Z</time>
      </trkpt>
      <trkpt lat="48.00977" lon="6.98274">
        <ele>1308.01</ele>
        <time>2022-10-05T12:26:46Z</time>
      </trkpt>
      <trkpt lat="48.00977" lon="6.98273">
        <ele>1307.05</ele>
        <time>2022-10-05T12:26:56Z</time>
      </trkpt>
      <trkpt lat="48.00977" lon="6.98273">
        <ele>1308.01</ele>
        <time>2022-10-05T12:27:14Z</time>
      </trkpt>
      <trkpt lat="48.00977" lon="6.98271">
        <ele>1307.53</ele>
        <time>2022-10-05T12:27:30Z</time>
      </trkpt>
      <trkpt lat="48.00979" lon="6.98268">
        <ele>1308.97</ele>
        <time>2022-10-05T12:27:33Z</time>
      </trkpt>
      <trkpt lat="48.00979" lon="6.98266">
        <ele>1308.49</ele>
        <time>2022-10-05T12:27:35Z</time>
      </trkpt>
      <trkpt lat="48.00978" lon="6.98252">
        <ele>1307.05</ele>
        <time>2022-10-05T12:27:48Z</time>
      </trkpt>
      <trkpt lat="48.00977" lon="6.98248">
        <ele>1303.69</ele>
        <time>2022-10-05T12:27:50Z</time>
      </trkpt>
      <trkpt lat="48.00976" lon="6.98246">
        <ele>1308.49</ele>
        <time>2022-10-05T12:27:51Z</time>
      </trkpt>
      <trkpt lat="48.00972" lon="6.98233">
        <ele>1307.53</ele>
        <time>2022-10-05T12:28:01Z</time>
      </trkpt>
      <trkpt lat="48.0097" lon="6.98226">
        <ele>1304.65</ele>
        <time>2022-10-05T12:28:06Z</time>
      </trkpt>
      <trkpt lat="48.00969" lon="6.98221">
        <ele>1308.01</ele>
        <time>2022-10-05T12:28:09Z</time>
      </trkpt>
      <trkpt lat="48.00967" lon="6.98217">
        <ele>1304.17</ele>
        <time>2022-10-05T12:28:12Z</time>
      </trkpt>
      <trkpt lat="48.00965" lon="6.98209">
        <ele>1308.97</ele>
        <time>2022-10-05T12:28:17Z</time>
      </trkpt>
      <trkpt lat="48.00964" lon="6.98208">
        <ele>1305.61</ele>
        <time>2022-10-05T12:28:18Z</time>
      </trkpt>
      <trkpt lat="48.00961" lon="6.98195">
        <ele>1308.97</ele>
        <time>2022-10-05T12:28:28Z</time>
      </trkpt>
      <trkpt lat="48.0096" lon="6.98193">
        <ele>1305.13</ele>
        <time>2022-10-05T12:28:29Z</time>
      </trkpt>
      <trkpt lat="48.00959" lon="6.98188">
        <ele>1302.24</ele>
        <time>2022-10-05T12:28:32Z</time>
      </trkpt>
      <trkpt lat="48.00956" lon="6.98181">
        <ele>1305.61</ele>
        <time>2022-10-05T12:28:38Z</time>
      </trkpt>
      <trkpt lat="48.00956" lon="6.98179">
        <ele>1300.32</ele>
        <time>2022-10-05T12:28:39Z</time>
      </trkpt>
      <trkpt lat="48.00955" lon="6.98176">
        <ele>1303.2</ele>
        <time>2022-10-05T12:28:43Z</time>
      </trkpt>
      <trkpt lat="48.00954" lon="6.98174">
        <ele>1302.72</ele>
        <time>2022-10-05T12:28:48Z</time>
      </trkpt>
      <trkpt lat="48.0095" lon="6.98169">
        <ele>1301.76</ele>
        <time>2022-10-05T12:28:53Z</time>
      </trkpt>
      <trkpt lat="48.00937" lon="6.98165">
        <ele>1298.4</ele>
        <time>2022-10-05T12:29:06Z</time>
      </trkpt>
      <trkpt lat="48.00933" lon="6.98163">
        <ele>1297.44</ele>
        <time>2022-10-05T12:29:10Z</time>
      </trkpt>
      <trkpt lat="48.00931" lon="6.98162">
        <ele>1303.2</ele>
        <time>2022-10-05T12:29:12Z</time>
      </trkpt>
      <trkpt lat="48.0093" lon="6.98162">
        <ele>1296.96</ele>
        <time>2022-10-05T12:29:13Z</time>
      </trkpt>
      <trkpt lat="48.00922" lon="6.98157">
        <ele>1295.51</ele>
        <time>2022-10-05T12:29:22Z</time>
      </trkpt>
      <trkpt lat="48.00922" lon="6.98157">
        <ele>1299.36</ele>
        <time>2022-10-05T12:29:23Z</time>
      </trkpt>
      <trkpt lat="48.0092" lon="6.98155">
        <ele>1298.4</ele>
        <time>2022-10-05T12:29:26Z</time>
      </trkpt>
      <trkpt lat="48.00916" lon="6.98151">
        <ele>1295.99</ele>
        <time>2022-10-05T12:29:30Z</time>
      </trkpt>
      <trkpt lat="48.00912" lon="6.98149">
        <ele>1292.63</ele>
        <time>2022-10-05T12:29:34Z</time>
      </trkpt>
      <trkpt lat="48.00911" lon="6.98148">
        <ele>1297.44</ele>
        <time>2022-10-05T12:29:35Z</time>
      </trkpt>
      <trkpt lat="48.00908" lon="6.98146">
        <ele>1293.59</ele>
        <time>2022-10-05T12:29:38Z</time>
      </trkpt>
      <trkpt lat="48.00907" lon="6.98145">
        <ele>1296.96</ele>
        <time>2022-10-05T12:29:39Z</time>
      </trkpt>
      <trkpt lat="48.00905" lon="6.98144">
        <ele>1295.51</ele>
        <time>2022-10-05T12:29:40Z</time>
      </trkpt>
      <trkpt lat="48.00904" lon="6.98143">
        <ele>1291.67</ele>
        <time>2022-10-05T12:29:41Z</time>
      </trkpt>
      <trkpt lat="48.00903" lon="6.98143">
        <ele>1292.15</ele>
        <time>2022-10-05T12:29:42Z</time>
      </trkpt>
      <trkpt lat="48.00902" lon="6.98141">
        <ele>1295.99</ele>
        <time>2022-10-05T12:29:44Z</time>
      </trkpt>
      <trkpt lat="48.00892" lon="6.98135">
        <ele>1293.11</ele>
        <time>2022-10-05T12:29:52Z</time>
      </trkpt>
      <trkpt lat="48.00888" lon="6.98133">
        <ele>1290.71</ele>
        <time>2022-10-05T12:29:55Z</time>
      </trkpt>
      <trkpt lat="48.00884" lon="6.98129">
        <ele>1290.71</ele>
        <time>2022-10-05T12:29:59Z</time>
      </trkpt>
      <trkpt lat="48.00882" lon="6.98129">
        <ele>1293.11</ele>
        <time>2022-10-05T12:30:01Z</time>
      </trkpt>
      <trkpt lat="48.00881" lon="6.98128">
        <ele>1292.15</ele>
        <time>2022-10-05T12:30:02Z</time>
      </trkpt>
      <trkpt lat="48.0088" lon="6.98127">
        <ele>1288.3</ele>
        <time>2022-10-05T12:30:03Z</time>
      </trkpt>
      <trkpt lat="48.00872" lon="6.98123">
        <ele>1287.82</ele>
        <time>2022-10-05T12:30:09Z</time>
      </trkpt>
      <trkpt lat="48.0087" lon="6.98122">
        <ele>1291.67</ele>
        <time>2022-10-05T12:30:11Z</time>
      </trkpt>
      <trkpt lat="48.00869" lon="6.98121">
        <ele>1286.86</ele>
        <time>2022-10-05T12:30:12Z</time>
      </trkpt>
      <trkpt lat="48.00867" lon="6.98121">
        <ele>1290.71</ele>
        <time>2022-10-05T12:30:14Z</time>
      </trkpt>
      <trkpt lat="48.00865" lon="6.9812">
        <ele>1288.78</ele>
        <time>2022-10-05T12:30:15Z</time>
      </trkpt>
      <trkpt lat="48.00864" lon="6.98119">
        <ele>1287.34</ele>
        <time>2022-10-05T12:30:16Z</time>
      </trkpt>
      <trkpt lat="48.00862" lon="6.98118">
        <ele>1291.19</ele>
        <time>2022-10-05T12:30:18Z</time>
      </trkpt>
      <trkpt lat="48.00861" lon="6.98116">
        <ele>1287.34</ele>
        <time>2022-10-05T12:30:19Z</time>
      </trkpt>
      <trkpt lat="48.00858" lon="6.98113">
        <ele>1287.82</ele>
        <time>2022-10-05T12:30:23Z</time>
      </trkpt>
      <trkpt lat="48.00856" lon="6.98111">
        <ele>1284.94</ele>
        <time>2022-10-05T12:30:25Z</time>
      </trkpt>
      <trkpt lat="48.00856" lon="6.98111">
        <ele>1285.42</ele>
        <time>2022-10-05T12:30:26Z</time>
      </trkpt>
      <trkpt lat="48.00853" lon="6.98109">
        <ele>1286.86</ele>
        <time>2022-10-05T12:30:29Z</time>
      </trkpt>
      <trkpt lat="48.00852" lon="6.98109">
        <ele>1286.38</ele>
        <time>2022-10-05T12:30:30Z</time>
      </trkpt>
      <trkpt lat="48.00851" lon="6.98108">
        <ele>1281.09</ele>
        <time>2022-10-05T12:30:31Z</time>
      </trkpt>
      <trkpt lat="48.00849" lon="6.98107">
        <ele>1287.82</ele>
        <time>2022-10-05T12:30:32Z</time>
      </trkpt>
      <trkpt lat="48.00848" lon="6.98106">
        <ele>1280.61</ele>
        <time>2022-10-05T12:30:33Z</time>
      </trkpt>
      <trkpt lat="48.00836" lon="6.98101">
        <ele>1283.5</ele>
        <time>2022-10-05T12:30:45Z</time>
      </trkpt>
      <trkpt lat="48.00835" lon="6.981">
        <ele>1278.69</ele>
        <time>2022-10-05T12:30:47Z</time>
      </trkpt>
      <trkpt lat="48.00831" lon="6.981">
        <ele>1280.61</ele>
        <time>2022-10-05T12:30:51Z</time>
      </trkpt>
      <trkpt lat="48.00829" lon="6.98099">
        <ele>1277.25</ele>
        <time>2022-10-05T12:30:54Z</time>
      </trkpt>
      <trkpt lat="48.00828" lon="6.98099">
        <ele>1280.13</ele>
        <time>2022-10-05T12:30:56Z</time>
      </trkpt>
      <trkpt lat="48.00827" lon="6.98099">
        <ele>1275.33</ele>
        <time>2022-10-05T12:30:57Z</time>
      </trkpt>
      <trkpt lat="48.00826" lon="6.98098">
        <ele>1278.69</ele>
        <time>2022-10-05T12:30:58Z</time>
      </trkpt>
      <trkpt lat="48.00823" lon="6.98098">
        <ele>1275.33</ele>
        <time>2022-10-05T12:31:02Z</time>
      </trkpt>
      <trkpt lat="48.0082" lon="6.98098">
        <ele>1278.69</ele>
        <time>2022-10-05T12:31:15Z</time>
      </trkpt>
      <trkpt lat="48.0082" lon="6.98098">
        <ele>1277.73</ele>
        <time>2022-10-05T12:31:16Z</time>
      </trkpt>
      <trkpt lat="48.00821" lon="6.98098">
        <ele>1274.85</ele>
        <time>2022-10-05T12:31:22Z</time>
      </trkpt>
      <trkpt lat="48.00821" lon="6.98098">
        <ele>1273.88</ele>
        <time>2022-10-05T12:31:24Z</time>
      </trkpt>
      <trkpt lat="48.00821" lon="6.98098">
        <ele>1276.29</ele>
        <time>2022-10-05T12:31:39Z</time>
      </trkpt>
      <trkpt lat="48.0082" lon="6.98097">
        <ele>1277.25</ele>
        <time>2022-10-05T12:31:41Z</time>
      </trkpt>
      <trkpt lat="48.00817" lon="6.98096">
        <ele>1272.92</ele>
        <time>2022-10-05T12:31:48Z</time>
      </trkpt>
      <trkpt lat="48.00816" lon="6.98096">
        <ele>1273.88</ele>
        <time>2022-10-05T12:31:49Z</time>
      </trkpt>
      <trkpt lat="48.00815" lon="6.98095">
        <ele>1276.29</ele>
        <time>2022-10-05T12:31:50Z</time>
      </trkpt>
      <trkpt lat="48.00813" lon="6.98094">
        <ele>1273.88</ele>
        <time>2022-10-05T12:31:53Z</time>
      </trkpt>
      <trkpt lat="48.00804" lon="6.98091">
        <ele>1270.52</ele>
        <time>2022-10-05T12:32:01Z</time>
      </trkpt>
      <trkpt lat="48.00798" lon="6.98087">
        <ele>1270.52</ele>
        <time>2022-10-05T12:32:08Z</time>
      </trkpt>
      <trkpt lat="48.00793" lon="6.98084">
        <ele>1267.64</ele>
        <time>2022-10-05T12:32:13Z</time>
      </trkpt>
      <trkpt lat="48.00783" lon="6.98081">
        <ele>1263.31</ele>
        <time>2022-10-05T12:32:22Z</time>
      </trkpt>
      <trkpt lat="48.00783" lon="6.98081">
        <ele>1267.16</ele>
        <time>2022-10-05T12:32:23Z</time>
      </trkpt>
      <trkpt lat="48.00782" lon="6.98082">
        <ele>1268.6</ele>
        <time>2022-10-05T12:32:24Z</time>
      </trkpt>
      <trkpt lat="48.00776" lon="6.98081">
        <ele>1265.23</ele>
        <time>2022-10-05T12:32:31Z</time>
      </trkpt>
      <trkpt lat="48.00773" lon="6.98081">
        <ele>1261.87</ele>
        <time>2022-10-05T12:32:35Z</time>
      </trkpt>
      <trkpt lat="48.00771" lon="6.9808">
        <ele>1265.23</ele>
        <time>2022-10-05T12:32:37Z</time>
      </trkpt>
      <trkpt lat="48.00771" lon="6.98079">
        <ele>1260.91</ele>
        <time>2022-10-05T12:32:38Z</time>
      </trkpt>
      <trkpt lat="48.00768" lon="6.98078">
        <ele>1265.23</ele>
        <time>2022-10-05T12:32:41Z</time>
      </trkpt>
      <trkpt lat="48.00767" lon="6.98077">
        <ele>1261.87</ele>
        <time>2022-10-05T12:32:43Z</time>
      </trkpt>
      <trkpt lat="48.00766" lon="6.98076">
        <ele>1256.1</ele>
        <time>2022-10-05T12:32:44Z</time>
      </trkpt>
      <trkpt lat="48.00765" lon="6.98076">
        <ele>1258.02</ele>
        <time>2022-10-05T12:32:45Z</time>
      </trkpt>
      <trkpt lat="48.00764" lon="6.98076">
        <ele>1263.31</ele>
        <time>2022-10-05T12:32:46Z</time>
      </trkpt>
      <trkpt lat="48.00763" lon="6.98076">
        <ele>1258.5</ele>
        <time>2022-10-05T12:32:47Z</time>
      </trkpt>
      <trkpt lat="48.0076" lon="6.98075">
        <ele>1255.14</ele>
        <time>2022-10-05T12:32:53Z</time>
      </trkpt>
      <trkpt lat="48.0076" lon="6.98075">
        <ele>1260.91</ele>
        <time>2022-10-05T12:32:54Z</time>
      </trkpt>
      <trkpt lat="48.00756" lon="6.98073">
        <ele>1253.22</ele>
        <time>2022-10-05T12:32:57Z</time>
      </trkpt>
      <trkpt lat="48.00755" lon="6.98073">
        <ele>1258.98</ele>
        <time>2022-10-05T12:32:58Z</time>
      </trkpt>
      <trkpt lat="48.00748" lon="6.98073">
        <ele>1255.62</ele>
        <time>2022-10-05T12:33:04Z</time>
      </trkpt>
      <trkpt lat="48.00743" lon="6.98071">
        <ele>1249.85</ele>
        <time>2022-10-05T12:33:08Z</time>
      </trkpt>
      <trkpt lat="48.00742" lon="6.98071">
        <ele>1249.85</ele>
        <time>2022-10-05T12:33:09Z</time>
      </trkpt>
      <trkpt lat="48.00741" lon="6.9807">
        <ele>1254.66</ele>
        <time>2022-10-05T12:33:10Z</time>
      </trkpt>
      <trkpt lat="48.00741" lon="6.98069">
        <ele>1254.66</ele>
        <time>2022-10-05T12:33:11Z</time>
      </trkpt>
      <trkpt lat="48.00738" lon="6.98067">
        <ele>1249.85</ele>
        <time>2022-10-05T12:33:15Z</time>
      </trkpt>
      <trkpt lat="48.00737" lon="6.98067">
        <ele>1249.85</ele>
        <time>2022-10-05T12:33:18Z</time>
      </trkpt>
      <trkpt lat="48.00735" lon="6.98066">
        <ele>1252.74</ele>
        <time>2022-10-05T12:33:20Z</time>
      </trkpt>
      <trkpt lat="48.0073" lon="6.98065">
        <ele>1249.37</ele>
        <time>2022-10-05T12:33:26Z</time>
      </trkpt>
      <trkpt lat="48.00726" lon="6.98064">
        <ele>1245.04</ele>
        <time>2022-10-05T12:33:31Z</time>
      </trkpt>
      <trkpt lat="48.00725" lon="6.98064">
        <ele>1247.93</ele>
        <time>2022-10-05T12:33:32Z</time>
      </trkpt>
      <trkpt lat="48.00722" lon="6.98063">
        <ele>1247.45</ele>
        <time>2022-10-05T12:33:35Z</time>
      </trkpt>
      <trkpt lat="48.0072" lon="6.98063">
        <ele>1244.56</ele>
        <time>2022-10-05T12:33:37Z</time>
      </trkpt>
      <trkpt lat="48.00719" lon="6.98063">
        <ele>1248.89</ele>
        <time>2022-10-05T12:33:38Z</time>
      </trkpt>
      <trkpt lat="48.00719" lon="6.98063">
        <ele>1243.6</ele>
        <time>2022-10-05T12:33:39Z</time>
      </trkpt>
      <trkpt lat="48.00706" lon="6.98058">
        <ele>1239.28</ele>
        <time>2022-10-05T12:33:51Z</time>
      </trkpt>
      <trkpt lat="48.00706" lon="6.98058">
        <ele>1240.72</ele>
        <time>2022-10-05T12:33:52Z</time>
      </trkpt>
      <trkpt lat="48.00702" lon="6.98058">
        <ele>1243.12</ele>
        <time>2022-10-05T12:33:55Z</time>
      </trkpt>
      <trkpt lat="48.00701" lon="6.98058">
        <ele>1235.91</ele>
        <time>2022-10-05T12:33:56Z</time>
      </trkpt>
      <trkpt lat="48.007" lon="6.98058">
        <ele>1243.12</ele>
        <time>2022-10-05T12:33:57Z</time>
      </trkpt>
      <trkpt lat="48.00698" lon="6.98059">
        <ele>1239.76</ele>
        <time>2022-10-05T12:33:59Z</time>
      </trkpt>
      <trkpt lat="48.00697" lon="6.98059">
        <ele>1236.39</ele>
        <time>2022-10-05T12:34:00Z</time>
      </trkpt>
      <trkpt lat="48.00696" lon="6.98059">
        <ele>1238.32</ele>
        <time>2022-10-05T12:34:01Z</time>
      </trkpt>
      <trkpt lat="48.00694" lon="6.98059">
        <ele>1239.28</ele>
        <time>2022-10-05T12:34:03Z</time>
      </trkpt>
      <trkpt lat="48.00692" lon="6.9806">
        <ele>1237.83</ele>
        <time>2022-10-05T12:34:05Z</time>
      </trkpt>
      <trkpt lat="48.00688" lon="6.9806">
        <ele>1236.39</ele>
        <time>2022-10-05T12:34:09Z</time>
      </trkpt>
      <trkpt lat="48.00686" lon="6.9806">
        <ele>1239.76</ele>
        <time>2022-10-05T12:34:12Z</time>
      </trkpt>
      <trkpt lat="48.00685" lon="6.98059">
        <ele>1232.55</ele>
        <time>2022-10-05T12:34:13Z</time>
      </trkpt>
      <trkpt lat="48.00684" lon="6.98059">
        <ele>1233.99</ele>
        <time>2022-10-05T12:34:14Z</time>
      </trkpt>
      <trkpt lat="48.00681" lon="6.98059">
        <ele>1237.83</ele>
        <time>2022-10-05T12:34:18Z</time>
      </trkpt>
      <trkpt lat="48.0068" lon="6.98058">
        <ele>1232.55</ele>
        <time>2022-10-05T12:34:19Z</time>
      </trkpt>
      <trkpt lat="48.00674" lon="6.98057">
        <ele>1235.91</ele>
        <time>2022-10-05T12:34:23Z</time>
      </trkpt>
      <trkpt lat="48.00672" lon="6.98055">
        <ele>1230.14</ele>
        <time>2022-10-05T12:34:26Z</time>
      </trkpt>
      <trkpt lat="48.00671" lon="6.98054">
        <ele>1231.11</ele>
        <time>2022-10-05T12:34:28Z</time>
      </trkpt>
      <trkpt lat="48.00669" lon="6.98051">
        <ele>1231.59</ele>
        <time>2022-10-05T12:34:30Z</time>
      </trkpt>
      <trkpt lat="48.00661" lon="6.98047">
        <ele>1228.7</ele>
        <time>2022-10-05T12:34:38Z</time>
      </trkpt>
      <trkpt lat="48.00657" lon="6.98046">
        <ele>1227.74</ele>
        <time>2022-10-05T12:34:40Z</time>
      </trkpt>
      <trkpt lat="48.00652" lon="6.98045">
        <ele>1226.3</ele>
        <time>2022-10-05T12:34:44Z</time>
      </trkpt>
      <trkpt lat="48.00648" lon="6.98042">
        <ele>1222.93</ele>
        <time>2022-10-05T12:34:48Z</time>
      </trkpt>
      <trkpt lat="48.00646" lon="6.98042">
        <ele>1221.97</ele>
        <time>2022-10-05T12:34:50Z</time>
      </trkpt>
      <trkpt lat="48.00641" lon="6.98041">
        <ele>1227.74</ele>
        <time>2022-10-05T12:34:55Z</time>
      </trkpt>
      <trkpt lat="48.00639" lon="6.98041">
        <ele>1224.38</ele>
        <time>2022-10-05T12:34:56Z</time>
      </trkpt>
      <trkpt lat="48.00638" lon="6.98041">
        <ele>1220.05</ele>
        <time>2022-10-05T12:34:57Z</time>
      </trkpt>
      <trkpt lat="48.00637" lon="6.98041">
        <ele>1221.97</ele>
        <time>2022-10-05T12:34:58Z</time>
      </trkpt>
      <trkpt lat="48.00636" lon="6.98041">
        <ele>1222.93</ele>
        <time>2022-10-05T12:35:00Z</time>
      </trkpt>
      <trkpt lat="48.00635" lon="6.98041">
        <ele>1220.53</ele>
        <time>2022-10-05T12:35:01Z</time>
      </trkpt>
      <trkpt lat="48.00634" lon="6.98039">
        <ele>1221.97</ele>
        <time>2022-10-05T12:35:03Z</time>
      </trkpt>
      <trkpt lat="48.00629" lon="6.98039">
        <ele>1219.09</ele>
        <time>2022-10-05T12:35:08Z</time>
      </trkpt>
      <trkpt lat="48.00627" lon="6.98039">
        <ele>1220.53</ele>
        <time>2022-10-05T12:35:11Z</time>
      </trkpt>
      <trkpt lat="48.00624" lon="6.98039">
        <ele>1214.76</ele>
        <time>2022-10-05T12:35:14Z</time>
      </trkpt>
      <trkpt lat="48.00623" lon="6.98039">
        <ele>1219.09</ele>
        <time>2022-10-05T12:35:15Z</time>
      </trkpt>
      <trkpt lat="48.00623" lon="6.98039">
        <ele>1224.38</ele>
        <time>2022-10-05T12:35:16Z</time>
      </trkpt>
      <trkpt lat="48.00622" lon="6.98039">
        <ele>1220.05</ele>
        <time>2022-10-05T12:35:17Z</time>
      </trkpt>
      <trkpt lat="48.00619" lon="6.98037">
        <ele>1216.69</ele>
        <time>2022-10-05T12:35:20Z</time>
      </trkpt>
      <trkpt lat="48.00618" lon="6.98037">
        <ele>1217.17</ele>
        <time>2022-10-05T12:35:21Z</time>
      </trkpt>
      <trkpt lat="48.00617" lon="6.98036">
        <ele>1219.09</ele>
        <time>2022-10-05T12:35:22Z</time>
      </trkpt>
      <trkpt lat="48.00612" lon="6.98033">
        <ele>1217.17</ele>
        <time>2022-10-05T12:35:26Z</time>
      </trkpt>
      <trkpt lat="48.0061" lon="6.98031">
        <ele>1216.21</ele>
        <time>2022-10-05T12:35:28Z</time>
      </trkpt>
      <trkpt lat="48.00602" lon="6.98028">
        <ele>1212.84</ele>
        <time>2022-10-05T12:35:36Z</time>
      </trkpt>
      <trkpt lat="48.00598" lon="6.98027">
        <ele>1216.69</ele>
        <time>2022-10-05T12:35:40Z</time>
      </trkpt>
      <trkpt lat="48.00596" lon="6.98026">
        <ele>1211.88</ele>
        <time>2022-10-05T12:35:42Z</time>
      </trkpt>
      <trkpt lat="48.00595" lon="6.98026">
        <ele>1211.88</ele>
        <time>2022-10-05T12:35:43Z</time>
      </trkpt>
      <trkpt lat="48.00591" lon="6.98024">
        <ele>1208.03</ele>
        <time>2022-10-05T12:35:47Z</time>
      </trkpt>
      <trkpt lat="48.0059" lon="6.98024">
        <ele>1216.21</ele>
        <time>2022-10-05T12:35:48Z</time>
      </trkpt>
      <trkpt lat="48.0059" lon="6.98023">
        <ele>1210.92</ele>
        <time>2022-10-05T12:35:49Z</time>
      </trkpt>
      <trkpt lat="48.00586" lon="6.98021">
        <ele>1215.24</ele>
        <time>2022-10-05T12:35:53Z</time>
      </trkpt>
      <trkpt lat="48.00585" lon="6.98021">
        <ele>1209.48</ele>
        <time>2022-10-05T12:35:54Z</time>
      </trkpt>
      <trkpt lat="48.00582" lon="6.98019">
        <ele>1209</ele>
        <time>2022-10-05T12:35:56Z</time>
      </trkpt>
      <trkpt lat="48.00581" lon="6.98019">
        <ele>1211.4</ele>
        <time>2022-10-05T12:35:57Z</time>
      </trkpt>
      <trkpt lat="48.00578" lon="6.98017">
        <ele>1209.96</ele>
        <time>2022-10-05T12:35:59Z</time>
      </trkpt>
      <trkpt lat="48.00577" lon="6.98016">
        <ele>1206.59</ele>
        <time>2022-10-05T12:36:00Z</time>
      </trkpt>
      <trkpt lat="48.0057" lon="6.98014">
        <ele>1210.92</ele>
        <time>2022-10-05T12:36:06Z</time>
      </trkpt>
      <trkpt lat="48.00569" lon="6.98013">
        <ele>1207.55</ele>
        <time>2022-10-05T12:36:07Z</time>
      </trkpt>
      <trkpt lat="48.00567" lon="6.98013">
        <ele>1210.92</ele>
        <time>2022-10-05T12:36:08Z</time>
      </trkpt>
      <trkpt lat="48.00564" lon="6.98013">
        <ele>1205.15</ele>
        <time>2022-10-05T12:36:10Z</time>
      </trkpt>
      <trkpt lat="48.00563" lon="6.98012">
        <ele>1209.96</ele>
        <time>2022-10-05T12:36:11Z</time>
      </trkpt>
      <trkpt lat="48.00556" lon="6.98008">
        <ele>1210.92</ele>
        <time>2022-10-05T12:36:18Z</time>
      </trkpt>
      <trkpt lat="48.00555" lon="6.98008">
        <ele>1207.55</ele>
        <time>2022-10-05T12:36:19Z</time>
      </trkpt>
      <trkpt lat="48.00554" lon="6.98007">
        <ele>1204.19</ele>
        <time>2022-10-05T12:36:20Z</time>
      </trkpt>
      <trkpt lat="48.00552" lon="6.98006">
        <ele>1205.63</ele>
        <time>2022-10-05T12:36:21Z</time>
      </trkpt>
      <trkpt lat="48.00549" lon="6.98004">
        <ele>1210.44</ele>
        <time>2022-10-05T12:36:24Z</time>
      </trkpt>
      <trkpt lat="48.00548" lon="6.98003">
        <ele>1209.48</ele>
        <time>2022-10-05T12:36:25Z</time>
      </trkpt>
      <trkpt lat="48.00547" lon="6.98003">
        <ele>1204.19</ele>
        <time>2022-10-05T12:36:27Z</time>
      </trkpt>
      <trkpt lat="48.00547" lon="6.98003">
        <ele>1204.67</ele>
        <time>2022-10-05T12:36:28Z</time>
      </trkpt>
      <trkpt lat="48.00547" lon="6.98002">
        <ele>1208.03</ele>
        <time>2022-10-05T12:36:29Z</time>
      </trkpt>
      <trkpt lat="48.00547" lon="6.98002">
        <ele>1205.63</ele>
        <time>2022-10-05T12:36:30Z</time>
      </trkpt>
      <trkpt lat="48.00546" lon="6.98001">
        <ele>1205.63</ele>
        <time>2022-10-05T12:36:42Z</time>
      </trkpt>
      <trkpt lat="48.00546" lon="6.98001">
        <ele>1207.07</ele>
        <time>2022-10-05T12:36:44Z</time>
      </trkpt>
      <trkpt lat="48.00545" lon="6.97999">
        <ele>1205.63</ele>
        <time>2022-10-05T12:36:58Z</time>
      </trkpt>
      <trkpt lat="48.00545" lon="6.97999">
        <ele>1205.63</ele>
        <time>2022-10-05T12:37:08Z</time>
      </trkpt>
      <trkpt lat="48.00545" lon="6.97999">
        <ele>1209.96</ele>
        <time>2022-10-05T12:37:15Z</time>
      </trkpt>
      <trkpt lat="48.00545" lon="6.97999">
        <ele>1203.23</ele>
        <time>2022-10-05T12:37:16Z</time>
      </trkpt>
      <trkpt lat="48.00545" lon="6.97999">
        <ele>1207.07</ele>
        <time>2022-10-05T12:37:17Z</time>
      </trkpt>
      <trkpt lat="48.00545" lon="6.98">
        <ele>1208.03</ele>
        <time>2022-10-05T12:37:36Z</time>
      </trkpt>
      <trkpt lat="48.00545" lon="6.97997">
        <ele>1204.19</ele>
        <time>2022-10-05T12:37:41Z</time>
      </trkpt>
      <trkpt lat="48.00545" lon="6.97997">
        <ele>1205.15</ele>
        <time>2022-10-05T12:37:42Z</time>
      </trkpt>
      <trkpt lat="48.00545" lon="6.97998">
        <ele>1208.03</ele>
        <time>2022-10-05T12:37:44Z</time>
      </trkpt>
      <trkpt lat="48.00543" lon="6.98007">
        <ele>1204.19</ele>
        <time>2022-10-05T12:37:49Z</time>
      </trkpt>
      <trkpt lat="48.00541" lon="6.98013">
        <ele>1206.59</ele>
        <time>2022-10-05T12:37:53Z</time>
      </trkpt>
      <trkpt lat="48.00539" lon="6.9802">
        <ele>1205.15</ele>
        <time>2022-10-05T12:37:57Z</time>
      </trkpt>
      <trkpt lat="48.00536" lon="6.98033">
        <ele>1204.19</ele>
        <time>2022-10-05T12:38:04Z</time>
      </trkpt>
      <trkpt lat="48.00536" lon="6.98036">
        <ele>1208.03</ele>
        <time>2022-10-05T12:38:06Z</time>
      </trkpt>
      <trkpt lat="48.00535" lon="6.98038">
        <ele>1207.07</ele>
        <time>2022-10-05T12:38:07Z</time>
      </trkpt>
      <trkpt lat="48.00535" lon="6.9804">
        <ele>1207.07</ele>
        <time>2022-10-05T12:38:08Z</time>
      </trkpt>
      <trkpt lat="48.00531" lon="6.98051">
        <ele>1202.27</ele>
        <time>2022-10-05T12:38:14Z</time>
      </trkpt>
      <trkpt lat="48.00531" lon="6.98053">
        <ele>1206.59</ele>
        <time>2022-10-05T12:38:15Z</time>
      </trkpt>
      <trkpt lat="48.00528" lon="6.98062">
        <ele>1203.23</ele>
        <time>2022-10-05T12:38:20Z</time>
      </trkpt>
      <trkpt lat="48.00524" lon="6.98072">
        <ele>1207.07</ele>
        <time>2022-10-05T12:38:26Z</time>
      </trkpt>
      <trkpt lat="48.00524" lon="6.98073">
        <ele>1204.19</ele>
        <time>2022-10-05T12:38:27Z</time>
      </trkpt>
      <trkpt lat="48.00522" lon="6.98078">
        <ele>1206.11</ele>
        <time>2022-10-05T12:38:30Z</time>
      </trkpt>
      <trkpt lat="48.00521" lon="6.98079">
        <ele>1202.75</ele>
        <time>2022-10-05T12:38:31Z</time>
      </trkpt>
      <trkpt lat="48.00521" lon="6.98081">
        <ele>1204.19</ele>
        <time>2022-10-05T12:38:32Z</time>
      </trkpt>
      <trkpt lat="48.0052" lon="6.98084">
        <ele>1208.03</ele>
        <time>2022-10-05T12:38:34Z</time>
      </trkpt>
      <trkpt lat="48.00519" lon="6.98086">
        <ele>1203.23</ele>
        <time>2022-10-05T12:38:35Z</time>
      </trkpt>
      <trkpt lat="48.00519" lon="6.98087">
        <ele>1203.71</ele>
        <time>2022-10-05T12:38:36Z</time>
      </trkpt>
      <trkpt lat="48.00517" lon="6.98096">
        <ele>1203.23</ele>
        <time>2022-10-05T12:38:43Z</time>
      </trkpt>
      <trkpt lat="48.00513" lon="6.981">
        <ele>1204.67</ele>
        <time>2022-10-05T12:38:57Z</time>
      </trkpt>
      <trkpt lat="48.00512" lon="6.98101">
        <ele>1202.75</ele>
        <time>2022-10-05T12:38:59Z</time>
      </trkpt>
      <trkpt lat="48.00508" lon="6.98106">
        <ele>1200.82</ele>
        <time>2022-10-05T12:39:04Z</time>
      </trkpt>
      <trkpt lat="48.00506" lon="6.98108">
        <ele>1205.63</ele>
        <time>2022-10-05T12:39:07Z</time>
      </trkpt>
      <trkpt lat="48.00505" lon="6.98109">
        <ele>1203.71</ele>
        <time>2022-10-05T12:39:08Z</time>
      </trkpt>
      <trkpt lat="48.00505" lon="6.98109">
        <ele>1200.34</ele>
        <time>2022-10-05T12:39:14Z</time>
      </trkpt>
      <trkpt lat="48.00505" lon="6.98109">
        <ele>1204.19</ele>
        <time>2022-10-05T12:39:16Z</time>
      </trkpt>
      <trkpt lat="48.00505" lon="6.98109">
        <ele>1203.23</ele>
        <time>2022-10-05T12:39:17Z</time>
      </trkpt>
      <trkpt lat="48.00504" lon="6.98109">
        <ele>1202.75</ele>
        <time>2022-10-05T12:39:29Z</time>
      </trkpt>
      <trkpt lat="48.00504" lon="6.98109">
        <ele>1204.19</ele>
        <time>2022-10-05T12:39:31Z</time>
      </trkpt>
      <trkpt lat="48.00506" lon="6.98107">
        <ele>1204.67</ele>
        <time>2022-10-05T12:39:33Z</time>
      </trkpt>
      <trkpt lat="48.0051" lon="6.98103">
        <ele>1205.63</ele>
        <time>2022-10-05T12:39:37Z</time>
      </trkpt>
      <trkpt lat="48.00517" lon="6.98089">
        <ele>1209</ele>
        <time>2022-10-05T12:39:51Z</time>
      </trkpt>
      <trkpt lat="48.00519" lon="6.98086">
        <ele>1207.07</ele>
        <time>2022-10-05T12:39:53Z</time>
      </trkpt>
      <trkpt lat="48.00524" lon="6.9808">
        <ele>1204.19</ele>
        <time>2022-10-05T12:39:58Z</time>
      </trkpt>
      <trkpt lat="48.00525" lon="6.98078">
        <ele>1207.55</ele>
        <time>2022-10-05T12:39:59Z</time>
      </trkpt>
      <trkpt lat="48.00525" lon="6.98076">
        <ele>1206.59</ele>
        <time>2022-10-05T12:40:00Z</time>
      </trkpt>
      <trkpt lat="48.00531" lon="6.98059">
        <ele>1205.63</ele>
        <time>2022-10-05T12:40:12Z</time>
      </trkpt>
      <trkpt lat="48.00533" lon="6.98044">
        <ele>1206.59</ele>
        <time>2022-10-05T12:40:21Z</time>
      </trkpt>
      <trkpt lat="48.00534" lon="6.9804">
        <ele>1209.48</ele>
        <time>2022-10-05T12:40:24Z</time>
      </trkpt>
      <trkpt lat="48.00535" lon="6.98038">
        <ele>1209</ele>
        <time>2022-10-05T12:40:25Z</time>
      </trkpt>
      <trkpt lat="48.00535" lon="6.98037">
        <ele>1205.15</ele>
        <time>2022-10-05T12:40:26Z</time>
      </trkpt>
      <trkpt lat="48.00536" lon="6.98034">
        <ele>1209</ele>
        <time>2022-10-05T12:40:28Z</time>
      </trkpt>
      <trkpt lat="48.00536" lon="6.98032">
        <ele>1207.55</ele>
        <time>2022-10-05T12:40:29Z</time>
      </trkpt>
      <trkpt lat="48.00537" lon="6.98029">
        <ele>1202.75</ele>
        <time>2022-10-05T12:40:31Z</time>
      </trkpt>
      <trkpt lat="48.00538" lon="6.98026">
        <ele>1207.55</ele>
        <time>2022-10-05T12:40:33Z</time>
      </trkpt>
      <trkpt lat="48.00538" lon="6.98024">
        <ele>1203.23</ele>
        <time>2022-10-05T12:40:34Z</time>
      </trkpt>
      <trkpt lat="48.00539" lon="6.98022">
        <ele>1205.63</ele>
        <time>2022-10-05T12:40:35Z</time>
      </trkpt>
      <trkpt lat="48.00541" lon="6.98012">
        <ele>1208.03</ele>
        <time>2022-10-05T12:40:41Z</time>
      </trkpt>
      <trkpt lat="48.00542" lon="6.98007">
        <ele>1209</ele>
        <time>2022-10-05T12:40:44Z</time>
      </trkpt>
      <trkpt lat="48.00543" lon="6.97981">
        <ele>1211.4</ele>
        <time>2022-10-05T12:41:00Z</time>
      </trkpt>
      <trkpt lat="48.00543" lon="6.97979">
        <ele>1208.03</ele>
        <time>2022-10-05T12:41:01Z</time>
      </trkpt>
      <trkpt lat="48.00541" lon="6.97969">
        <ele>1204.19</ele>
        <time>2022-10-05T12:41:07Z</time>
      </trkpt>
      <trkpt lat="48.00541" lon="6.97967">
        <ele>1207.55</ele>
        <time>2022-10-05T12:41:08Z</time>
      </trkpt>
      <trkpt lat="48.0054" lon="6.97965">
        <ele>1207.55</ele>
        <time>2022-10-05T12:41:09Z</time>
      </trkpt>
      <trkpt lat="48.00539" lon="6.97959">
        <ele>1205.15</ele>
        <time>2022-10-05T12:41:12Z</time>
      </trkpt>
      <trkpt lat="48.00536" lon="6.97951">
        <ele>1204.19</ele>
        <time>2022-10-05T12:41:17Z</time>
      </trkpt>
      <trkpt lat="48.00535" lon="6.97947">
        <ele>1207.07</ele>
        <time>2022-10-05T12:41:19Z</time>
      </trkpt>
      <trkpt lat="48.00535" lon="6.97945">
        <ele>1206.59</ele>
        <time>2022-10-05T12:41:20Z</time>
      </trkpt>
      <trkpt lat="48.00533" lon="6.97942">
        <ele>1203.23</ele>
        <time>2022-10-05T12:41:23Z</time>
      </trkpt>
      <trkpt lat="48.00533" lon="6.97939">
        <ele>1207.55</ele>
        <time>2022-10-05T12:41:25Z</time>
      </trkpt>
      <trkpt lat="48.00531" lon="6.97934">
        <ele>1204.19</ele>
        <time>2022-10-05T12:41:28Z</time>
      </trkpt>
      <trkpt lat="48.00529" lon="6.97928">
        <ele>1207.55</ele>
        <time>2022-10-05T12:41:31Z</time>
      </trkpt>
      <trkpt lat="48.00528" lon="6.9792">
        <ele>1201.3</ele>
        <time>2022-10-05T12:41:35Z</time>
      </trkpt>
      <trkpt lat="48.00527" lon="6.97919">
        <ele>1202.75</ele>
        <time>2022-10-05T12:41:36Z</time>
      </trkpt>
      <trkpt lat="48.00527" lon="6.97917">
        <ele>1199.38</ele>
        <time>2022-10-05T12:41:37Z</time>
      </trkpt>
      <trkpt lat="48.00527" lon="6.97915">
        <ele>1204.67</ele>
        <time>2022-10-05T12:41:38Z</time>
      </trkpt>
      <trkpt lat="48.00525" lon="6.97904">
        <ele>1200.82</ele>
        <time>2022-10-05T12:41:45Z</time>
      </trkpt>
      <trkpt lat="48.00525" lon="6.97903">
        <ele>1200.82</ele>
        <time>2022-10-05T12:41:46Z</time>
      </trkpt>
      <trkpt lat="48.00524" lon="6.979">
        <ele>1203.23</ele>
        <time>2022-10-05T12:41:48Z</time>
      </trkpt>
      <trkpt lat="48.00523" lon="6.97899">
        <ele>1199.86</ele>
        <time>2022-10-05T12:41:49Z</time>
      </trkpt>
      <trkpt lat="48.00523" lon="6.97897">
        <ele>1203.23</ele>
        <time>2022-10-05T12:41:50Z</time>
      </trkpt>
      <trkpt lat="48.00522" lon="6.97895">
        <ele>1205.63</ele>
        <time>2022-10-05T12:41:51Z</time>
      </trkpt>
      <trkpt lat="48.0052" lon="6.97892">
        <ele>1200.82</ele>
        <time>2022-10-05T12:41:53Z</time>
      </trkpt>
      <trkpt lat="48.00519" lon="6.97889">
        <ele>1199.86</ele>
        <time>2022-10-05T12:41:55Z</time>
      </trkpt>
      <trkpt lat="48.00517" lon="6.97888">
        <ele>1201.3</ele>
        <time>2022-10-05T12:41:57Z</time>
      </trkpt>
      <trkpt lat="48.00514" lon="6.97884">
        <ele>1199.86</ele>
        <time>2022-10-05T12:42:05Z</time>
      </trkpt>
      <trkpt lat="48.00513" lon="6.97881">
        <ele>1198.42</ele>
        <time>2022-10-05T12:42:07Z</time>
      </trkpt>
      <trkpt lat="48.00512" lon="6.97879">
        <ele>1200.34</ele>
        <time>2022-10-05T12:42:09Z</time>
      </trkpt>
      <trkpt lat="48.00501" lon="6.9787">
        <ele>1197.46</ele>
        <time>2022-10-05T12:42:23Z</time>
      </trkpt>
      <trkpt lat="48.005" lon="6.97869">
        <ele>1196.02</ele>
        <time>2022-10-05T12:42:27Z</time>
      </trkpt>
      <trkpt lat="48.00499" lon="6.97864">
        <ele>1195.06</ele>
        <time>2022-10-05T12:42:47Z</time>
      </trkpt>
      <trkpt lat="48.00502" lon="6.97859">
        <ele>1196.02</ele>
        <time>2022-10-05T12:42:57Z</time>
      </trkpt>
      <trkpt lat="48.00512" lon="6.97858">
        <ele>1196.5</ele>
        <time>2022-10-05T12:43:06Z</time>
      </trkpt>
      <trkpt lat="48.0052" lon="6.97861">
        <ele>1194.58</ele>
        <time>2022-10-05T12:43:13Z</time>
      </trkpt>
      <trkpt lat="48.00523" lon="6.97861">
        <ele>1195.54</ele>
        <time>2022-10-05T12:43:16Z</time>
      </trkpt>
      <trkpt lat="48.00526" lon="6.97862">
        <ele>1193.61</ele>
        <time>2022-10-05T12:43:19Z</time>
      </trkpt>
      <trkpt lat="48.00528" lon="6.97864">
        <ele>1195.06</ele>
        <time>2022-10-05T12:43:22Z</time>
      </trkpt>
      <trkpt lat="48.00537" lon="6.97865">
        <ele>1196.5</ele>
        <time>2022-10-05T12:43:29Z</time>
      </trkpt>
      <trkpt lat="48.00544" lon="6.97868">
        <ele>1192.65</ele>
        <time>2022-10-05T12:43:35Z</time>
      </trkpt>
      <trkpt lat="48.00547" lon="6.97868">
        <ele>1195.54</ele>
        <time>2022-10-05T12:43:37Z</time>
      </trkpt>
      <trkpt lat="48.00551" lon="6.9787">
        <ele>1196.5</ele>
        <time>2022-10-05T12:43:41Z</time>
      </trkpt>
      <trkpt lat="48.00554" lon="6.97871">
        <ele>1193.13</ele>
        <time>2022-10-05T12:43:43Z</time>
      </trkpt>
      <trkpt lat="48.00556" lon="6.97872">
        <ele>1197.94</ele>
        <time>2022-10-05T12:43:45Z</time>
      </trkpt>
      <trkpt lat="48.0056" lon="6.97872">
        <ele>1194.09</ele>
        <time>2022-10-05T12:43:48Z</time>
      </trkpt>
      <trkpt lat="48.00561" lon="6.97873">
        <ele>1197.46</ele>
        <time>2022-10-05T12:43:49Z</time>
      </trkpt>
      <trkpt lat="48.00564" lon="6.97874">
        <ele>1193.13</ele>
        <time>2022-10-05T12:43:52Z</time>
      </trkpt>
      <trkpt lat="48.00566" lon="6.97875">
        <ele>1196.02</ele>
        <time>2022-10-05T12:43:53Z</time>
      </trkpt>
      <trkpt lat="48.00567" lon="6.97875">
        <ele>1196.02</ele>
        <time>2022-10-05T12:43:54Z</time>
      </trkpt>
      <trkpt lat="48.00573" lon="6.97875">
        <ele>1196.98</ele>
        <time>2022-10-05T12:43:59Z</time>
      </trkpt>
      <trkpt lat="48.00575" lon="6.97874">
        <ele>1198.42</ele>
        <time>2022-10-05T12:44:01Z</time>
      </trkpt>
      <trkpt lat="48.00578" lon="6.97874">
        <ele>1196.5</ele>
        <time>2022-10-05T12:44:03Z</time>
      </trkpt>
      <trkpt lat="48.0058" lon="6.97874">
        <ele>1196.02</ele>
        <time>2022-10-05T12:44:05Z</time>
      </trkpt>
      <trkpt lat="48.00586" lon="6.97872">
        <ele>1196.98</ele>
        <time>2022-10-05T12:44:11Z</time>
      </trkpt>
      <trkpt lat="48.00593" lon="6.97869">
        <ele>1196.5</ele>
        <time>2022-10-05T12:44:17Z</time>
      </trkpt>
      <trkpt lat="48.00611" lon="6.97858">
        <ele>1194.58</ele>
        <time>2022-10-05T12:44:33Z</time>
      </trkpt>
      <trkpt lat="48.00613" lon="6.97855">
        <ele>1196.02</ele>
        <time>2022-10-05T12:44:37Z</time>
      </trkpt>
      <trkpt lat="48.00613" lon="6.97852">
        <ele>1194.58</ele>
        <time>2022-10-05T12:44:40Z</time>
      </trkpt>
      <trkpt lat="48.00617" lon="6.97844">
        <ele>1189.77</ele>
        <time>2022-10-05T12:44:47Z</time>
      </trkpt>
      <trkpt lat="48.00617" lon="6.97843">
        <ele>1190.25</ele>
        <time>2022-10-05T12:44:48Z</time>
      </trkpt>
      <trkpt lat="48.00618" lon="6.97842">
        <ele>1194.09</ele>
        <time>2022-10-05T12:44:49Z</time>
      </trkpt>
      <trkpt lat="48.00619" lon="6.9784">
        <ele>1192.17</ele>
        <time>2022-10-05T12:44:50Z</time>
      </trkpt>
      <trkpt lat="48.0062" lon="6.97835">
        <ele>1188.33</ele>
        <time>2022-10-05T12:44:54Z</time>
      </trkpt>
      <trkpt lat="48.00622" lon="6.97829">
        <ele>1187.37</ele>
        <time>2022-10-05T12:45:02Z</time>
      </trkpt>
      <trkpt lat="48.00624" lon="6.97823">
        <ele>1190.73</ele>
        <time>2022-10-05T12:45:06Z</time>
      </trkpt>
      <trkpt lat="48.00624" lon="6.97821">
        <ele>1186.4</ele>
        <time>2022-10-05T12:45:08Z</time>
      </trkpt>
      <trkpt lat="48.00625" lon="6.9782">
        <ele>1188.33</ele>
        <time>2022-10-05T12:45:09Z</time>
      </trkpt>
      <trkpt lat="48.00627" lon="6.97812">
        <ele>1184.48</ele>
        <time>2022-10-05T12:45:14Z</time>
      </trkpt>
      <trkpt lat="48.00627" lon="6.97809">
        <ele>1188.33</ele>
        <time>2022-10-05T12:45:16Z</time>
      </trkpt>
      <trkpt lat="48.00628" lon="6.97806">
        <ele>1183.52</ele>
        <time>2022-10-05T12:45:18Z</time>
      </trkpt>
      <trkpt lat="48.00628" lon="6.97804">
        <ele>1186.4</ele>
        <time>2022-10-05T12:45:19Z</time>
      </trkpt>
      <trkpt lat="48.00629" lon="6.97803">
        <ele>1187.85</ele>
        <time>2022-10-05T12:45:20Z</time>
      </trkpt>
      <trkpt lat="48.00631" lon="6.97798">
        <ele>1188.33</ele>
        <time>2022-10-05T12:45:23Z</time>
      </trkpt>
      <trkpt lat="48.00631" lon="6.97797">
        <ele>1185.44</ele>
        <time>2022-10-05T12:45:24Z</time>
      </trkpt>
      <trkpt lat="48.00633" lon="6.9779">
        <ele>1183.04</ele>
        <time>2022-10-05T12:45:28Z</time>
      </trkpt>
      <trkpt lat="48.00633" lon="6.97789">
        <ele>1186.88</ele>
        <time>2022-10-05T12:45:29Z</time>
      </trkpt>
      <trkpt lat="48.00634" lon="6.97787">
        <ele>1184.96</ele>
        <time>2022-10-05T12:45:30Z</time>
      </trkpt>
      <trkpt lat="48.00634" lon="6.97782">
        <ele>1180.64</ele>
        <time>2022-10-05T12:45:33Z</time>
      </trkpt>
      <trkpt lat="48.00633" lon="6.97778">
        <ele>1178.23</ele>
        <time>2022-10-05T12:45:35Z</time>
      </trkpt>
      <trkpt lat="48.00633" lon="6.97776">
        <ele>1186.4</ele>
        <time>2022-10-05T12:45:36Z</time>
      </trkpt>
      <trkpt lat="48.00634" lon="6.97775">
        <ele>1181.12</ele>
        <time>2022-10-05T12:45:37Z</time>
      </trkpt>
      <trkpt lat="48.00634" lon="6.97773">
        <ele>1184.96</ele>
        <time>2022-10-05T12:45:38Z</time>
      </trkpt>
      <trkpt lat="48.00634" lon="6.97767">
        <ele>1181.6</ele>
        <time>2022-10-05T12:45:42Z</time>
      </trkpt>
      <trkpt lat="48.00636" lon="6.97763">
        <ele>1180.16</ele>
        <time>2022-10-05T12:45:45Z</time>
      </trkpt>
      <trkpt lat="48.00637" lon="6.9776">
        <ele>1181.6</ele>
        <time>2022-10-05T12:45:48Z</time>
      </trkpt>
      <trkpt lat="48.00641" lon="6.97747">
        <ele>1177.75</ele>
        <time>2022-10-05T12:45:57Z</time>
      </trkpt>
      <trkpt lat="48.00641" lon="6.97745">
        <ele>1181.6</ele>
        <time>2022-10-05T12:45:58Z</time>
      </trkpt>
      <trkpt lat="48.0064" lon="6.9774">
        <ele>1173.91</ele>
        <time>2022-10-05T12:46:01Z</time>
      </trkpt>
      <trkpt lat="48.0064" lon="6.97738">
        <ele>1179.19</ele>
        <time>2022-10-05T12:46:02Z</time>
      </trkpt>
      <trkpt lat="48.00641" lon="6.97737">
        <ele>1181.6</ele>
        <time>2022-10-05T12:46:03Z</time>
      </trkpt>
      <trkpt lat="48.00642" lon="6.97734">
        <ele>1176.31</ele>
        <time>2022-10-05T12:46:05Z</time>
      </trkpt>
      <trkpt lat="48.00643" lon="6.97732">
        <ele>1180.64</ele>
        <time>2022-10-05T12:46:07Z</time>
      </trkpt>
      <trkpt lat="48.00643" lon="6.9773">
        <ele>1175.83</ele>
        <time>2022-10-05T12:46:08Z</time>
      </trkpt>
      <trkpt lat="48.00643" lon="6.97729">
        <ele>1175.83</ele>
        <time>2022-10-05T12:46:09Z</time>
      </trkpt>
      <trkpt lat="48.00644" lon="6.97727">
        <ele>1177.27</ele>
        <time>2022-10-05T12:46:11Z</time>
      </trkpt>
      <trkpt lat="48.00644" lon="6.97724">
        <ele>1176.31</ele>
        <time>2022-10-05T12:46:13Z</time>
      </trkpt>
      <trkpt lat="48.00645" lon="6.97711">
        <ele>1171.98</ele>
        <time>2022-10-05T12:46:20Z</time>
      </trkpt>
      <trkpt lat="48.00645" lon="6.97709">
        <ele>1177.27</ele>
        <time>2022-10-05T12:46:21Z</time>
      </trkpt>
      <trkpt lat="48.00644" lon="6.97707">
        <ele>1174.39</ele>
        <time>2022-10-05T12:46:24Z</time>
      </trkpt>
      <trkpt lat="48.00646" lon="6.97702">
        <ele>1173.91</ele>
        <time>2022-10-05T12:46:37Z</time>
      </trkpt>
      <trkpt lat="48.00646" lon="6.97697">
        <ele>1170.54</ele>
        <time>2022-10-05T12:46:44Z</time>
      </trkpt>
      <trkpt lat="48.00645" lon="6.97696">
        <ele>1169.58</ele>
        <time>2022-10-05T12:46:45Z</time>
      </trkpt>
      <trkpt lat="48.00644" lon="6.97691">
        <ele>1172.95</ele>
        <time>2022-10-05T12:46:49Z</time>
      </trkpt>
      <trkpt lat="48.00641" lon="6.97686">
        <ele>1171.98</ele>
        <time>2022-10-05T12:46:55Z</time>
      </trkpt>
      <trkpt lat="48.00641" lon="6.97685">
        <ele>1167.18</ele>
        <time>2022-10-05T12:46:56Z</time>
      </trkpt>
      <trkpt lat="48.00638" lon="6.9768">
        <ele>1172.47</ele>
        <time>2022-10-05T12:46:59Z</time>
      </trkpt>
      <trkpt lat="48.00636" lon="6.97679">
        <ele>1168.62</ele>
        <time>2022-10-05T12:47:01Z</time>
      </trkpt>
      <trkpt lat="48.00635" lon="6.97678">
        <ele>1171.02</ele>
        <time>2022-10-05T12:47:02Z</time>
      </trkpt>
      <trkpt lat="48.00629" lon="6.97676">
        <ele>1165.26</ele>
        <time>2022-10-05T12:47:09Z</time>
      </trkpt>
      <trkpt lat="48.00629" lon="6.97676">
        <ele>1170.54</ele>
        <time>2022-10-05T12:47:10Z</time>
      </trkpt>
      <trkpt lat="48.00629" lon="6.97676">
        <ele>1169.58</ele>
        <time>2022-10-05T12:47:11Z</time>
      </trkpt>
      <trkpt lat="48.00628" lon="6.97676">
        <ele>1166.7</ele>
        <time>2022-10-05T12:47:12Z</time>
      </trkpt>
      <trkpt lat="48.00628" lon="6.97676">
        <ele>1169.1</ele>
        <time>2022-10-05T12:47:13Z</time>
      </trkpt>
      <trkpt lat="48.00628" lon="6.97676">
        <ele>1175.83</ele>
        <time>2022-10-05T12:47:14Z</time>
      </trkpt>
      <trkpt lat="48.00628" lon="6.97675">
        <ele>1164.77</ele>
        <time>2022-10-05T12:47:15Z</time>
      </trkpt>
      <trkpt lat="48.00628" lon="6.97675">
        <ele>1168.62</ele>
        <time>2022-10-05T12:47:16Z</time>
      </trkpt>
      <trkpt lat="48.00629" lon="6.97675">
        <ele>1174.87</ele>
        <time>2022-10-05T12:47:18Z</time>
      </trkpt>
      <trkpt lat="48.00629" lon="6.97674">
        <ele>1170.54</ele>
        <time>2022-10-05T12:47:19Z</time>
      </trkpt>
      <trkpt lat="48.00631" lon="6.97671">
        <ele>1170.06</ele>
        <time>2022-10-05T12:47:33Z</time>
      </trkpt>
      <trkpt lat="48.00632" lon="6.97665">
        <ele>1169.58</ele>
        <time>2022-10-05T12:47:45Z</time>
      </trkpt>
      <trkpt lat="48.00632" lon="6.97659">
        <ele>1166.22</ele>
        <time>2022-10-05T12:47:51Z</time>
      </trkpt>
      <trkpt lat="48.00632" lon="6.97659">
        <ele>1166.22</ele>
        <time>2022-10-05T12:47:52Z</time>
      </trkpt>
      <trkpt lat="48.00632" lon="6.97659">
        <ele>1175.83</ele>
        <time>2022-10-05T12:47:53Z</time>
      </trkpt>
      <trkpt lat="48.00632" lon="6.97659">
        <ele>1171.5</ele>
        <time>2022-10-05T12:47:54Z</time>
      </trkpt>
      <trkpt lat="48.00632" lon="6.97656">
        <ele>1167.66</ele>
        <time>2022-10-05T12:47:57Z</time>
      </trkpt>
      <trkpt lat="48.00632" lon="6.97655">
        <ele>1168.14</ele>
        <time>2022-10-05T12:47:58Z</time>
      </trkpt>
      <trkpt lat="48.00636" lon="6.97648">
        <ele>1169.1</ele>
        <time>2022-10-05T12:48:13Z</time>
      </trkpt>
      <trkpt lat="48.00637" lon="6.97648">
        <ele>1167.18</ele>
        <time>2022-10-05T12:48:30Z</time>
      </trkpt>
      <trkpt lat="48.00637" lon="6.97648">
        <ele>1170.54</ele>
        <time>2022-10-05T12:48:34Z</time>
      </trkpt>
      <trkpt lat="48.00637" lon="6.97648">
        <ele>1167.18</ele>
        <time>2022-10-05T12:48:53Z</time>
      </trkpt>
      <trkpt lat="48.00637" lon="6.97648">
        <ele>1170.54</ele>
        <time>2022-10-05T12:48:55Z</time>
      </trkpt>
      <trkpt lat="48.00637" lon="6.97648">
        <ele>1168.14</ele>
        <time>2022-10-05T12:49:08Z</time>
      </trkpt>
      <trkpt lat="48.00634" lon="6.97645">
        <ele>1167.18</ele>
        <time>2022-10-05T12:49:30Z</time>
      </trkpt>
      <trkpt lat="48.00634" lon="6.97644">
        <ele>1170.54</ele>
        <time>2022-10-05T12:49:31Z</time>
      </trkpt>
      <trkpt lat="48.00633" lon="6.97644">
        <ele>1167.66</ele>
        <time>2022-10-05T12:49:34Z</time>
      </trkpt>
      <trkpt lat="48.00633" lon="6.97643">
        <ele>1163.81</ele>
        <time>2022-10-05T12:49:38Z</time>
      </trkpt>
      <trkpt lat="48.00633" lon="6.97643">
        <ele>1169.58</ele>
        <time>2022-10-05T12:49:39Z</time>
      </trkpt>
      <trkpt lat="48.00633" lon="6.97643">
        <ele>1169.1</ele>
        <time>2022-10-05T12:49:40Z</time>
      </trkpt>
      <trkpt lat="48.00633" lon="6.97642">
        <ele>1165.74</ele>
        <time>2022-10-05T12:49:45Z</time>
      </trkpt>
      <trkpt lat="48.00634" lon="6.97641">
        <ele>1169.1</ele>
        <time>2022-10-05T12:49:47Z</time>
      </trkpt>
      <trkpt lat="48.00633" lon="6.97641">
        <ele>1172.95</ele>
        <time>2022-10-05T12:49:57Z</time>
      </trkpt>
      <trkpt lat="48.00633" lon="6.97641">
        <ele>1169.58</ele>
        <time>2022-10-05T12:49:58Z</time>
      </trkpt>
      <trkpt lat="48.00633" lon="6.97641">
        <ele>1167.18</ele>
        <time>2022-10-05T12:50:26Z</time>
      </trkpt>
      <trkpt lat="48.00633" lon="6.97641">
        <ele>1168.14</ele>
        <time>2022-10-05T12:50:53Z</time>
      </trkpt>
      <trkpt lat="48.00634" lon="6.97644">
        <ele>1166.7</ele>
        <time>2022-10-05T12:51:12Z</time>
      </trkpt>
      <trkpt lat="48.00637" lon="6.97646">
        <ele>1164.77</ele>
        <time>2022-10-05T12:51:22Z</time>
      </trkpt>
      <trkpt lat="48.00637" lon="6.97646">
        <ele>1168.14</ele>
        <time>2022-10-05T12:51:23Z</time>
      </trkpt>
      <trkpt lat="48.0064" lon="6.97646">
        <ele>1163.81</ele>
        <time>2022-10-05T12:51:51Z</time>
      </trkpt>
      <trkpt lat="48.00641" lon="6.97646">
        <ele>1167.18</ele>
        <time>2022-10-05T12:51:52Z</time>
      </trkpt>
      <trkpt lat="48.00636" lon="6.97623">
        <ele>1171.02</ele>
        <time>2022-10-05T13:32:26Z</time>
      </trkpt>
      <trkpt lat="48.00635" lon="6.97623">
        <ele>1170.54</ele>
        <time>2022-10-05T13:32:27Z</time>
      </trkpt>
      <trkpt lat="48.00635" lon="6.97632">
        <ele>1170.06</ele>
        <time>2022-10-05T13:32:48Z</time>
      </trkpt>
      <trkpt lat="48.00635" lon="6.9763">
        <ele>1170.06</ele>
        <time>2022-10-05T13:33:08Z</time>
      </trkpt>
      <trkpt lat="48.00634" lon="6.97633">
        <ele>1170.06</ele>
        <time>2022-10-05T13:33:30Z</time>
      </trkpt>
      <trkpt lat="48.00633" lon="6.97647">
        <ele>1169.58</ele>
        <time>2022-10-05T13:33:53Z</time>
      </trkpt>
      <trkpt lat="48.00644" lon="6.97647">
        <ele>1170.06</ele>
        <time>2022-10-05T13:34:11Z</time>
      </trkpt>
      <trkpt lat="48.00642" lon="6.97644">
        <ele>1170.06</ele>
        <time>2022-10-05T13:34:36Z</time>
      </trkpt>
      <trkpt lat="48.00647" lon="6.9765">
        <ele>1170.06</ele>
        <time>2022-10-05T13:35:09Z</time>
      </trkpt>
      <trkpt lat="48.00631" lon="6.97611">
        <ele>1167.18</ele>
        <time>2022-10-05T13:45:50Z</time>
      </trkpt>
      <trkpt lat="48.0064" lon="6.97615">
        <ele>1166.7</ele>
        <time>2022-10-05T13:46:11Z</time>
      </trkpt>
      <trkpt lat="48.00644" lon="6.97622">
        <ele>1167.18</ele>
        <time>2022-10-05T13:46:34Z</time>
      </trkpt>
      <trkpt lat="48.00642" lon="6.97646">
        <ele>1167.66</ele>
        <time>2022-10-05T13:47:02Z</time>
      </trkpt>
      <trkpt lat="48.00631" lon="6.9766">
        <ele>1168.62</ele>
        <time>2022-10-05T13:47:17Z</time>
      </trkpt>
      <trkpt lat="48.0063" lon="6.97661">
        <ele>1167.66</ele>
        <time>2022-10-05T13:47:36Z</time>
      </trkpt>
      <trkpt lat="48.00629" lon="6.97661">
        <ele>1166.7</ele>
        <time>2022-10-05T13:48:00Z</time>
      </trkpt>
      <trkpt lat="48.00629" lon="6.97662">
        <ele>1166.22</ele>
        <time>2022-10-05T13:48:25Z</time>
      </trkpt>
      <trkpt lat="48.00629" lon="6.97661">
        <ele>1166.22</ele>
        <time>2022-10-05T13:48:56Z</time>
      </trkpt>
      <trkpt lat="48.00629" lon="6.97661">
        <ele>1166.22</ele>
        <time>2022-10-05T13:49:20Z</time>
      </trkpt>
      <trkpt lat="48.00629" lon="6.97661">
        <ele>1166.7</ele>
        <time>2022-10-05T13:49:44Z</time>
      </trkpt>
      <trkpt lat="48.00629" lon="6.97661">
        <ele>1167.18</ele>
        <time>2022-10-05T13:49:45Z</time>
      </trkpt>
      <trkpt lat="48.00629" lon="6.97665">
        <ele>1167.18</ele>
        <time>2022-10-05T13:50:01Z</time>
      </trkpt>
      <trkpt lat="48.00628" lon="6.9767">
        <ele>1167.18</ele>
        <time>2022-10-05T13:50:14Z</time>
      </trkpt>
      <trkpt lat="48.00629" lon="6.97675">
        <ele>1166.22</ele>
        <time>2022-10-05T13:50:29Z</time>
      </trkpt>
      <trkpt lat="48.0063" lon="6.97679">
        <ele>1166.7</ele>
        <time>2022-10-05T13:50:39Z</time>
      </trkpt>
      <trkpt lat="48.00632" lon="6.9768">
        <ele>1166.7</ele>
        <time>2022-10-05T13:50:42Z</time>
      </trkpt>
      <trkpt lat="48.00641" lon="6.97682">
        <ele>1167.66</ele>
        <time>2022-10-05T13:50:55Z</time>
      </trkpt>
      <trkpt lat="48.00642" lon="6.97681">
        <ele>1167.18</ele>
        <time>2022-10-05T13:50:57Z</time>
      </trkpt>
      <trkpt lat="48.0065" lon="6.97658">
        <ele>1169.1</ele>
        <time>2022-10-05T13:51:14Z</time>
      </trkpt>
      <trkpt lat="48.00653" lon="6.9764">
        <ele>1170.54</ele>
        <time>2022-10-05T13:51:27Z</time>
      </trkpt>
      <trkpt lat="48.00661" lon="6.9762">
        <ele>1170.06</ele>
        <time>2022-10-05T13:51:42Z</time>
      </trkpt>
      <trkpt lat="48.00674" lon="6.97595">
        <ele>1170.54</ele>
        <time>2022-10-05T13:52:00Z</time>
      </trkpt>
      <trkpt lat="48.00678" lon="6.97586">
        <ele>1171.02</ele>
        <time>2022-10-05T13:52:08Z</time>
      </trkpt>
      <trkpt lat="48.00685" lon="6.97572">
        <ele>1171.5</ele>
        <time>2022-10-05T13:52:22Z</time>
      </trkpt>
      <trkpt lat="48.00688" lon="6.97567">
        <ele>1172.47</ele>
        <time>2022-10-05T13:52:27Z</time>
      </trkpt>
      <trkpt lat="48.00694" lon="6.97558">
        <ele>1171.98</ele>
        <time>2022-10-05T13:52:37Z</time>
      </trkpt>
      <trkpt lat="48.00699" lon="6.97547">
        <ele>1172.47</ele>
        <time>2022-10-05T13:52:49Z</time>
      </trkpt>
      <trkpt lat="48.00706" lon="6.97538">
        <ele>1172.95</ele>
        <time>2022-10-05T13:53:00Z</time>
      </trkpt>
      <trkpt lat="48.00714" lon="6.97523">
        <ele>1173.91</ele>
        <time>2022-10-05T13:53:13Z</time>
      </trkpt>
      <trkpt lat="48.00722" lon="6.97512">
        <ele>1175.35</ele>
        <time>2022-10-05T13:53:27Z</time>
      </trkpt>
      <trkpt lat="48.00725" lon="6.97509">
        <ele>1175.35</ele>
        <time>2022-10-05T13:53:38Z</time>
      </trkpt>
      <trkpt lat="48.00725" lon="6.9751">
        <ele>1175.83</ele>
        <time>2022-10-05T13:53:56Z</time>
      </trkpt>
      <trkpt lat="48.00725" lon="6.9751">
        <ele>1176.31</ele>
        <time>2022-10-05T13:54:12Z</time>
      </trkpt>
      <trkpt lat="48.00725" lon="6.97509">
        <ele>1175.83</ele>
        <time>2022-10-05T13:54:29Z</time>
      </trkpt>
      <trkpt lat="48.00726" lon="6.9751">
        <ele>1175.83</ele>
        <time>2022-10-05T13:54:50Z</time>
      </trkpt>
      <trkpt lat="48.00726" lon="6.97511">
        <ele>1175.35</ele>
        <time>2022-10-05T13:55:20Z</time>
      </trkpt>
      <trkpt lat="48.00726" lon="6.97511">
        <ele>1174.87</ele>
        <time>2022-10-05T13:55:44Z</time>
      </trkpt>
      <trkpt lat="48.00726" lon="6.9751">
        <ele>1174.39</ele>
        <time>2022-10-05T13:56:05Z</time>
      </trkpt>
      <trkpt lat="48.00739" lon="6.97505">
        <ele>1177.75</ele>
        <time>2022-10-05T13:56:19Z</time>
      </trkpt>
      <trkpt lat="48.0074" lon="6.97504">
        <ele>1176.79</ele>
        <time>2022-10-05T13:56:20Z</time>
      </trkpt>
      <trkpt lat="48.00743" lon="6.97503">
        <ele>1180.16</ele>
        <time>2022-10-05T13:56:31Z</time>
      </trkpt>
      <trkpt lat="48.0075" lon="6.97499">
        <ele>1182.08</ele>
        <time>2022-10-05T13:56:43Z</time>
      </trkpt>
      <trkpt lat="48.00752" lon="6.97499">
        <ele>1182.56</ele>
        <time>2022-10-05T13:56:46Z</time>
      </trkpt>
      <trkpt lat="48.00762" lon="6.97503">
        <ele>1185.92</ele>
        <time>2022-10-05T13:56:57Z</time>
      </trkpt>
      <trkpt lat="48.00769" lon="6.97508">
        <ele>1187.85</ele>
        <time>2022-10-05T13:57:08Z</time>
      </trkpt>
      <trkpt lat="48.0077" lon="6.97509">
        <ele>1188.33</ele>
        <time>2022-10-05T13:57:25Z</time>
      </trkpt>
      <trkpt lat="48.0077" lon="6.97505">
        <ele>1187.85</ele>
        <time>2022-10-05T13:57:37Z</time>
      </trkpt>
      <trkpt lat="48.00773" lon="6.97503">
        <ele>1187.37</ele>
        <time>2022-10-05T13:57:51Z</time>
      </trkpt>
      <trkpt lat="48.00774" lon="6.97501">
        <ele>1187.37</ele>
        <time>2022-10-05T13:58:05Z</time>
      </trkpt>
      <trkpt lat="48.00774" lon="6.97502">
        <ele>1187.85</ele>
        <time>2022-10-05T13:58:27Z</time>
      </trkpt>
      <trkpt lat="48.00774" lon="6.97503">
        <ele>1187.85</ele>
        <time>2022-10-05T13:58:50Z</time>
      </trkpt>
      <trkpt lat="48.00774" lon="6.97503">
        <ele>1188.33</ele>
        <time>2022-10-05T13:59:02Z</time>
      </trkpt>
      <trkpt lat="48.00774" lon="6.97503">
        <ele>1188.33</ele>
        <time>2022-10-05T13:59:20Z</time>
      </trkpt>
      <trkpt lat="48.00773" lon="6.97503">
        <ele>1187.85</ele>
        <time>2022-10-05T13:59:42Z</time>
      </trkpt>
      <trkpt lat="48.00775" lon="6.97501">
        <ele>1187.85</ele>
        <time>2022-10-05T13:59:57Z</time>
      </trkpt>
      <trkpt lat="48.00776" lon="6.97502">
        <ele>1188.33</ele>
        <time>2022-10-05T14:00:12Z</time>
      </trkpt>
      <trkpt lat="48.00777" lon="6.97504">
        <ele>1188.33</ele>
        <time>2022-10-05T14:00:33Z</time>
      </trkpt>
      <trkpt lat="48.00777" lon="6.97504">
        <ele>1187.37</ele>
        <time>2022-10-05T14:00:54Z</time>
      </trkpt>
      <trkpt lat="48.00777" lon="6.97504">
        <ele>1187.85</ele>
        <time>2022-10-05T14:01:06Z</time>
      </trkpt>
      <trkpt lat="48.00777" lon="6.97503">
        <ele>1186.88</ele>
        <time>2022-10-05T14:01:24Z</time>
      </trkpt>
      <trkpt lat="48.00777" lon="6.97493">
        <ele>1187.37</ele>
        <time>2022-10-05T14:01:36Z</time>
      </trkpt>
      <trkpt lat="48.00782" lon="6.97474">
        <ele>1186.4</ele>
        <time>2022-10-05T14:01:51Z</time>
      </trkpt>
      <trkpt lat="48.00785" lon="6.97452">
        <ele>1184.48</ele>
        <time>2022-10-05T14:02:07Z</time>
      </trkpt>
      <trkpt lat="48.00786" lon="6.97426">
        <ele>1183.04</ele>
        <time>2022-10-05T14:02:23Z</time>
      </trkpt>
      <trkpt lat="48.00787" lon="6.97406">
        <ele>1181.12</ele>
        <time>2022-10-05T14:02:36Z</time>
      </trkpt>
      <trkpt lat="48.00787" lon="6.9739">
        <ele>1180.64</ele>
        <time>2022-10-05T14:02:51Z</time>
      </trkpt>
      <trkpt lat="48.00789" lon="6.9737">
        <ele>1179.19</ele>
        <time>2022-10-05T14:03:04Z</time>
      </trkpt>
      <trkpt lat="48.0079" lon="6.97352">
        <ele>1178.23</ele>
        <time>2022-10-05T14:03:16Z</time>
      </trkpt>
      <trkpt lat="48.00795" lon="6.9733">
        <ele>1177.27</ele>
        <time>2022-10-05T14:03:29Z</time>
      </trkpt>
      <trkpt lat="48.008" lon="6.97317">
        <ele>1176.79</ele>
        <time>2022-10-05T14:03:45Z</time>
      </trkpt>
      <trkpt lat="48.00808" lon="6.97298">
        <ele>1175.35</ele>
        <time>2022-10-05T14:04:01Z</time>
      </trkpt>
      <trkpt lat="48.00821" lon="6.97279">
        <ele>1173.43</ele>
        <time>2022-10-05T14:04:15Z</time>
      </trkpt>
      <trkpt lat="48.0084" lon="6.97263">
        <ele>1171.98</ele>
        <time>2022-10-05T14:04:31Z</time>
      </trkpt>
      <trkpt lat="48.00852" lon="6.97253">
        <ele>1170.54</ele>
        <time>2022-10-05T14:04:43Z</time>
      </trkpt>
      <trkpt lat="48.00869" lon="6.97241">
        <ele>1167.66</ele>
        <time>2022-10-05T14:04:58Z</time>
      </trkpt>
      <trkpt lat="48.00884" lon="6.97234">
        <ele>1164.77</ele>
        <time>2022-10-05T14:05:12Z</time>
      </trkpt>
      <trkpt lat="48.00895" lon="6.97226">
        <ele>1161.89</ele>
        <time>2022-10-05T14:05:25Z</time>
      </trkpt>
      <trkpt lat="48.00902" lon="6.97219">
        <ele>1159.01</ele>
        <time>2022-10-05T14:05:39Z</time>
      </trkpt>
      <trkpt lat="48.00913" lon="6.97208">
        <ele>1157.56</ele>
        <time>2022-10-05T14:05:53Z</time>
      </trkpt>
      <trkpt lat="48.00916" lon="6.97204">
        <ele>1157.56</ele>
        <time>2022-10-05T14:05:55Z</time>
      </trkpt>
      <trkpt lat="48.00944" lon="6.97195">
        <ele>1157.56</ele>
        <time>2022-10-05T14:06:10Z</time>
      </trkpt>
      <trkpt lat="48.00963" lon="6.97193">
        <ele>1157.08</ele>
        <time>2022-10-05T14:06:26Z</time>
      </trkpt>
      <trkpt lat="48.00976" lon="6.97183">
        <ele>1156.12</ele>
        <time>2022-10-05T14:06:41Z</time>
      </trkpt>
      <trkpt lat="48.00987" lon="6.97181">
        <ele>1155.16</ele>
        <time>2022-10-05T14:06:55Z</time>
      </trkpt>
      <trkpt lat="48.01001" lon="6.97175">
        <ele>1153.24</ele>
        <time>2022-10-05T14:07:08Z</time>
      </trkpt>
      <trkpt lat="48.01015" lon="6.97166">
        <ele>1151.32</ele>
        <time>2022-10-05T14:07:22Z</time>
      </trkpt>
      <trkpt lat="48.01034" lon="6.97157">
        <ele>1150.84</ele>
        <time>2022-10-05T14:07:39Z</time>
      </trkpt>
      <trkpt lat="48.01036" lon="6.97156">
        <ele>1150.84</ele>
        <time>2022-10-05T14:07:41Z</time>
      </trkpt>
      <trkpt lat="48.01051" lon="6.97142">
        <ele>1149.87</ele>
        <time>2022-10-05T14:07:54Z</time>
      </trkpt>
      <trkpt lat="48.01054" lon="6.97139">
        <ele>1149.87</ele>
        <time>2022-10-05T14:07:56Z</time>
      </trkpt>
      <trkpt lat="48.0106" lon="6.97132">
        <ele>1149.39</ele>
        <time>2022-10-05T14:08:03Z</time>
      </trkpt>
      <trkpt lat="48.01081" lon="6.97111">
        <ele>1148.43</ele>
        <time>2022-10-05T14:08:21Z</time>
      </trkpt>
      <trkpt lat="48.01094" lon="6.97104">
        <ele>1146.51</ele>
        <time>2022-10-05T14:08:34Z</time>
      </trkpt>
      <trkpt lat="48.01098" lon="6.97102">
        <ele>1145.55</ele>
        <time>2022-10-05T14:08:40Z</time>
      </trkpt>
      <trkpt lat="48.01107" lon="6.97097">
        <ele>1143.63</ele>
        <time>2022-10-05T14:08:47Z</time>
      </trkpt>
      <trkpt lat="48.01124" lon="6.97084">
        <ele>1143.63</ele>
        <time>2022-10-05T14:08:59Z</time>
      </trkpt>
      <trkpt lat="48.01136" lon="6.97072">
        <ele>1144.59</ele>
        <time>2022-10-05T14:09:12Z</time>
      </trkpt>
      <trkpt lat="48.01145" lon="6.97063">
        <ele>1144.11</ele>
        <time>2022-10-05T14:09:20Z</time>
      </trkpt>
      <trkpt lat="48.01161" lon="6.97054">
        <ele>1142.18</ele>
        <time>2022-10-05T14:09:33Z</time>
      </trkpt>
      <trkpt lat="48.01164" lon="6.97052">
        <ele>1141.7</ele>
        <time>2022-10-05T14:09:35Z</time>
      </trkpt>
      <trkpt lat="48.0117" lon="6.9705">
        <ele>1141.7</ele>
        <time>2022-10-05T14:09:39Z</time>
      </trkpt>
      <trkpt lat="48.01175" lon="6.97046">
        <ele>1141.7</ele>
        <time>2022-10-05T14:09:48Z</time>
      </trkpt>
      <trkpt lat="48.01177" lon="6.97042">
        <ele>1141.7</ele>
        <time>2022-10-05T14:09:51Z</time>
      </trkpt>
      <trkpt lat="48.01184" lon="6.97039">
        <ele>1142.66</ele>
        <time>2022-10-05T14:09:57Z</time>
      </trkpt>
      <trkpt lat="48.01196" lon="6.97036">
        <ele>1141.7</ele>
        <time>2022-10-05T14:10:06Z</time>
      </trkpt>
      <trkpt lat="48.01206" lon="6.97029">
        <ele>1140.74</ele>
        <time>2022-10-05T14:10:17Z</time>
      </trkpt>
      <trkpt lat="48.01214" lon="6.97022">
        <ele>1139.78</ele>
        <time>2022-10-05T14:10:28Z</time>
      </trkpt>
      <trkpt lat="48.01229" lon="6.97013">
        <ele>1138.34</ele>
        <time>2022-10-05T14:10:40Z</time>
      </trkpt>
      <trkpt lat="48.01232" lon="6.97008">
        <ele>1137.38</ele>
        <time>2022-10-05T14:10:45Z</time>
      </trkpt>
      <trkpt lat="48.01235" lon="6.97006">
        <ele>1137.38</ele>
        <time>2022-10-05T14:10:47Z</time>
      </trkpt>
      <trkpt lat="48.01238" lon="6.97001">
        <ele>1137.38</ele>
        <time>2022-10-05T14:10:52Z</time>
      </trkpt>
      <trkpt lat="48.01251" lon="6.96988">
        <ele>1136.42</ele>
        <time>2022-10-05T14:11:05Z</time>
      </trkpt>
      <trkpt lat="48.01266" lon="6.96973">
        <ele>1135.94</ele>
        <time>2022-10-05T14:11:17Z</time>
      </trkpt>
      <trkpt lat="48.01268" lon="6.96969">
        <ele>1134.97</ele>
        <time>2022-10-05T14:11:21Z</time>
      </trkpt>
      <trkpt lat="48.01272" lon="6.96958">
        <ele>1134.49</ele>
        <time>2022-10-05T14:11:27Z</time>
      </trkpt>
      <trkpt lat="48.01273" lon="6.96931">
        <ele>1135.45</ele>
        <time>2022-10-05T14:11:45Z</time>
      </trkpt>
      <trkpt lat="48.01278" lon="6.96921">
        <ele>1135.45</ele>
        <time>2022-10-05T14:11:49Z</time>
      </trkpt>
      <trkpt lat="48.01288" lon="6.96907">
        <ele>1134.49</ele>
        <time>2022-10-05T14:11:55Z</time>
      </trkpt>
      <trkpt lat="48.01292" lon="6.96895">
        <ele>1134.01</ele>
        <time>2022-10-05T14:12:00Z</time>
      </trkpt>
      <trkpt lat="48.01295" lon="6.96878">
        <ele>1133.05</ele>
        <time>2022-10-05T14:12:12Z</time>
      </trkpt>
      <trkpt lat="48.01305" lon="6.96886">
        <ele>1134.01</ele>
        <time>2022-10-05T14:12:34Z</time>
      </trkpt>
      <trkpt lat="48.01297" lon="6.96898">
        <ele>1132.57</ele>
        <time>2022-10-05T14:12:49Z</time>
      </trkpt>
      <trkpt lat="48.01286" lon="6.96909">
        <ele>1131.61</ele>
        <time>2022-10-05T14:13:04Z</time>
      </trkpt>
      <trkpt lat="48.01266" lon="6.96926">
        <ele>1129.69</ele>
        <time>2022-10-05T14:13:19Z</time>
      </trkpt>
      <trkpt lat="48.01251" lon="6.9694">
        <ele>1128.24</ele>
        <time>2022-10-05T14:13:36Z</time>
      </trkpt>
      <trkpt lat="48.01232" lon="6.96946">
        <ele>1127.28</ele>
        <time>2022-10-05T14:13:50Z</time>
      </trkpt>
      <trkpt lat="48.01226" lon="6.96946">
        <ele>1126.8</ele>
        <time>2022-10-05T14:13:54Z</time>
      </trkpt>
      <trkpt lat="48.01222" lon="6.96943">
        <ele>1126.32</ele>
        <time>2022-10-05T14:13:58Z</time>
      </trkpt>
      <trkpt lat="48.01207" lon="6.96933">
        <ele>1124.4</ele>
        <time>2022-10-05T14:14:14Z</time>
      </trkpt>
      <trkpt lat="48.01188" lon="6.96925">
        <ele>1123.44</ele>
        <time>2022-10-05T14:14:28Z</time>
      </trkpt>
      <trkpt lat="48.01176" lon="6.96922">
        <ele>1121.52</ele>
        <time>2022-10-05T14:14:42Z</time>
      </trkpt>
      <trkpt lat="48.01168" lon="6.9692">
        <ele>1119.11</ele>
        <time>2022-10-05T14:14:56Z</time>
      </trkpt>
      <trkpt lat="48.01171" lon="6.96909">
        <ele>1116.23</ele>
        <time>2022-10-05T14:15:09Z</time>
      </trkpt>
      <trkpt lat="48.01174" lon="6.96886">
        <ele>1113.82</ele>
        <time>2022-10-05T14:15:25Z</time>
      </trkpt>
      <trkpt lat="48.0116" lon="6.9688">
        <ele>1111.42</ele>
        <time>2022-10-05T14:15:40Z</time>
      </trkpt>
      <trkpt lat="48.01143" lon="6.96881">
        <ele>1110.46</ele>
        <time>2022-10-05T14:15:55Z</time>
      </trkpt>
      <trkpt lat="48.01133" lon="6.96883">
        <ele>1112.86</ele>
        <time>2022-10-05T14:16:06Z</time>
      </trkpt>
      <trkpt lat="48.01115" lon="6.96899">
        <ele>1115.27</ele>
        <time>2022-10-05T14:16:21Z</time>
      </trkpt>
      <trkpt lat="48.011" lon="6.96912">
        <ele>1115.75</ele>
        <time>2022-10-05T14:16:31Z</time>
      </trkpt>
      <trkpt lat="48.01093" lon="6.96932">
        <ele>1113.82</ele>
        <time>2022-10-05T14:16:47Z</time>
      </trkpt>
      <trkpt lat="48.01087" lon="6.96936">
        <ele>1112.38</ele>
        <time>2022-10-05T14:17:03Z</time>
      </trkpt>
      <trkpt lat="48.01069" lon="6.96946">
        <ele>1110.46</ele>
        <time>2022-10-05T14:17:17Z</time>
      </trkpt>
      <trkpt lat="48.01043" lon="6.96948">
        <ele>1109.98</ele>
        <time>2022-10-05T14:17:33Z</time>
      </trkpt>
      <trkpt lat="48.01029" lon="6.9695">
        <ele>1109.02</ele>
        <time>2022-10-05T14:17:48Z</time>
      </trkpt>
      <trkpt lat="48.0101" lon="6.96947">
        <ele>1107.58</ele>
        <time>2022-10-05T14:18:04Z</time>
      </trkpt>
      <trkpt lat="48.00999" lon="6.96942">
        <ele>1106.13</ele>
        <time>2022-10-05T14:18:21Z</time>
      </trkpt>
      <trkpt lat="48.00986" lon="6.96941">
        <ele>1105.17</ele>
        <time>2022-10-05T14:18:37Z</time>
      </trkpt>
      <trkpt lat="48.00971" lon="6.96938">
        <ele>1103.73</ele>
        <time>2022-10-05T14:18:49Z</time>
      </trkpt>
      <trkpt lat="48.00963" lon="6.96936">
        <ele>1102.77</ele>
        <time>2022-10-05T14:19:03Z</time>
      </trkpt>
      <trkpt lat="48.00939" lon="6.96923">
        <ele>1100.37</ele>
        <time>2022-10-05T14:19:21Z</time>
      </trkpt>
      <trkpt lat="48.00927" lon="6.96916">
        <ele>1100.37</ele>
        <time>2022-10-05T14:19:37Z</time>
      </trkpt>
      <trkpt lat="48.00924" lon="6.96911">
        <ele>1098.92</ele>
        <time>2022-10-05T14:19:49Z</time>
      </trkpt>
      <trkpt lat="48.00893" lon="6.96907">
        <ele>1097</ele>
        <time>2022-10-05T14:20:08Z</time>
      </trkpt>
      <trkpt lat="48.00872" lon="6.96888">
        <ele>1095.08</ele>
        <time>2022-10-05T14:20:26Z</time>
      </trkpt>
      <trkpt lat="48.00864" lon="6.96884">
        <ele>1094.12</ele>
        <time>2022-10-05T14:20:38Z</time>
      </trkpt>
      <trkpt lat="48.00851" lon="6.9687">
        <ele>1092.2</ele>
        <time>2022-10-05T14:20:54Z</time>
      </trkpt>
      <trkpt lat="48.00841" lon="6.96851">
        <ele>1090.75</ele>
        <time>2022-10-05T14:21:08Z</time>
      </trkpt>
      <trkpt lat="48.00832" lon="6.96846">
        <ele>1090.27</ele>
        <time>2022-10-05T14:21:19Z</time>
      </trkpt>
      <trkpt lat="48.00818" lon="6.96831">
        <ele>1087.87</ele>
        <time>2022-10-05T14:21:33Z</time>
      </trkpt>
      <trkpt lat="48.00808" lon="6.96809">
        <ele>1086.43</ele>
        <time>2022-10-05T14:21:48Z</time>
      </trkpt>
      <trkpt lat="48.00805" lon="6.96793">
        <ele>1084.5</ele>
        <time>2022-10-05T14:22:05Z</time>
      </trkpt>
      <trkpt lat="48.008" lon="6.96776">
        <ele>1083.06</ele>
        <time>2022-10-05T14:22:20Z</time>
      </trkpt>
      <trkpt lat="48.00788" lon="6.96752">
        <ele>1081.14</ele>
        <time>2022-10-05T14:22:38Z</time>
      </trkpt>
      <trkpt lat="48.00782" lon="6.96735">
        <ele>1079.22</ele>
        <time>2022-10-05T14:22:53Z</time>
      </trkpt>
      <trkpt lat="48.00768" lon="6.96713">
        <ele>1077.78</ele>
        <time>2022-10-05T14:23:09Z</time>
      </trkpt>
      <trkpt lat="48.00756" lon="6.96699">
        <ele>1076.33</ele>
        <time>2022-10-05T14:23:24Z</time>
      </trkpt>
      <trkpt lat="48.00742" lon="6.96693">
        <ele>1074.41</ele>
        <time>2022-10-05T14:23:41Z</time>
      </trkpt>
      <trkpt lat="48.00738" lon="6.96692">
        <ele>1073.93</ele>
        <time>2022-10-05T14:23:46Z</time>
      </trkpt>
      <trkpt lat="48.00715" lon="6.96686">
        <ele>1072.49</ele>
        <time>2022-10-05T14:24:01Z</time>
      </trkpt>
      <trkpt lat="48.00703" lon="6.96684">
        <ele>1071.53</ele>
        <time>2022-10-05T14:24:18Z</time>
      </trkpt>
      <trkpt lat="48.00681" lon="6.96684">
        <ele>1069.6</ele>
        <time>2022-10-05T14:24:34Z</time>
      </trkpt>
      <trkpt lat="48.00675" lon="6.96687">
        <ele>1067.68</ele>
        <time>2022-10-05T14:24:50Z</time>
      </trkpt>
      <trkpt lat="48.0066" lon="6.96693">
        <ele>1065.76</ele>
        <time>2022-10-05T14:25:05Z</time>
      </trkpt>
      <trkpt lat="48.00645" lon="6.96695">
        <ele>1064.8</ele>
        <time>2022-10-05T14:25:20Z</time>
      </trkpt>
      <trkpt lat="48.00619" lon="6.96695">
        <ele>1062.87</ele>
        <time>2022-10-05T14:25:36Z</time>
      </trkpt>
      <trkpt lat="48.00593" lon="6.96705">
        <ele>1061.43</ele>
        <time>2022-10-05T14:25:53Z</time>
      </trkpt>
      <trkpt lat="48.00577" lon="6.96708">
        <ele>1060.95</ele>
        <time>2022-10-05T14:26:09Z</time>
      </trkpt>
      <trkpt lat="48.00572" lon="6.96709">
        <ele>1059.99</ele>
        <time>2022-10-05T14:26:24Z</time>
      </trkpt>
      <trkpt lat="48.00562" lon="6.9671">
        <ele>1059.51</ele>
        <time>2022-10-05T14:26:42Z</time>
      </trkpt>
      <trkpt lat="48.00557" lon="6.96711">
        <ele>1059.51</ele>
        <time>2022-10-05T14:26:58Z</time>
      </trkpt>
      <trkpt lat="48.00556" lon="6.96714">
        <ele>1059.03</ele>
        <time>2022-10-05T14:27:18Z</time>
      </trkpt>
      <trkpt lat="48.00556" lon="6.96716">
        <ele>1058.55</ele>
        <time>2022-10-05T14:27:37Z</time>
      </trkpt>
      <trkpt lat="48.00551" lon="6.96716">
        <ele>1059.51</ele>
        <time>2022-10-05T14:28:04Z</time>
      </trkpt>
      <trkpt lat="48.0055" lon="6.96719">
        <ele>1059.99</ele>
        <time>2022-10-05T14:28:30Z</time>
      </trkpt>
      <trkpt lat="48.00548" lon="6.96722">
        <ele>1059.99</ele>
        <time>2022-10-05T14:28:55Z</time>
      </trkpt>
      <trkpt lat="48.00549" lon="6.96723">
        <ele>1059.51</ele>
        <time>2022-10-05T14:29:20Z</time>
      </trkpt>
      <trkpt lat="48.00551" lon="6.96724">
        <ele>1059.99</ele>
        <time>2022-10-05T14:29:47Z</time>
      </trkpt>
      <trkpt lat="48.0055" lon="6.96725">
        <ele>1059.51</ele>
        <time>2022-10-05T14:30:08Z</time>
      </trkpt>
      <trkpt lat="48.0055" lon="6.96724">
        <ele>1059.03</ele>
        <time>2022-10-05T14:30:41Z</time>
      </trkpt>
      <trkpt lat="48.00551" lon="6.96725">
        <ele>1059.03</ele>
        <time>2022-10-05T14:31:16Z</time>
      </trkpt>
      <trkpt lat="48.0055" lon="6.96725">
        <ele>1058.55</ele>
        <time>2022-10-05T14:31:43Z</time>
      </trkpt>
      <trkpt lat="48.00551" lon="6.96726">
        <ele>1058.55</ele>
        <time>2022-10-05T14:32:17Z</time>
      </trkpt>
      <trkpt lat="48.00552" lon="6.96726">
        <ele>1057.59</ele>
        <time>2022-10-05T14:32:52Z</time>
      </trkpt>
      <trkpt lat="48.00552" lon="6.96726">
        <ele>1059.51</ele>
        <time>2022-10-05T14:33:16Z</time>
      </trkpt>
      <trkpt lat="48.00552" lon="6.96726">
        <ele>1059.51</ele>
        <time>2022-10-05T14:33:36Z</time>
      </trkpt>
      <trkpt lat="48.00554" lon="6.96726">
        <ele>1059.51</ele>
        <time>2022-10-05T14:34:00Z</time>
      </trkpt>
      <trkpt lat="48.00553" lon="6.96726">
        <ele>1058.07</ele>
        <time>2022-10-05T14:34:27Z</time>
      </trkpt>
      <trkpt lat="48.00553" lon="6.96726">
        <ele>1056.63</ele>
        <time>2022-10-05T14:34:51Z</time>
      </trkpt>
      <trkpt lat="48.00553" lon="6.96726">
        <ele>1057.59</ele>
        <time>2022-10-05T14:35:13Z</time>
      </trkpt>
      <trkpt lat="48.00554" lon="6.96727">
        <ele>1058.55</ele>
        <time>2022-10-05T14:35:42Z</time>
      </trkpt>
      <trkpt lat="48.00553" lon="6.96727">
        <ele>1058.55</ele>
        <time>2022-10-05T14:35:56Z</time>
      </trkpt>
      <trkpt lat="48.00552" lon="6.96727">
        <ele>1057.11</ele>
        <time>2022-10-05T14:36:21Z</time>
      </trkpt>
      <trkpt lat="48.00551" lon="6.96728">
        <ele>1057.11</ele>
        <time>2022-10-05T14:36:40Z</time>
      </trkpt>
      <trkpt lat="48.0055" lon="6.96729">
        <ele>1057.11</ele>
        <time>2022-10-05T14:37:03Z</time>
      </trkpt>
      <trkpt lat="48.00548" lon="6.96731">
        <ele>1057.11</ele>
        <time>2022-10-05T14:37:27Z</time>
      </trkpt>
      <trkpt lat="48.00548" lon="6.9673">
        <ele>1056.15</ele>
        <time>2022-10-05T14:37:56Z</time>
      </trkpt>
      <trkpt lat="48.00547" lon="6.96731">
        <ele>1056.15</ele>
        <time>2022-10-05T14:38:25Z</time>
      </trkpt>
      <trkpt lat="48.00545" lon="6.96731">
        <ele>1056.15</ele>
        <time>2022-10-05T14:38:46Z</time>
      </trkpt>
      <trkpt lat="48.00543" lon="6.9673">
        <ele>1056.15</ele>
        <time>2022-10-05T14:39:18Z</time>
      </trkpt>
      <trkpt lat="48.00542" lon="6.96731">
        <ele>1055.67</ele>
        <time>2022-10-05T14:39:35Z</time>
      </trkpt>
      <trkpt lat="48.00542" lon="6.96731">
        <ele>1055.18</ele>
        <time>2022-10-05T14:40:02Z</time>
      </trkpt>
      <trkpt lat="48.00541" lon="6.96734">
        <ele>1054.22</ele>
        <time>2022-10-05T14:40:19Z</time>
      </trkpt>
      <trkpt lat="48.00532" lon="6.96738">
        <ele>1053.26</ele>
        <time>2022-10-05T14:40:32Z</time>
      </trkpt>
      <trkpt lat="48.00531" lon="6.96738">
        <ele>1053.26</ele>
        <time>2022-10-05T14:40:56Z</time>
      </trkpt>
      <trkpt lat="48.00529" lon="6.96742">
        <ele>1052.78</ele>
        <time>2022-10-05T14:41:22Z</time>
      </trkpt>
      <trkpt lat="48.00525" lon="6.96749">
        <ele>1051.82</ele>
        <time>2022-10-05T14:41:30Z</time>
      </trkpt>
      <trkpt lat="48.00515" lon="6.96756">
        <ele>1049.9</ele>
        <time>2022-10-05T14:41:43Z</time>
      </trkpt>
      <trkpt lat="48.0051" lon="6.96758">
        <ele>1048.94</ele>
        <time>2022-10-05T14:41:47Z</time>
      </trkpt>
      <trkpt lat="48.005" lon="6.96778">
        <ele>1047.97</ele>
        <time>2022-10-05T14:42:03Z</time>
      </trkpt>
      <trkpt lat="48.00496" lon="6.9678">
        <ele>1046.53</ele>
        <time>2022-10-05T14:42:19Z</time>
      </trkpt>
      <trkpt lat="48.00488" lon="6.96779">
        <ele>1045.57</ele>
        <time>2022-10-05T14:42:34Z</time>
      </trkpt>
      <trkpt lat="48.0048" lon="6.96779">
        <ele>1044.13</ele>
        <time>2022-10-05T14:42:50Z</time>
      </trkpt>
      <trkpt lat="48.00471" lon="6.9678">
        <ele>1042.21</ele>
        <time>2022-10-05T14:43:05Z</time>
      </trkpt>
      <trkpt lat="48.00466" lon="6.96777">
        <ele>1042.21</ele>
        <time>2022-10-05T14:43:20Z</time>
      </trkpt>
      <trkpt lat="48.0046" lon="6.96773">
        <ele>1042.21</ele>
        <time>2022-10-05T14:43:50Z</time>
      </trkpt>
      <trkpt lat="48.00455" lon="6.96772">
        <ele>1042.69</ele>
        <time>2022-10-05T14:44:07Z</time>
      </trkpt>
      <trkpt lat="48.00446" lon="6.96775">
        <ele>1041.73</ele>
        <time>2022-10-05T14:44:20Z</time>
      </trkpt>
      <trkpt lat="48.00436" lon="6.96777">
        <ele>1040.76</ele>
        <time>2022-10-05T14:44:36Z</time>
      </trkpt>
      <trkpt lat="48.00432" lon="6.96776">
        <ele>1040.28</ele>
        <time>2022-10-05T14:44:54Z</time>
      </trkpt>
      <trkpt lat="48.00424" lon="6.96772">
        <ele>1039.32</ele>
        <time>2022-10-05T14:45:10Z</time>
      </trkpt>
      <trkpt lat="48.00413" lon="6.96762">
        <ele>1038.84</ele>
        <time>2022-10-05T14:45:24Z</time>
      </trkpt>
      <trkpt lat="48.00408" lon="6.96754">
        <ele>1037.4</ele>
        <time>2022-10-05T14:45:38Z</time>
      </trkpt>
      <trkpt lat="48.00408" lon="6.96745">
        <ele>1037.4</ele>
        <time>2022-10-05T14:45:53Z</time>
      </trkpt>
      <trkpt lat="48.00403" lon="6.96742">
        <ele>1037.4</ele>
        <time>2022-10-05T14:46:07Z</time>
      </trkpt>
      <trkpt lat="48.00399" lon="6.96741">
        <ele>1037.4</ele>
        <time>2022-10-05T14:46:41Z</time>
      </trkpt>
      <trkpt lat="48.00395" lon="6.96737">
        <ele>1037.4</ele>
        <time>2022-10-05T14:47:02Z</time>
      </trkpt>
      <trkpt lat="48.00393" lon="6.96735">
        <ele>1037.4</ele>
        <time>2022-10-05T14:47:27Z</time>
      </trkpt>
      <trkpt lat="48.0039" lon="6.96735">
        <ele>1036.92</ele>
        <time>2022-10-05T14:47:46Z</time>
      </trkpt>
      <trkpt lat="48.00382" lon="6.96733">
        <ele>1035.96</ele>
        <time>2022-10-05T14:48:04Z</time>
      </trkpt>
      <trkpt lat="48.00376" lon="6.96727">
        <ele>1035.96</ele>
        <time>2022-10-05T14:48:22Z</time>
      </trkpt>
      <trkpt lat="48.00378" lon="6.96719">
        <ele>1035.48</ele>
        <time>2022-10-05T14:48:40Z</time>
      </trkpt>
      <trkpt lat="48.00375" lon="6.96712">
        <ele>1035.48</ele>
        <time>2022-10-05T14:49:00Z</time>
      </trkpt>
      <trkpt lat="48.00377" lon="6.96708">
        <ele>1035</ele>
        <time>2022-10-05T14:49:21Z</time>
      </trkpt>
      <trkpt lat="48.00378" lon="6.96701">
        <ele>1034.52</ele>
        <time>2022-10-05T14:49:31Z</time>
      </trkpt>
      <trkpt lat="48.0038" lon="6.96691">
        <ele>1034.04</ele>
        <time>2022-10-05T14:49:49Z</time>
      </trkpt>
      <trkpt lat="48.00383" lon="6.96686">
        <ele>1032.59</ele>
        <time>2022-10-05T14:50:07Z</time>
      </trkpt>
      <trkpt lat="48.00387" lon="6.96682">
        <ele>1031.15</ele>
        <time>2022-10-05T14:50:21Z</time>
      </trkpt>
      <trkpt lat="48.00394" lon="6.96673">
        <ele>1029.71</ele>
        <time>2022-10-05T14:50:37Z</time>
      </trkpt>
      <trkpt lat="48.004" lon="6.96667">
        <ele>1027.31</ele>
        <time>2022-10-05T14:50:49Z</time>
      </trkpt>
      <trkpt lat="48.00415" lon="6.96653">
        <ele>1024.42</ele>
        <time>2022-10-05T14:51:02Z</time>
      </trkpt>
      <trkpt lat="48.00429" lon="6.96641">
        <ele>1022.02</ele>
        <time>2022-10-05T14:51:15Z</time>
      </trkpt>
      <trkpt lat="48.00436" lon="6.96636">
        <ele>1018.65</ele>
        <time>2022-10-05T14:51:29Z</time>
      </trkpt>
      <trkpt lat="48.00443" lon="6.96635">
        <ele>1017.69</ele>
        <time>2022-10-05T14:51:43Z</time>
      </trkpt>
      <trkpt lat="48.00444" lon="6.96634">
        <ele>1016.25</ele>
        <time>2022-10-05T14:51:44Z</time>
      </trkpt>
      <trkpt lat="48.00457" lon="6.96623">
        <ele>1014.33</ele>
        <time>2022-10-05T14:51:58Z</time>
      </trkpt>
      <trkpt lat="48.00466" lon="6.96618">
        <ele>1012.89</ele>
        <time>2022-10-05T14:52:10Z</time>
      </trkpt>
      <trkpt lat="48.00483" lon="6.96613">
        <ele>1010.48</ele>
        <time>2022-10-05T14:52:26Z</time>
      </trkpt>
      <trkpt lat="48.00494" lon="6.96609">
        <ele>1008.56</ele>
        <time>2022-10-05T14:52:41Z</time>
      </trkpt>
      <trkpt lat="48.00501" lon="6.96599">
        <ele>1006.64</ele>
        <time>2022-10-05T14:52:54Z</time>
      </trkpt>
      <trkpt lat="48.00507" lon="6.966">
        <ele>1006.64</ele>
        <time>2022-10-05T14:53:13Z</time>
      </trkpt>
      <trkpt lat="48.00512" lon="6.96601">
        <ele>1006.16</ele>
        <time>2022-10-05T14:53:28Z</time>
      </trkpt>
      <trkpt lat="48.0052" lon="6.96598">
        <ele>1006.16</ele>
        <time>2022-10-05T14:53:40Z</time>
      </trkpt>
      <trkpt lat="48.00538" lon="6.96593">
        <ele>1006.16</ele>
        <time>2022-10-05T14:53:53Z</time>
      </trkpt>
      <trkpt lat="48.00554" lon="6.96582">
        <ele>1005.68</ele>
        <time>2022-10-05T14:54:09Z</time>
      </trkpt>
      <trkpt lat="48.0057" lon="6.96572">
        <ele>1005.2</ele>
        <time>2022-10-05T14:54:23Z</time>
      </trkpt>
      <trkpt lat="48.00586" lon="6.96557">
        <ele>1004.23</ele>
        <time>2022-10-05T14:54:38Z</time>
      </trkpt>
      <trkpt lat="48.00597" lon="6.96544">
        <ele>1004.23</ele>
        <time>2022-10-05T14:54:52Z</time>
      </trkpt>
      <trkpt lat="48.00602" lon="6.96519">
        <ele>1004.23</ele>
        <time>2022-10-05T14:55:08Z</time>
      </trkpt>
      <trkpt lat="48.00607" lon="6.96502">
        <ele>1004.23</ele>
        <time>2022-10-05T14:55:24Z</time>
      </trkpt>
      <trkpt lat="48.00626" lon="6.96468">
        <ele>1004.72</ele>
        <time>2022-10-05T14:55:39Z</time>
      </trkpt>
      <trkpt lat="48.00634" lon="6.96444">
        <ele>1005.2</ele>
        <time>2022-10-05T14:55:54Z</time>
      </trkpt>
      <trkpt lat="48.00652" lon="6.96427">
        <ele>1004.72</ele>
        <time>2022-10-05T14:56:06Z</time>
      </trkpt>
      <trkpt lat="48.00672" lon="6.96403">
        <ele>1004.23</ele>
        <time>2022-10-05T14:56:25Z</time>
      </trkpt>
      <trkpt lat="48.0069" lon="6.96388">
        <ele>1004.23</ele>
        <time>2022-10-05T14:56:41Z</time>
      </trkpt>
      <trkpt lat="48.00709" lon="6.96375">
        <ele>1004.23</ele>
        <time>2022-10-05T14:56:55Z</time>
      </trkpt>
      <trkpt lat="48.0073" lon="6.9637">
        <ele>1003.27</ele>
        <time>2022-10-05T14:57:09Z</time>
      </trkpt>
      <trkpt lat="48.00738" lon="6.96365">
        <ele>1003.27</ele>
        <time>2022-10-05T14:57:15Z</time>
      </trkpt>
      <trkpt lat="48.00751" lon="6.9635">
        <ele>1002.79</ele>
        <time>2022-10-05T14:57:32Z</time>
      </trkpt>
      <trkpt lat="48.00759" lon="6.96335">
        <ele>1002.79</ele>
        <time>2022-10-05T14:57:46Z</time>
      </trkpt>
      <trkpt lat="48.0076" lon="6.96335">
        <ele>1002.79</ele>
        <time>2022-10-05T14:58:01Z</time>
      </trkpt>
      <trkpt lat="48.00761" lon="6.96336">
        <ele>1002.79</ele>
        <time>2022-10-05T14:58:15Z</time>
      </trkpt>
      <trkpt lat="48.00762" lon="6.96336">
        <ele>1002.79</ele>
        <time>2022-10-05T14:58:34Z</time>
      </trkpt>
      <trkpt lat="48.00762" lon="6.96335">
        <ele>1002.31</ele>
        <time>2022-10-05T14:58:53Z</time>
      </trkpt>
      <trkpt lat="48.00761" lon="6.96334">
        <ele>1001.83</ele>
        <time>2022-10-05T14:59:18Z</time>
      </trkpt>
      <trkpt lat="48.00761" lon="6.96334">
        <ele>1004.23</ele>
        <time>2022-10-05T14:59:48Z</time>
      </trkpt>
      <trkpt lat="48.00761" lon="6.96336">
        <ele>1002.31</ele>
        <time>2022-10-05T15:00:14Z</time>
      </trkpt>
      <trkpt lat="48.00761" lon="6.96337">
        <ele>1001.83</ele>
        <time>2022-10-05T15:00:27Z</time>
      </trkpt>
      <trkpt lat="48.00762" lon="6.96337">
        <ele>1002.31</ele>
        <time>2022-10-05T15:00:56Z</time>
      </trkpt>
      <trkpt lat="48.00763" lon="6.96337">
        <ele>1001.83</ele>
        <time>2022-10-05T15:01:21Z</time>
      </trkpt>
      <trkpt lat="48.00763" lon="6.96339">
        <ele>1001.35</ele>
        <time>2022-10-05T15:01:34Z</time>
      </trkpt>
      <trkpt lat="48.00763" lon="6.9634">
        <ele>1001.35</ele>
        <time>2022-10-05T15:01:53Z</time>
      </trkpt>
      <trkpt lat="48.00769" lon="6.96331">
        <ele>1001.35</ele>
        <time>2022-10-05T15:02:03Z</time>
      </trkpt>
      <trkpt lat="48.0077" lon="6.96324">
        <ele>1001.35</ele>
        <time>2022-10-05T15:02:07Z</time>
      </trkpt>
      <trkpt lat="48.00773" lon="6.96306">
        <ele>1001.35</ele>
        <time>2022-10-05T15:02:23Z</time>
      </trkpt>
      <trkpt lat="48.00782" lon="6.96293">
        <ele>1000.87</ele>
        <time>2022-10-05T15:02:38Z</time>
      </trkpt>
      <trkpt lat="48.00787" lon="6.96291">
        <ele>1000.87</ele>
        <time>2022-10-05T15:02:56Z</time>
      </trkpt>
      <trkpt lat="48.00786" lon="6.96289">
        <ele>1001.35</ele>
        <time>2022-10-05T15:03:15Z</time>
      </trkpt>
      <trkpt lat="48.00791" lon="6.9628">
        <ele>1001.83</ele>
        <time>2022-10-05T15:03:31Z</time>
      </trkpt>
      <trkpt lat="48.00799" lon="6.96274">
        <ele>1001.35</ele>
        <time>2022-10-05T15:03:47Z</time>
      </trkpt>
      <trkpt lat="48.00806" lon="6.96256">
        <ele>1001.35</ele>
        <time>2022-10-05T15:04:02Z</time>
      </trkpt>
      <trkpt lat="48.0082" lon="6.96243">
        <ele>1001.35</ele>
        <time>2022-10-05T15:04:18Z</time>
      </trkpt>
      <trkpt lat="48.00833" lon="6.96224">
        <ele>1001.35</ele>
        <time>2022-10-05T15:04:34Z</time>
      </trkpt>
      <trkpt lat="48.00844" lon="6.96207">
        <ele>1001.35</ele>
        <time>2022-10-05T15:04:50Z</time>
      </trkpt>
      <trkpt lat="48.00856" lon="6.96198">
        <ele>1001.35</ele>
        <time>2022-10-05T15:05:02Z</time>
      </trkpt>
      <trkpt lat="48.00881" lon="6.96177">
        <ele>1000.87</ele>
        <time>2022-10-05T15:05:16Z</time>
      </trkpt>
      <trkpt lat="48.00888" lon="6.96166">
        <ele>1000.87</ele>
        <time>2022-10-05T15:05:22Z</time>
      </trkpt>
      <trkpt lat="48.00899" lon="6.96159">
        <ele>1000.39</ele>
        <time>2022-10-05T15:05:28Z</time>
      </trkpt>
      <trkpt lat="48.00911" lon="6.9615">
        <ele>1001.83</ele>
        <time>2022-10-05T15:05:44Z</time>
      </trkpt>
      <trkpt lat="48.00923" lon="6.96134">
        <ele>1002.31</ele>
        <time>2022-10-05T15:06:01Z</time>
      </trkpt>
      <trkpt lat="48.00927" lon="6.96115">
        <ele>1001.83</ele>
        <time>2022-10-05T15:06:16Z</time>
      </trkpt>
      <trkpt lat="48.00931" lon="6.96106">
        <ele>1001.83</ele>
        <time>2022-10-05T15:06:30Z</time>
      </trkpt>
      <trkpt lat="48.00931" lon="6.96093">
        <ele>1001.83</ele>
        <time>2022-10-05T15:06:40Z</time>
      </trkpt>
      <trkpt lat="48.00936" lon="6.96059">
        <ele>1001.83</ele>
        <time>2022-10-05T15:06:55Z</time>
      </trkpt>
      <trkpt lat="48.00939" lon="6.96032">
        <ele>1001.83</ele>
        <time>2022-10-05T15:07:08Z</time>
      </trkpt>
      <trkpt lat="48.0094" lon="6.96005">
        <ele>1001.83</ele>
        <time>2022-10-05T15:07:22Z</time>
      </trkpt>
      <trkpt lat="48.00943" lon="6.95971">
        <ele>1001.83</ele>
        <time>2022-10-05T15:07:34Z</time>
      </trkpt>
      <trkpt lat="48.00947" lon="6.95952">
        <ele>1001.35</ele>
        <time>2022-10-05T15:07:48Z</time>
      </trkpt>
      <trkpt lat="48.00948" lon="6.95947">
        <ele>1001.35</ele>
        <time>2022-10-05T15:07:50Z</time>
      </trkpt>
      <trkpt lat="48.00949" lon="6.95934">
        <ele>1001.35</ele>
        <time>2022-10-05T15:07:55Z</time>
      </trkpt>
      <trkpt lat="48.00951" lon="6.95924">
        <ele>1001.35</ele>
        <time>2022-10-05T15:07:58Z</time>
      </trkpt>
      <trkpt lat="48.00958" lon="6.95907">
        <ele>1001.83</ele>
        <time>2022-10-05T15:08:11Z</time>
      </trkpt>
      <trkpt lat="48.00962" lon="6.95902">
        <ele>1001.35</ele>
        <time>2022-10-05T15:08:22Z</time>
      </trkpt>
      <trkpt lat="48.00959" lon="6.95886">
        <ele>1000.87</ele>
        <time>2022-10-05T15:08:37Z</time>
      </trkpt>
      <trkpt lat="48.00959" lon="6.95859">
        <ele>1000.39</ele>
        <time>2022-10-05T15:08:54Z</time>
      </trkpt>
      <trkpt lat="48.00957" lon="6.95836">
        <ele>999.91</ele>
        <time>2022-10-05T15:09:04Z</time>
      </trkpt>
      <trkpt lat="48.00961" lon="6.95816">
        <ele>998.95</ele>
        <time>2022-10-05T15:09:18Z</time>
      </trkpt>
      <trkpt lat="48.00966" lon="6.95802">
        <ele>997.99</ele>
        <time>2022-10-05T15:09:30Z</time>
      </trkpt>
      <trkpt lat="48.00969" lon="6.95791">
        <ele>997.51</ele>
        <time>2022-10-05T15:09:46Z</time>
      </trkpt>
      <trkpt lat="48.00971" lon="6.95791">
        <ele>997.51</ele>
        <time>2022-10-05T15:10:08Z</time>
      </trkpt>
      <trkpt lat="48.00975" lon="6.9578">
        <ele>997.51</ele>
        <time>2022-10-05T15:10:24Z</time>
      </trkpt>
      <trkpt lat="48.00976" lon="6.95773">
        <ele>997.51</ele>
        <time>2022-10-05T15:10:44Z</time>
      </trkpt>
      <trkpt lat="48.00977" lon="6.95771">
        <ele>997.02</ele>
        <time>2022-10-05T15:11:04Z</time>
      </trkpt>
      <trkpt lat="48.00978" lon="6.9577">
        <ele>998.47</ele>
        <time>2022-10-05T15:11:26Z</time>
      </trkpt>
      <trkpt lat="48.00977" lon="6.95769">
        <ele>998.47</ele>
        <time>2022-10-05T15:11:54Z</time>
      </trkpt>
      <trkpt lat="48.00978" lon="6.95765">
        <ele>997.51</ele>
        <time>2022-10-05T15:12:17Z</time>
      </trkpt>
      <trkpt lat="48.00982" lon="6.9575">
        <ele>996.54</ele>
        <time>2022-10-05T15:12:30Z</time>
      </trkpt>
      <trkpt lat="48.00992" lon="6.95745">
        <ele>996.06</ele>
        <time>2022-10-05T15:12:43Z</time>
      </trkpt>
      <trkpt lat="48.00998" lon="6.95746">
        <ele>995.58</ele>
        <time>2022-10-05T15:12:57Z</time>
      </trkpt>
      <trkpt lat="48.00999" lon="6.95737">
        <ele>995.58</ele>
        <time>2022-10-05T15:13:12Z</time>
      </trkpt>
      <trkpt lat="48.01001" lon="6.95719">
        <ele>993.18</ele>
        <time>2022-10-05T15:13:25Z</time>
      </trkpt>
      <trkpt lat="48.01006" lon="6.95705">
        <ele>991.74</ele>
        <time>2022-10-05T15:13:40Z</time>
      </trkpt>
      <trkpt lat="48.01009" lon="6.95697">
        <ele>990.78</ele>
        <time>2022-10-05T15:13:54Z</time>
      </trkpt>
      <trkpt lat="48.01016" lon="6.95698">
        <ele>990.3</ele>
        <time>2022-10-05T15:14:04Z</time>
      </trkpt>
      <trkpt lat="48.01017" lon="6.95684">
        <ele>988.85</ele>
        <time>2022-10-05T15:14:17Z</time>
      </trkpt>
      <trkpt lat="48.01024" lon="6.95664">
        <ele>989.33</ele>
        <time>2022-10-05T15:14:28Z</time>
      </trkpt>
      <trkpt lat="48.01031" lon="6.95652">
        <ele>989.81</ele>
        <time>2022-10-05T15:14:41Z</time>
      </trkpt>
      <trkpt lat="48.01032" lon="6.95652">
        <ele>988.85</ele>
        <time>2022-10-05T15:15:03Z</time>
      </trkpt>
      <trkpt lat="48.01033" lon="6.95646">
        <ele>983.57</ele>
        <time>2022-10-05T15:15:16Z</time>
      </trkpt>
      <trkpt lat="48.01033" lon="6.95646">
        <ele>996.06</ele>
        <time>2022-10-05T15:15:17Z</time>
      </trkpt>
      <trkpt lat="48.01033" lon="6.95646">
        <ele>989.81</ele>
        <time>2022-10-05T15:15:18Z</time>
      </trkpt>
      <trkpt lat="48.01034" lon="6.95639">
        <ele>990.3</ele>
        <time>2022-10-05T15:15:42Z</time>
      </trkpt>
    </trkseg>
  </trk>
</gpx>